[[{"header":{"parameterUnit":"m.s-1","parameterCategory":1,"la1":30.6,"la2":28.766,"lo1":-90.7593,"lo2":-88.6598,"dy":0.0162,"dx":0.0183,"nx":116,"ny":114,"refTime":"2023-09-25T12:00:00:Z","depth":0,"parameterNumber":2,"parameterNumberName":"U-component_of_WINDS"},"data":[0.0,0.0,0.0,0.0,0.0,0.0,0.0,0.0,0.0,0.0,0.0,0.0,0.0,0.0,0.0,0.0,0.0,0.0,0.0,0.0,0.0,0.0,0.0,0.0,0.0,0.0,0.0,0.0,0.0,0.0,0.0,0.0,0.0,0.0,0.0,0.0,0.0,0.0,0.0,0.0,0.0,0.0,0.0,0.0,0.0,0.0,0.0,0.0,0.0,0.0,0.0,0.0,0.0,0.0,0.0,0.0,0.0,0.0,0.0,0.0,0.0,0.0,0.0,0.0,0.0,0.0,0.0,0.0,0.0,0.0,0.0,0.0,0.0,0.0,0.0,0.0,0.0,0.0,0.0,0.0,0.0,0.0,0.0,0.0,0.0,0.0,0.0,0.0,0.0,0.0,0.0,0.0,0.0,0.0,0.0,0.0,0.0,0.0,0.0,0.0,0.0,0.0,0.0,0.0,0.0,0.0,0.0,0.0,0.0,0.0,0.0,0.0,0.0,0.0,0.0,0.0,0.0,0.0,0.0,0.0,0.0,0.0,0.0,0.0,0.0,0.0,0.0,0.0,0.0,0.0,0.0,0.0,0.0,0.0,0.0,0.0,0.0,0.0,0.0,0.0,0.0,0.0,0.0,0.0,0.0,0.0,0.0,0.0,0.0,0.0,0.0,0.0,0.0,0.0,0.0,0.0,0.0,0.0,0.0,0.0,0.0,0.0,0.0,0.0,0.0,0.0,0.0,0.0,0.0,0.0,0.0,0.0,0.0,0.0,0.0,0.0,0.0,0.0,0.0,0.0,0.0,0.0,0.0,0.0,0.0,0.0,0.0,0.0,0.0,0.0,0.0,0.0,0.0,0.0,0.0,0.0,0.0,0.0,0.0,0.0,0.0,0.0,0.0,0.0,0.0,0.0,0.0,0.0,0.0,0.0,0.0,0.0,0.0,0.0,0.0,0.0,0.0,0.0,0.0,0.0,0.0,0.0,0.0,0.0,0.0,0.0,0.0,0.0,0.0,0.0,0.0,0.0,0.0,0.0,0.0,0.0,0.0,0.0,0.0,0.0,0.0,0.0,0.0,0.0,0.0,0.0,0.0,0.0,0.0,0.0,0.0,0.0,0.0,0.0,0.0,0.0,0.0,0.0,0.0,0.0,0.0,0.0,0.0,0.0,0.0,0.0,0.0,0.0,0.0,0.0,0.0,0.0,0.0,0.0,0.0,0.0,0.0,0.0,0.0,0.0,0.0,0.0,0.0,0.0,0.0,0.0,0.0,0.0,0.0,0.0,0.0,0.0,0.0,0.0,0.0,0.0,0.0,0.0,0.0,0.0,0.0,0.0,0.0,0.0,0.0,0.0,0.0,0.0,0.0,0.0,0.0,0.0,0.0,0.0,0.0,0.0,0.0,0.0,0.0,0.0,0.0,0.0,0.0,0.0,0.0,0.0,0.0,0.0,0.0,0.0,0.0,0.0,0.0,0.0,0.0,0.0,0.0,0.0,0.0,0.0,0.0,0.0,0.0,0.0,0.0,0.0,0.0,0.0,0.0,0.0,0.0,0.0,0.0,0.0,0.0,0.0,0.0,0.0,0.0,0.0,0.0,0.0,0.0,0.0,0.0,0.0,0.0,0.0,0.0,0.0,0.0,0.0,0.0,0.0,0.0,0.0,0.0,0.0,0.0,0.0,0.0,0.0,0.0,0.0,0.0,0.0,0.0,0.0,0.0,0.0,0.0,0.0,0.0,0.0,0.0,0.0,0.0,0.0,0.0,0.0,0.0,0.0,0.0,0.0,0.0,0.0,0.0,0.0,0.0,0.0,0.0,0.0,0.0,0.0,0.0,0.0,0.0,0.0,0.0,0.0,0.0,0.0,0.0,0.0,0.0,0.0,0.0,0.0,0.0,0.0,0.0,0.0,0.0,0.0,0.0,0.0,0.0,0.0,0.0,0.0,0.0,0.0,0.0,0.0,0.0,0.0,0.0,0.0,0.0,0.0,0.0,0.0,0.0,0.0,0.0,0.0,0.0,0.0,0.0,0.0,0.0,0.0,0.0,0.0,0.0,0.0,0.0,0.0,0.0,0.0,0.0,0.0,0.0,0.0,0.0,0.0,0.0,0.0,0.0,0.0,0.0,0.0,0.0,0.0,0.0,0.0,0.0,0.0,0.0,0.0,0.0,0.0,0.0,0.0,0.0,0.0,0.0,0.0,0.0,0.0,0.0,0.0,0.0,0.0,0.0,0.0,0.0,0.0,0.0,0.0,0.0,0.0,0.0,0.0,0.0,0.0,0.0,0.0,0.0,0.0,0.0,0.0,0.0,0.0,0.0,0.0,0.0,0.0,0.0,0.0,0.0,0.0,0.0,0.0,0.0,0.0,0.0,0.0,0.0,0.0,0.0,0.0,0.0,0.0,0.0,0.0,0.0,0.0,0.0,0.0,0.0,0.0,0.0,0.0,0.0,0.0,0.0,0.0,0.0,0.0,0.0,0.0,0.0,0.0,0.0,0.0,0.0,0.0,0.0,0.0,0.0,0.0,0.0,0.0,0.0,0.0,0.0,0.0,0.0,0.0,0.0,0.0,0.0,0.0,0.0,0.0,0.0,0.0,0.0,0.0,0.0,0.0,0.0,0.0,0.0,0.0,0.0,0.0,0.0,0.0,0.0,0.0,0.0,0.0,0.0,0.0,0.0,0.0,0.0,0.0,0.0,0.0,0.0,0.0,0.0,0.0,0.0,0.0,0.0,0.0,0.0,0.0,0.0,0.0,0.0,0.0,0.0,0.0,0.0,0.0,0.0,0.0,0.0,0.0,0.0,0.0,0.0,0.0,0.0,0.0,0.0,0.0,0.0,0.0,0.0,0.0,0.0,0.0,0.0,0.0,0.0,0.0,0.0,0.0,0.0,0.0,0.0,0.0,0.0,0.0,0.0,0.0,0.0,0.0,0.0,0.0,0.0,0.0,0.0,0.0,0.0,0.0,0.0,0.0,0.0,0.0,0.0,0.0,0.0,0.0,0.0,0.0,0.0,0.0,0.0,0.0,0.0,0.0,0.0,0.0,0.0,0.0,0.0,0.0,0.0,0.0,0.0,0.0,0.0,0.0,0.0,0.0,0.0,0.0,0.0,0.0,0.0,0.0,0.0,0.0,0.0,0.0,0.0,0.0,0.0,0.0,0.0,0.0,0.0,0.0,0.0,0.0,0.0,0.0,0.0,0.0,0.0,0.0,0.0,0.0,0.0,0.0,0.0,0.0,0.0,0.0,0.0,0.0,0.0,0.0,0.0,0.0,0.0,0.0,0.0,0.0,0.0,0.0,0.0,0.0,0.0,0.0,0.0,0.0,0.0,0.0,0.0,0.0,0.0,0.0,0.0,0.0,0.0,0.0,0.0,0.0,0.0,0.0,0.0,0.0,0.0,0.0,0.0,0.0,0.0,0.0,0.0,0.0,0.0,0.0,0.0,0.0,0.0,0.0,0.0,0.0,0.0,0.0,0.0,0.0,0.0,0.0,0.0,0.0,0.0,0.0,0.0,0.0,0.0,0.0,0.0,0.0,0.0,0.0,0.0,0.0,0.0,0.0,0.0,0.0,0.0,0.0,0.0,0.0,0.0,0.0,0.0,0.0,0.0,0.0,0.0,0.0,0.0,0.0,0.0,0.0,0.0,0.0,0.0,0.0,0.0,0.0,0.0,0.0,0.0,0.0,0.0,0.0,0.0,0.0,0.0,0.0,0.0,0.0,0.0,0.0,0.0,0.0,0.0,0.0,0.0,0.0,0.0,0.0,0.0,0.0,0.0,0.0,0.0,0.0,0.0,0.0,0.0,0.0,0.0,0.0,0.0,0.0,0.0,0.0,0.0,0.0,0.0,0.0,0.0,0.0,0.0,0.0,0.0,0.0,0.0,0.0,0.0,0.0,0.0,0.0,0.0,0.0,0.0,0.0,0.0,0.0,0.0,0.0,0.0,0.0,0.0,0.0,0.0,0.0,0.0,0.0,0.0,0.0,0.0,0.0,0.0,0.0,0.0,0.0,0.0,0.0,0.0,0.0,0.0,0.0,0.0,0.0,0.0,0.0,0.0,0.0,0.0,0.0,0.0,0.0,0.0,0.0,0.0,0.0,0.0,0.0,0.0,0.0,0.0,0.0,0.0,0.0,0.0,0.0,0.0,0.0,0.0,0.0,0.0,0.0,0.0,0.0,0.0,0.0,0.0,0.0,0.0,0.0,0.0,0.0,0.0,0.0,0.0,0.0,0.0,0.0,0.0,0.0,0.0,0.0,0.0,0.0,0.0,0.0,0.0,0.0,0.0,0.0,0.0,0.0,0.0,0.0,0.0,0.0,0.0,0.0,0.0,0.0,0.0,0.0,0.0,0.0,0.0,0.0,0.0,0.0,0.0,0.0,0.0,0.0,0.0,0.0,0.0,0.0,0.0,0.0,0.0,0.0,0.0,0.0,0.0,0.0,0.0,0.0,0.0,0.0,0.0,0.0,0.0,0.0,0.0,0.0,0.0,0.0,0.0,0.0,0.0,0.0,0.0,0.0,0.0,0.0,0.0,0.0,0.0,0.0,0.0,0.0,0.0,0.0,0.0,0.0,0.0,0.0,0.0,0.0,0.0,0.0,0.0,0.0,0.0,0.0,0.0,0.0,0.0,0.0,0.0,0.0,0.0,0.0,0.0,0.0,0.0,0.0,0.0,0.0,0.0,0.0,0.0,0.0,0.0,0.0,0.0,0.0,0.0,0.0,0.0,0.0,0.0,0.0,0.0,0.0,0.0,0.0,0.0,0.0,0.0,0.0,0.0,0.0,0.0,0.0,0.0,0.0,0.0,0.0,0.0,0.0,0.0,0.0,0.0,0.0,0.0,0.0,0.0,0.0,0.0,0.0,0.0,0.0,0.0,0.0,0.0,0.0,0.0,0.0,0.0,0.0,0.0,0.0,0.0,0.0,0.0,0.0,0.0,0.0,0.0,0.0,0.0,0.0,0.0,0.0,0.0,0.0,0.0,0.0,0.0,0.0,0.0,0.0,0.0,0.0,0.0,0.0,0.0,0.0,0.0,0.0,0.0,0.0,0.0,0.0,0.0,0.0,0.0,0.0,0.0,0.0,0.0,0.0,0.0,0.0,0.0,0.0,0.0,0.0,0.0,0.0,0.0,0.0,0.0,0.0,0.0,0.0,0.0,0.0,0.0,0.0,0.0,0.0,0.0,0.0,0.0,0.0,0.0,0.0,0.0,0.0,0.0,0.0,0.0,0.0,0.0,0.0,0.0,0.0,0.0,0.0,0.0,0.0,0.0,0.0,0.0,0.0,0.0,0.0,0.0,0.0,0.0,0.0,0.0,0.0,0.0,0.0,0.0,0.0,0.0,0.0,0.0,0.0,0.0,0.0,0.0,0.0,0.0,0.0,0.0,0.0,0.0,0.0,0.0,0.0,0.0,0.0,0.0,0.0,0.0,0.0,0.0,0.0,0.0,0.0,0.0,0.0,0.0,0.0,0.0,0.0,0.0,0.0,0.0,0.0,0.0,0.0,0.0,0.0,0.0,0.0,0.0,0.0,0.0,0.0,0.0,0.0,0.0,0.0,0.0,0.0,0.0,0.0,0.0,0.0,0.0,0.0,0.0,0.0,0.0,0.0,0.0,0.0,0.0,0.0,0.0,0.0,0.0,0.0,0.0,0.0,0.0,0.0,0.0,0.0,0.0,0.0,0.0,0.0,0.0,0.0,0.0,0.0,0.0,0.0,0.0,0.0,0.0,0.0,0.0,0.0,0.0,0.0,0.0,0.0,0.0,0.0,0.0,0.0,0.0,0.0,0.0,0.0,0.0,0.0,0.0,0.0,0.0,0.0,0.0,0.0,0.0,0.0,0.0,0.0,0.0,0.0,0.0,0.0,0.0,0.0,0.0,0.0,0.0,0.0,0.0,0.0,0.0,0.0,0.0,0.0,0.0,0.0,0.0,0.0,0.0,0.0,0.0,0.0,0.0,0.0,0.0,0.0,0.0,0.0,0.0,0.0,0.0,0.0,0.0,0.0,0.0,0.0,0.0,0.0,0.0,0.0,0.0,0.0,0.0,0.0,0.0,0.0,0.0,0.0,0.0,0.0,1.7609,1.7662,0.0,0.0,0.0,0.0,0.0,0.0,0.0,0.0,0.0,0.0,0.0,0.0,0.0,0.0,0.0,0.0,0.0,0.0,0.0,0.0,0.0,0.0,0.0,0.0,0.0,0.0,0.0,0.0,0.0,0.0,0.0,0.0,0.0,0.0,0.0,0.0,0.0,1.67,1.67,1.67,1.67,1.6393,1.6222,1.6222,0.0,0.0,0.0,0.0,0.0,0.0,0.0,0.0,0.0,0.0,0.0,0.0,0.0,0.0,0.0,0.0,0.0,0.0,0.0,0.0,0.0,0.0,0.0,0.0,0.0,0.0,0.0,0.0,0.0,0.0,0.0,0.0,0.0,0.0,0.0,0.0,0.0,0.0,0.0,0.0,0.0,0.0,0.0,0.0,0.0,0.0,0.0,0.0,0.0,0.0,0.0,0.0,0.0,0.0,0.0,0.0,0.0,0.0,0.0,0.0,0.0,0.0,0.0,0.0,0.0,0.0,0.0,0.0,0.0,0.0,1.8277,1.8196,0.0,0.0,0.0,0.0,0.0,0.0,0.0,0.0,0.0,0.0,0.0,0.0,0.0,0.0,0.0,0.0,0.0,0.0,0.0,0.0,0.0,0.0,0.0,0.8054,0.8636,1.012,1.0239,1.0858,0.0,0.0,0.0,0.0,0.0,0.0,1.6113,1.6341,1.6468,1.6468,1.6721,1.686,1.686,1.686,1.686,1.686,1.6754,0.0,0.0,0.0,0.0,0.0,0.0,0.0,0.0,0.0,0.0,0.0,0.0,0.0,0.0,0.0,0.0,0.0,0.0,0.0,0.0,0.0,0.0,0.0,0.0,0.0,0.0,0.0,0.0,0.0,0.0,0.0,0.0,0.0,0.0,0.0,0.0,0.0,0.0,0.0,0.0,0.0,0.0,0.0,0.0,0.0,0.0,0.0,0.0,0.0,0.0,0.0,0.0,0.0,0.0,0.0,0.0,0.0,0.0,0.0,0.0,0.0,0.0,0.0,1.8798,1.8798,1.8798,1.8798,1.9065,1.9522,1.8998,1.8798,1.8798,1.8798,0.0,0.0,0.0,0.0,0.0,0.0,0.0,0.0,0.0,0.0,0.0,0.0,0.0,0.0,0.0,0.0,0.0,0.0,0.0,0.0,0.8253,0.8267,0.8827,1.026,1.038,1.0957,1.2325,0.0,0.0,0.0,0.0,0.0,1.3746,1.4946,1.5582,1.5582,1.6846,1.7488,1.7488,1.7488,1.7488,1.7474,1.6927,1.67,1.67,0.0,0.0,0.0,0.0,0.0,0.0,0.0,0.0,0.0,0.0,0.0,0.0,0.0,0.0,0.0,0.0,0.0,0.0,0.0,0.0,0.0,0.0,0.0,0.0,0.0,0.0,0.0,0.0,0.0,0.0,0.0,0.0,0.0,0.0,0.0,0.0,0.0,0.0,0.0,0.0,0.0,1.7569,1.7809,0.0,0.0,0.0,0.0,0.0,0.0,0.0,0.0,0.0,0.0,0.0,0.0,0.0,1.8998,1.9281,1.9506,1.976,1.997,1.997,1.997,1.997,1.997,2.001,2.0077,2.001,0.0,1.997,1.997,0.0,0.0,0.0,0.0,0.0,0.0,0.0,0.0,0.0,0.0,0.0,0.0,0.0,0.0,0.0,0.0,0.0,0.0,0.0,0.0,0.0,0.8417,0.868,0.9383,0.9451,0.9728,1.0383,1.1377,0.0,0.0,0.0,1.3517,1.3517,1.5021,1.6241,1.714,1.7791,1.8117,1.8117,1.8117,1.8117,1.8076,1.7822,1.7515,1.7194,1.7046,0.0,0.0,0.0,0.0,0.0,0.0,0.0,0.0,0.0,0.0,0.0,0.0,0.0,0.0,0.0,0.0,0.0,0.0,0.0,0.0,0.0,0.0,0.0,0.0,0.0,0.0,0.0,0.0,0.0,0.0,0.0,0.0,0.0,0.0,0.0,0.0,0.0,0.0,0.0,1.7929,1.8143,1.8277,1.841,1.849,0.0,0.0,0.0,0.0,0.0,0.0,0.0,0.0,0.0,1.9466,1.976,1.9973,2.0137,2.0388,2.0601,2.0691,2.0691,2.0691,2.0691,2.0691,2.0815,2.1007,2.1007,2.1069,2.1162,2.0477,2.0197,2.0197,0.0,0.0,0.0,0.0,2.0691,2.0744,0.0,0.0,0.0,0.0,0.0,0.0,0.0,0.0,0.0,0.0,0.0,0.0,0.8533,0.854,0.8601,0.873,0.8743,0.8804,0.8953,1.0085,1.0779,1.0799,1.1973,1.2585,1.2585,1.4526,1.6518,1.849,1.849,1.849,1.849,1.849,1.849,1.849,1.849,1.8237,1.7822,1.7608,1.7515,1.7501,0.0,0.0,0.0,0.0,0.0,0.0,0.0,0.0,0.0,0.0,0.0,0.0,0.0,0.0,0.0,0.0,0.0,0.0,0.0,0.0,0.0,0.0,0.0,0.0,0.0,0.0,0.0,0.0,0.0,0.0,0.0,0.0,0.0,0.0,0.0,0.0,0.0,1.8597,1.8651,1.8811,1.8824,1.8851,0.0,0.0,0.0,0.0,0.0,0.0,2.0304,2.0317,2.0344,2.0424,2.0748,2.0927,2.0927,2.1189,2.1336,2.1336,2.1336,2.1336,2.1336,2.1336,2.1456,2.1703,2.1703,2.1823,2.1911,2.1042,2.065,2.065,2.065,2.065,2.0704,2.1176,2.1336,2.1403,0.0,0.0,0.0,0.0,0.0,0.0,0.0,0.0,0.0,0.0,0.0,0.854,0.8682,0.8696,0.8737,0.8885,0.8899,0.896,0.9158,0.9264,0.9361,0.9476,0.9577,0.9606,0.9606,1.2509,1.5496,1.849,1.849,1.849,1.849,1.849,1.849,1.849,1.849,1.8477,1.8437,1.8424,1.8424,1.8424,1.841,0.0,0.0,0.0,0.0,0.0,0.0,0.0,0.0,0.0,0.0,0.0,0.0,0.0,0.0,0.0,0.0,0.0,0.0,0.0,0.0,0.0,0.0,0.0,0.0,0.0,0.0,0.0,0.0,0.0,0.0,0.0,0.0,0.0,0.0,0.0,0.0,0.0,0.0,1.9666,1.9733,0.0,0.0,0.0,0.0,2.0157,2.017,2.0304,2.0672,2.0686,2.0775,2.1056,2.1381,2.1542,2.1542,2.1836,2.1937,2.1937,2.1937,2.1937,2.1937,2.1937,2.1951,2.1964,2.1964,2.201,2.201,2.1924,2.1897,2.1897,2.1897,2.1897,2.1897,2.1924,2.1937,2.1951,0.0,0.0,0.0,0.0,0.0,0.0,0.0,0.0,0.8574,0.8621,0.8716,0.877,0.8825,0.8831,0.8885,0.909,0.9104,0.9165,0.9322,0.9424,0.9469,0.9523,0.9612,1.0137,1.1163,1.3282,1.5416,1.7523,1.8581,1.908,1.908,1.908,1.908,1.908,1.908,1.908,1.9053,1.8651,1.849,1.849,1.849,1.849,0.0,0.0,0.0,0.0,0.0,0.0,0.0,0.0,0.0,0.0,0.0,0.0,0.0,0.0,0.0,0.0,0.0,0.0,0.0,0.0,0.0,0.0,0.0,0.0,0.0,0.0,0.0,0.0,0.0,0.0,0.0,0.0,0.0,0.0,0.0,0.0,0.0,2.0024,2.005,0.0,2.0494,2.0521,2.0668,2.1087,2.1114,2.1248,2.1529,2.1555,2.1563,2.167,2.1951,2.2238,2.2425,2.2699,2.2939,2.3174,2.3174,2.3174,2.3174,2.3174,2.3174,2.3174,2.3174,2.3174,2.3174,2.3174,2.2719,2.1991,2.1991,2.1991,2.2004,2.2191,2.2258,2.2298,0.0,0.0,0.0,0.0,0.0,0.0,0.0,0.0,0.8703,0.875,0.8845,0.8912,0.8912,0.8953,0.9049,0.92,0.9226,0.9322,0.9449,0.9551,0.9632,0.968,0.9744,1.0536,1.2157,1.3765,1.5104,1.6197,1.7806,1.8336,1.7853,1.8454,1.874,1.8813,1.9417,1.9599,1.9522,1.9105,1.8878,1.8784,1.8784,1.8784,1.8799,0.0,0.0,0.0,0.0,0.0,0.0,0.0,0.0,0.0,0.0,0.0,0.0,0.0,0.0,0.0,0.0,0.0,0.0,0.0,0.0,0.0,0.0,0.0,0.0,0.0,0.0,0.0,0.0,0.0,0.0,0.0,0.0,0.0,0.0,2.029,2.0384,2.049,2.0584,2.0788,2.1127,2.1154,2.1315,2.1703,2.1729,2.1903,2.2291,2.2318,2.2412,2.2612,2.2779,2.2966,2.3201,2.338,2.3581,2.3803,2.3803,2.3803,2.3803,2.3803,2.3857,2.3915,2.3915,2.3968,2.4062,2.4062,2.3594,2.2859,2.2672,2.2626,2.2653,2.2806,2.2873,2.2899,0.0,0.0,0.0,0.0,0.0,0.0,0.8696,0.8716,0.8743,0.8892,0.8912,0.8912,0.8919,0.9097,0.9214,0.9221,0.9328,0.9456,0.9605,0.9618,0.968,0.9785,0.9792,1.0543,1.2105,1.3715,1.453,1.453,1.6161,1.6213,1.4831,1.6537,1.743,1.7676,1.9363,2.002,1.9813,1.9813,1.9653,1.9428,1.9401,1.9401,1.9361,0.0,0.0,0.0,0.0,0.0,0.0,0.0,0.0,0.0,0.0,0.0,0.0,0.0,0.0,0.0,0.0,0.0,0.0,0.0,0.0,0.0,0.0,0.0,0.0,0.0,0.0,0.0,0.0,0.0,0.0,0.0,0.0,0.0,2.033,2.0535,2.0846,2.1109,2.1422,2.1716,2.201,2.2004,2.2017,2.2031,2.2031,2.2318,2.2893,2.292,2.3201,2.3803,2.3817,2.383,2.3843,2.3843,2.3808,2.375,2.3821,2.3821,2.375,2.3821,2.3981,2.4249,2.4249,2.4409,2.4626,2.4626,2.4626,2.4572,2.4022,2.3794,2.3723,2.3723,2.3687,2.3616,0.0,0.0,0.0,0.0,0.0,0.0,0.8825,0.8845,0.8865,0.8906,0.8912,0.8953,0.9111,0.9158,0.9274,0.9462,0.9523,0.9605,0.9724,0.9731,0.9751,0.9792,0.9792,1.0053,1.0595,1.2175,1.3092,1.3234,1.4798,1.535,1.4949,1.5443,1.6337,1.7614,1.8117,1.8978,2.0077,2.0077,2.0037,1.996,1.9562,1.9401,1.9388,0.0,0.0,0.0,0.0,0.0,0.0,0.0,0.0,0.0,0.0,0.0,0.0,0.0,0.0,0.0,0.0,0.0,0.0,0.0,0.0,0.0,0.0,0.0,0.0,0.0,0.0,0.0,0.0,0.0,0.0,0.0,2.1697,2.1617,2.1274,2.1475,2.1657,2.1737,2.1817,2.201,2.2271,2.2498,2.2712,2.2939,2.3153,2.3388,2.3549,2.3549,2.3723,2.4075,2.4088,2.4289,2.4753,2.4753,2.4065,2.2724,2.4297,2.4221,2.2762,2.4297,2.5077,2.5157,2.5157,2.5197,2.5239,2.5239,2.5239,2.5173,2.4623,2.3417,2.2055,2.2055,2.1045,1.966,0.0,0.0,0.0,0.0,0.0,0.0,0.8899,0.8912,0.8912,0.8912,0.896,0.9062,0.92,0.9294,0.9415,0.9591,0.9666,0.9704,0.9785,0.9792,0.9819,0.9886,0.9886,0.9954,1.0109,1.169,1.226,1.168,1.3269,1.3712,1.313,1.3857,1.5155,1.6926,1.7648,1.8889,2.0414,2.0414,2.0317,2.017,1.9867,1.9733,1.9733,1.9733,1.9733,1.9733,1.9733,1.9733,1.9733,1.9733,0.0,0.0,0.0,0.0,0.0,0.0,0.0,0.0,0.0,0.0,0.0,0.0,0.0,0.0,0.0,0.0,0.0,0.0,0.0,0.0,0.0,0.0,0.0,0.0,2.2084,2.2151,2.2144,2.2171,2.2218,2.2372,2.2472,2.2659,2.2953,2.3174,2.3348,2.35,2.3781,2.4008,2.4128,2.4285,2.4449,2.4743,2.4756,2.4917,2.5251,2.5264,2.4723,2.3675,2.5048,2.5062,2.3888,2.527,2.5426,2.4617,2.4617,2.4116,2.3341,2.3341,2.3341,2.3428,0.0,0.0,0.0,0.0,2.1717,1.9841,0.0,0.0,0.0,0.0,0.0,0.0,0.8912,0.8926,0.8933,0.8933,0.9089,0.9241,0.9233,0.9449,0.9618,0.9632,0.9717,0.9792,0.9792,0.9805,0.9879,0.9984,1.0035,1.0116,1.0335,1.1711,1.1751,1.0363,1.1789,1.1843,1.0574,1.2167,1.3864,1.5724,1.7293,1.8828,2.024,2.044,2.0332,2.0038,2.0252,2.029,2.0197,2.0197,2.0197,2.0197,2.0197,2.0197,2.0197,2.0197,0.0,0.0,0.0,0.0,0.0,0.0,0.0,0.0,0.0,0.0,0.0,0.0,0.0,0.0,0.0,0.0,0.0,0.0,0.0,0.0,0.0,0.0,0.0,0.0,2.2325,2.2619,2.2907,2.2712,2.2672,2.2974,2.3207,2.3487,2.3777,2.387,2.391,2.391,2.4168,2.4462,2.4679,2.4983,0.0,0.0,0.0,2.5227,2.5267,2.5023,2.4804,2.4559,2.5101,2.5217,2.5021,2.5476,2.4733,2.3062,2.3062,2.1984,2.0313,2.0313,2.0313,2.0566,2.342,2.4559,2.452,2.4275,2.2982,2.1329,0.0,0.0,0.0,0.0,0.0,0.0,0.8912,0.9035,0.9138,0.9138,0.9274,0.9417,0.951,0.9571,0.9652,0.9737,0.9771,0.9792,0.9792,0.9907,0.9988,0.9984,1.0168,1.0304,1.0446,1.0769,1.0832,1.0636,1.105,1.1094,1.0826,1.1348,1.2527,1.4204,1.4576,1.5658,1.7321,1.8855,1.9316,1.9128,2.0708,2.0869,2.0197,2.0197,2.0197,2.0197,2.0197,2.0197,2.0197,2.0197,2.0197,2.0237,2.0508,2.0588,0.0,0.0,0.0,0.0,0.0,0.0,0.0,0.0,0.0,0.0,0.0,0.0,0.0,0.0,0.0,0.0,0.0,0.0,0.0,2.2693,2.2953,2.3132,2.3198,2.3394,2.3562,2.3629,2.3683,2.375,2.3803,2.4195,2.4439,2.4439,2.4957,2.5277,2.5306,2.5398,2.5571,2.5904,2.4275,2.3532,2.38,2.2148,2.0435,1.8745,2.0559,0.0,1.8885,2.0661,2.1284,2.091,2.091,2.0691,2.0313,2.0313,2.0313,2.0209,1.9135,1.8736,1.8486,1.6701,1.5787,1.5459,0.0,0.0,0.0,0.0,0.0,0.0,0.8912,0.9062,0.9207,0.9207,0.9383,0.9523,0.9598,0.9673,0.971,0.9785,0.9792,0.9883,1.0039,1.0021,1.0082,1.0231,1.0344,1.0453,1.0602,1.0609,1.0683,1.0799,1.088,1.0955,1.1056,1.1166,1.2116,1.3806,1.3806,1.4785,1.6469,1.7389,1.8228,1.9022,1.9822,2.0439,2.0882,2.0691,2.0637,2.0637,2.0637,2.0637,2.0637,2.0637,2.0637,2.0664,2.0842,2.1034,2.1181,0.0,0.0,0.0,0.0,0.0,0.0,0.0,0.0,0.0,0.0,0.0,0.0,0.0,0.0,2.2505,2.2619,0.0,2.2926,2.3073,2.3354,2.3594,2.3741,2.4022,2.4155,2.4008,2.4115,2.4262,2.4446,2.4823,2.5039,2.5039,2.5491,2.5798,2.5945,2.5008,2.4566,2.4894,2.2755,2.1681,2.1852,2.0795,1.9768,1.8726,1.9959,1.9965,1.9,2.02,2.0121,1.9063,1.9063,1.8377,1.732,1.732,1.732,1.7191,1.6129,1.6912,1.8557,1.7459,1.6366,1.5446,0.0,0.0,0.0,0.0,0.0,0.0,0.0,0.9089,0.9226,0.9226,0.9462,0.9652,0.9652,0.9724,0.9805,0.9832,0.9832,0.9985,1.0295,1.0157,1.0211,1.048,1.0521,1.0595,1.0684,1.0684,1.0745,1.0874,1.0928,1.105,1.12,1.1261,1.2038,1.3372,1.3372,1.4156,1.5518,1.626,1.7394,1.8765,1.9234,2.0321,2.1649,2.1376,2.1243,2.1189,2.1189,2.1229,2.1283,2.1283,2.1283,2.1283,2.1283,2.1475,2.1662,2.1662,2.1836,0.0,0.0,0.0,0.0,0.0,0.0,0.0,0.0,2.2498,2.2579,2.2853,2.2947,2.2987,2.2987,2.3207,2.3407,2.3407,2.3714,2.4022,2.4249,2.4546,2.4679,2.4489,2.4626,2.4866,2.5144,2.5424,2.5625,2.5678,2.5959,2.6082,2.5896,2.4357,2.3376,2.3117,2.0898,1.97,1.97,1.9325,1.9133,1.9133,1.9429,1.9547,1.9557,1.976,1.8845,1.7115,1.7115,1.6034,1.4299,1.4299,1.4299,1.4299,1.4299,1.6301,1.9133,1.9133,1.8039,1.6564,0.0,0.0,0.0,0.0,0.0,0.0,0.0,0.0,0.9383,0.9383,0.9612,0.9765,0.9765,0.9785,0.9846,0.9981,0.9994,1.0069,1.0301,1.0385,1.046,1.0487,1.0622,1.0671,1.0684,1.0684,1.0698,1.0711,1.1009,1.1179,1.12,1.1443,1.1673,1.1851,1.1851,1.1951,1.238,1.5704,1.709,1.7344,2.0653,2.1965,2.1937,2.1897,2.1756,2.1542,2.1542,2.1703,2.1884,2.1884,2.1884,2.1884,2.1884,2.1943,2.197,2.197,2.1997,2.2044,2.2298,2.2565,2.28,2.28,2.28,2.2813,0.0,2.2853,2.2853,2.2893,2.3086,2.3273,2.3273,2.3514,2.3728,2.3728,2.4182,2.4519,2.4546,2.5026,2.5398,2.5371,2.5398,2.5424,2.5464,2.5732,2.6051,2.6266,2.656,2.5941,2.4192,2.3868,2.2804,2.0773,1.8721,1.7622,1.7622,1.5861,1.4986,1.4986,1.5007,1.5014,1.5014,1.5073,1.4955,1.469,1.469,1.4557,1.4299,1.4299,1.4299,1.4299,1.4299,1.4581,1.4986,1.4986,1.481,1.4597,0.0,0.0,0.0,0.0,0.0,0.0,0.0,0.0,0.0,0.9503,0.9693,0.9792,0.9792,0.9792,0.9886,1.0161,1.0069,1.0157,1.0514,1.0507,1.0534,1.0622,1.065,1.0684,1.0684,1.0684,1.0732,1.0819,1.0941,1.1084,1.12,1.1382,1.1484,1.1491,1.1579,1.1584,1.1691,1.3281,1.5132,1.7166,1.8582,2.0383,2.2218,2.2044,2.2017,2.2031,2.1903,2.1917,0.0,2.1991,2.1991,2.1991,2.1991,2.2098,2.2231,2.2231,2.2365,2.2559,2.2645,2.28,2.2893,2.2893,2.2893,2.2893,2.2893,2.3041,2.314,2.314,2.338,2.3581,2.3581,2.3821,2.4075,2.4249,2.4623,2.4494,2.3429,2.3624,2.386,2.386,2.2977,2.3246,2.5566,2.5019,2.4541,2.4653,2.3639,2.2729,2.2094,2.0756,1.967,1.8852,1.6708,1.5541,1.5541,1.4699,1.4299,1.4299,1.4299,1.4299,1.4299,1.4299,1.4299,1.4299,1.4299,1.4299,1.4299,1.4299,1.4299,1.4299,1.4299,1.4299,1.4299,1.4299,1.4299,1.4299,0.0,0.0,0.0,0.0,0.0,0.0,0.0,0.0,0.0,0.0,0.9704,0.9792,0.9792,0.9792,0.9944,1.0288,1.0175,1.0251,1.0657,1.0616,1.0602,1.0717,1.0684,1.0684,1.0684,1.0684,1.0738,1.0853,1.0894,1.0968,1.1104,1.1301,1.1389,1.1396,1.1552,1.1584,1.1619,1.2144,1.3943,1.65,1.7378,1.9347,2.1789,2.2131,2.2352,2.2498,2.2205,2.2151,2.2265,2.2265,2.2265,2.2265,2.2265,2.2365,2.2539,2.2539,2.2733,2.2893,2.2893,2.2893,2.2893,2.2893,2.296,2.3027,2.3027,2.3233,2.3447,2.3447,2.3688,2.3924,2.3924,2.4128,2.4422,2.4679,2.4509,2.3858,2.2602,2.2144,2.193,2.1997,2.0883,2.1223,2.4154,2.3289,2.2568,2.2688,2.1275,2.0281,1.9985,1.8371,1.7237,1.6852,1.5168,1.4299,1.4299,1.4299,1.4299,1.4299,1.4299,1.4299,1.4299,1.4299,1.4299,1.4299,1.4299,1.4326,1.436,1.436,1.438,1.4421,1.4421,1.4421,1.4421,1.4421,1.4373,1.4299,0.0,0.0,0.0,0.0,0.0,0.0,0.0,0.0,0.0,0.0,0.0,0.0,0.0,0.9792,0.9944,1.0288,1.0276,1.0399,1.0671,1.0684,1.0717,1.0684,1.0684,1.0684,1.0684,1.0684,1.0691,1.0691,1.084,1.0914,1.0928,1.1253,1.1389,1.1396,1.1552,1.1584,1.1727,1.3551,1.4397,1.4814,1.8497,2.0086,2.0363,2.2168,2.288,2.284,2.2512,2.2592,2.2867,2.2867,2.2867,2.2867,2.2867,2.288,2.288,2.288,2.2893,2.2893,2.2893,2.2893,2.2893,2.2893,2.3086,2.3278,2.3278,2.3541,2.379,2.379,2.3981,2.4195,2.4195,2.4422,2.4679,2.5024,2.3565,2.2459,2.2678,2.1119,2.0018,2.018,2.0128,2.0218,2.0472,2.0418,2.0519,2.0857,2.0835,1.9952,1.8,1.7834,1.6765,1.4476,1.4343,1.4299,1.4299,1.4299,1.4299,1.4299,1.4299,1.4299,1.4299,1.4299,1.4299,1.4299,1.4299,1.438,1.4502,1.4502,1.459,1.4681,1.4681,1.4681,1.4681,1.4681,1.4498,1.4299,0.0,0.0,0.0,0.0,0.0,0.0,0.0,0.0,0.0,0.0,0.0,0.0,0.0,0.0,0.0,0.0,1.0315,1.0405,1.0671,1.0684,1.0684,1.0684,1.0684,1.0684,1.0684,1.0684,1.0684,1.0684,1.0738,1.0813,1.0921,1.1145,1.1294,1.1396,1.1552,1.2287,1.3488,1.4112,1.5875,1.8299,1.9565,2.0859,2.1885,2.1286,2.1032,2.1032,0.0,2.1761,2.2722,2.1459,2.1872,2.2688,2.1424,2.1919,2.2893,2.2893,2.2893,2.2893,2.2893,2.3041,2.3166,2.3166,2.3394,2.3621,2.3621,2.3848,2.4062,2.4062,2.3205,2.2485,2.2485,2.1468,2.0751,2.1116,2.0669,1.9935,1.8961,1.8316,1.7939,1.8094,1.6934,1.6692,1.8186,1.8322,1.8349,1.8454,1.7264,1.6192,1.5513,1.5469,1.5124,1.4299,1.4299,1.4299,1.4299,1.4299,1.4299,1.4299,1.4299,1.4346,1.4441,1.4441,1.4496,1.459,1.459,1.4572,1.462,1.462,1.4647,1.4694,1.4694,1.4694,1.4694,1.4694,1.4633,1.459,0.0,0.0,0.0,0.0,0.0,0.0,0.0,0.0,0.0,0.0,0.0,0.0,0.0,0.0,0.0,0.0,0.0,1.0405,1.0671,1.0684,1.0684,1.0684,1.0684,1.0684,1.0684,1.0684,1.0684,1.0684,1.0684,1.0765,1.0887,1.1097,1.1281,1.1396,1.1552,1.2638,1.4397,1.4397,1.5804,1.8124,1.8787,1.9379,1.9796,1.9286,1.9077,0.0,1.9077,2.0305,2.17,2.0513,2.1355,2.2585,2.0686,2.139,2.2893,2.2893,2.2893,2.292,2.3027,2.318,2.3319,2.346,2.3701,2.3928,2.3928,2.4155,2.4136,2.3415,2.2386,2.1365,2.0654,1.9478,1.8714,1.913,1.8563,1.7802,1.7016,1.6234,1.5784,1.6019,1.4909,1.4648,1.6076,1.6214,1.6214,1.6214,1.5023,1.4299,1.4299,1.4299,1.4299,1.4299,1.4299,1.4299,1.4299,1.4353,1.4407,1.4455,1.4455,1.4502,1.459,1.459,1.4599,1.4694,1.4694,1.4728,1.4821,1.4821,1.4848,1.4896,1.4896,1.4896,1.4896,1.4896,1.4896,1.4836,0.0,0.0,0.0,0.0,0.0,0.0,0.0,0.0,0.0,0.0,0.0,0.0,0.0,0.0,0.0,0.0,0.0,0.0,1.0671,1.0684,1.0684,1.0684,1.0684,1.0684,1.0684,1.0684,1.0684,1.0684,1.0691,1.0779,1.0928,1.1104,1.1288,1.1409,1.1552,1.2638,1.4397,1.4397,1.4468,1.4716,1.6474,1.6122,1.4716,1.6404,1.7072,1.7072,1.7072,1.8299,1.9947,1.9843,2.1067,2.2332,2.0721,2.1459,2.2859,2.2791,2.2838,2.2953,2.3107,2.3235,2.3412,2.3728,2.3936,2.4077,2.4077,2.4179,2.3759,2.1826,2.1365,2.0692,1.8799,1.8345,1.8409,1.8807,1.7156,1.6052,1.6659,1.4925,1.3749,1.4048,1.4125,1.4143,1.4285,1.4299,1.4299,1.4299,1.4299,1.4299,1.4299,1.4299,1.4299,1.4299,1.4306,1.4312,1.4312,1.4448,1.4552,1.4694,1.4694,1.4701,1.4708,1.4708,1.4708,1.4714,1.4714,1.4848,1.503,1.503,1.5105,1.5181,1.5181,1.5181,1.5181,1.5181,1.5181,1.514,0.0,0.0,0.0,0.0,0.0,0.0,0.0,0.0,0.0,0.0,0.0,0.0,0.0,0.0,0.0,0.0,0.0,0.0,1.0671,1.0684,1.0684,1.0684,1.0684,1.0684,1.0684,1.0684,1.0684,1.0684,1.0799,1.0934,1.1145,1.1295,1.1416,1.1565,1.1563,1.2638,1.4397,1.4397,1.5203,1.6545,1.7002,1.6896,1.6404,1.5451,1.5097,1.5097,1.5097,1.6333,1.7739,1.6333,1.7107,1.9077,2.1459,2.2503,2.2619,2.1217,2.1969,2.2906,2.1567,2.2543,2.3995,2.4075,2.3181,2.225,2.225,2.117,1.9967,1.9478,1.8118,1.6904,1.6371,1.5089,1.4175,1.4519,1.4101,1.3951,1.4499,1.4082,1.3856,1.4204,1.4245,1.4258,1.4299,1.4299,1.4299,1.4299,1.4299,1.4299,1.4299,1.4299,1.4299,1.4299,1.4401,1.4455,1.4455,1.4559,1.4654,1.4694,1.4694,1.4801,1.4909,1.4909,1.497,1.5072,1.5072,1.5092,1.5126,1.5126,1.5147,1.5181,1.5181,1.5181,1.5181,1.5181,1.5181,1.5174,0.0,0.0,0.0,0.0,0.0,0.0,0.0,0.0,0.0,0.0,0.0,0.0,0.0,0.0,0.0,0.0,0.0,0.0,0.0,1.0684,1.0684,1.0684,1.0684,1.0684,1.0684,1.0684,1.0718,1.0786,1.0806,1.0989,1.1295,1.1315,1.1409,1.1584,1.1584,1.2638,1.4397,1.4397,1.5,0.0,0.0,1.5495,1.4618,1.3559,1.3167,1.3167,1.3167,1.4361,1.6192,1.7623,1.8299,1.9008,2.1941,2.2893,2.2529,2.0727,2.1047,2.1795,2.1007,2.18,2.3117,2.4136,2.2966,2.1601,2.1601,2.0042,1.8345,1.7436,1.6294,1.5234,1.4368,1.3259,1.2603,1.2955,1.3003,1.3207,1.3714,1.3795,1.391,1.4265,1.4299,1.4299,1.4299,1.4299,1.4299,1.4299,1.4299,1.4299,1.4299,1.436,1.4394,1.4394,1.4536,1.4645,1.4713,1.4801,1.4875,1.4936,1.4936,1.4977,1.5112,1.5112,1.5106,1.5181,1.5181,1.5181,1.5181,1.5181,1.5181,1.5181,1.5181,1.5181,1.5181,1.5181,1.5181,1.5181,0.0,0.0,0.0,0.0,0.0,0.0,0.0,0.0,0.0,0.0,0.0,0.0,0.0,0.0,0.0,0.0,0.0,0.0,0.0,0.0,1.0684,1.0684,1.0684,1.0684,1.0684,1.0684,1.0752,1.0887,1.0772,1.0962,1.1355,1.1281,1.1348,1.1584,1.1584,1.2502,1.4049,1.4049,1.4049,1.4049,1.4049,1.3202,1.1972,0.0,1.1972,1.2008,1.2252,1.3559,1.5945,2.1136,2.1631,2.0444,2.2297,2.2893,2.2569,2.0838,2.0332,2.046,2.1085,2.1237,2.181,2.404,2.2893,2.1178,2.1178,1.944,1.7284,1.5463,1.5081,1.4552,1.2804,1.2515,1.263,1.2955,1.3016,1.3227,1.372,1.3795,1.391,1.4265,1.4299,1.4299,1.4299,1.4319,1.4326,1.4326,1.4346,1.4346,1.4333,1.4462,1.455,1.457,1.4699,1.4841,1.4997,1.5044,1.5059,1.5181,1.5181,1.5181,1.5181,1.5181,1.5181,1.5181,1.5181,1.5181,1.5181,1.5181,1.5181,1.5181,1.5181,1.5181,1.5181,1.5181,1.5181,1.5181,0.0,0.0,0.0,0.0,0.0,0.0,0.0,0.0,0.0,0.0,0.9792,0.9792,0.0,0.0,0.0,0.0,0.0,0.0,0.0,0.0,0.0,1.0684,1.0684,1.0684,1.0684,1.0684,1.0698,1.0725,1.0826,1.0975,1.124,1.1307,1.145,1.1584,1.1584,1.1799,1.2079,1.2079,1.2079,1.2079,1.2079,1.2817,1.3907,1.3907,0.0,0.0,1.5672,1.7458,1.9495,2.2057,2.1631,2.0444,2.2297,2.2893,2.2569,2.0931,2.0556,2.0754,2.1241,2.144,2.2039,2.4092,2.1826,1.9139,1.9139,1.6227,1.3452,1.3074,1.3035,1.2919,1.2579,1.2603,1.2752,1.2969,1.3098,1.3302,1.3734,1.3795,1.391,1.4265,1.4299,1.4299,1.4299,1.4407,1.4475,1.4475,1.459,1.4566,1.4482,1.4572,1.476,1.4889,1.4916,1.4997,1.5147,1.5194,1.516,1.5181,1.5181,1.5181,1.5181,1.5181,1.5181,1.5181,1.5181,1.5181,1.5181,1.5181,1.5181,1.5181,1.5181,1.5181,1.5181,1.5181,1.5181,1.5181,0.0,0.0,0.0,0.0,0.0,0.0,0.0,0.9792,0.9792,0.9792,0.9792,0.9792,0.9792,0.9792,0.9852,0.0,0.0,0.0,0.0,0.0,0.0,1.0684,1.0684,1.0684,1.0684,1.0684,1.0725,1.0806,0.0,1.0982,1.1315,1.1308,1.1396,1.1584,1.1584,1.1584,1.1584,1.1584,1.2144,1.296,1.2008,1.3309,1.5734,1.4787,0.0,0.0,1.8019,1.9321,2.0375,2.2263,2.2297,2.17,2.2619,2.2893,2.2569,2.0896,1.9793,1.946,2.0887,1.9894,1.9176,2.2285,2.0005,1.698,1.698,1.4667,1.2501,1.2501,1.2501,1.2528,1.2603,1.2638,1.2807,1.3071,1.3166,1.3329,1.3734,1.3795,1.391,1.4265,1.4299,1.4299,1.4299,1.4428,1.4509,1.4509,1.4726,1.4794,1.4593,1.4774,1.493,1.5079,1.5079,1.5113,1.5181,1.5181,1.5181,1.5181,1.5181,1.5181,1.5181,1.5181,1.5181,1.5181,1.5181,1.5181,1.5181,1.5181,1.5228,1.5303,1.5303,1.535,1.5418,1.5418,1.5418,1.5418,0.0,0.0,0.0,0.0,0.0,0.0,0.0,1.0301,1.0179,0.9852,0.9792,0.9792,0.9792,0.9792,0.9839,0.0,0.0,0.0,0.0,0.0,0.0,0.0,0.0,0.0,1.0684,0.0,0.0,1.0867,1.0745,0.0,0.0,0.0,0.0,0.0,1.1606,1.1584,1.1619,1.2043,1.3067,0.0,0.0,1.4831,1.7669,0.0,0.0,0.0,0.0,2.0375,2.0928,2.24,2.2893,2.2893,2.2893,2.2893,2.2638,2.1342,1.9366,1.8186,2.0534,1.8397,1.6355,2.0031,1.8232,1.5501,1.5501,1.3945,1.2501,1.2501,1.2528,1.2589,1.2665,1.274,1.2901,1.3173,1.32,1.3363,1.3741,1.3795,1.391,1.4265,1.4299,1.4312,1.434,1.4475,1.4577,1.4604,1.4862,1.4964,1.4841,1.495,1.5065,1.5181,1.5181,1.5181,1.5181,1.5181,1.5181,1.5181,1.5181,1.5181,1.5181,1.5181,1.5181,1.5181,1.5181,1.5201,1.5228,1.5228,1.5323,1.5459,1.5459,1.5533,1.5593,1.5593,1.5593,1.5593,0.0,0.0,0.0,0.0,0.0,0.0,0.0,1.1976,1.1434,0.9997,0.9792,0.9792,0.9792,0.9792,0.9798,0.0,0.0,0.0,0.0,0.0,0.0,0.0,0.0,0.0,0.0,0.0,0.0,1.0711,1.0691,0.0,0.0,0.0,0.0,0.0,0.0,1.1584,1.1727,1.3416,0.0,0.0,0.0,0.0,0.0,0.0,0.0,0.0,0.0,2.1217,2.2688,2.2825,2.2893,2.2893,2.2893,2.2893,2.2926,2.2989,2.0427,1.8053,2.0525,1.8323,1.5885,1.8295,1.717,1.5501,1.5501,1.3945,1.2501,1.2501,1.261,1.2672,1.2686,1.2949,1.3139,1.3207,1.3288,1.3485,1.3754,1.3795,1.391,1.4265,1.4299,1.4353,1.4482,1.4586,1.478,1.4916,1.5119,1.5153,1.514,1.5153,1.5167,1.5181,1.5181,1.5181,1.5181,1.5181,1.5181,1.5181,1.5181,1.5181,1.5181,1.5181,1.5181,1.5181,1.5181,1.5262,1.5391,1.5391,1.5479,1.5566,1.5566,1.558,1.5593,1.5593,1.5593,1.5593,0.0,0.0,0.0,0.0,0.0,0.0,1.2457,1.1382,1.0868,1.1201,1.1231,1.1615,1.2569,1.2689,1.1916,0.9974,0.0,0.0,0.0,0.0,0.0,0.0,0.0,0.0,0.0,0.0,1.1207,1.2248,1.2248,0.0,0.0,0.0,0.0,0.0,0.0,1.3274,1.3345,1.4077,0.0,0.0,0.0,0.0,0.0,0.0,0.0,0.0,0.0,0.0,2.2893,2.2893,2.2893,2.2893,2.2893,2.2893,2.292,2.3041,1.9672,1.6651,1.9977,1.7336,1.4129,1.6201,1.5195,1.3683,1.3683,1.3074,1.2501,1.2501,1.2623,1.2759,1.2854,1.3077,1.3241,1.3295,1.3363,1.3505,1.3754,1.3795,1.391,1.4265,1.4299,1.4353,1.4496,1.4606,1.4841,1.5079,1.5153,1.5181,1.5181,1.5181,1.5181,1.5181,1.5181,1.5181,1.5181,1.5181,1.5181,1.5181,1.5181,1.5181,1.5181,1.5181,1.5181,1.5187,1.5282,1.5357,1.5418,1.5513,1.5635,1.5771,1.5771,1.5825,1.5906,1.5906,1.5906,1.5906,0.0,0.0,0.0,0.0,0.0,1.5488,1.3875,1.2659,1.2178,1.2808,1.2898,1.3347,1.448,1.5015,1.4212,1.1464,1.2122,0.0,0.0,0.0,0.0,0.0,0.0,0.0,0.0,0.0,1.2058,1.3292,1.3292,1.4238,0.0,0.0,1.556,1.3981,0.0,0.0,0.0,0.0,0.0,0.0,0.0,0.0,0.0,0.0,0.0,0.0,0.0,0.0,0.0,0.0,0.0,2.2893,2.2893,2.2516,2.2207,2.2828,1.9519,1.6305,1.9144,1.6264,1.2793,1.4237,1.3568,1.2501,1.2501,1.2501,1.2515,1.2562,1.2691,1.284,1.3037,1.3186,1.3275,1.3383,1.3403,1.3505,1.3754,1.3795,1.391,1.4265,1.4299,1.4373,1.4563,1.4708,1.4957,1.5167,1.5181,1.5181,1.5181,1.5181,1.5181,1.5181,1.5181,1.5181,1.5181,1.5181,1.5181,1.5181,1.5181,1.5181,1.5181,1.5181,1.5181,1.5194,1.5343,1.5438,1.5493,1.5642,1.5791,1.5969,1.5969,1.6037,1.6083,1.6083,1.6083,1.6083,0.0,0.0,0.0,0.0,0.0,0.0,1.7208,1.6932,1.6374,1.4777,1.4579,1.4569,1.4599,1.602,1.6315,1.4688,1.3409,0.0,0.0,0.0,0.0,0.0,0.0,0.0,0.0,0.0,1.3292,1.3292,1.3292,1.4199,1.5923,1.6047,1.5276,1.3883,0.0,0.0,0.0,0.0,0.0,0.0,0.0,0.0,0.0,0.0,0.0,0.0,0.0,0.0,0.0,0.0,0.0,0.0,0.0,2.1631,2.0539,2.2662,2.0509,1.7565,1.8007,1.5269,1.2325,1.2506,1.2501,1.2501,1.2501,1.2501,1.2542,1.2659,1.2854,1.3043,1.3186,1.3295,1.3397,1.3403,1.3403,1.3505,1.3754,1.3795,1.391,1.4265,1.4299,1.4414,1.466,1.5004,1.5181,1.5181,1.5181,1.5181,1.5181,1.5181,1.5181,1.5181,1.5181,1.5181,1.5181,1.5181,1.5181,1.5181,1.5181,1.5181,1.5181,1.5181,1.5181,1.5194,1.5343,1.5499,1.56,1.5791,1.599,1.6083,1.6083,1.6083,1.6083,1.6083,1.6083,1.6083,0.0,0.0,0.0,0.0,0.0,0.0,0.0,1.6079,1.5577,1.6168,1.6227,1.665,1.7747,1.8344,1.7981,1.6374,1.613,0.0,0.0,0.0,0.0,0.0,0.0,0.0,0.0,0.0,1.5654,1.6851,1.6851,1.7763,1.9451,1.9734,1.9008,1.7534,1.8348,1.8556,0.0,0.0,0.0,0.0,0.0,0.0,2.2893,0.0,0.0,0.0,0.0,0.0,0.0,0.0,0.0,0.0,0.0,0.0,0.0,2.1683,1.878,1.6077,1.7677,1.5316,1.2447,1.2488,1.2501,1.2501,1.2501,1.2501,1.2549,1.2659,1.2854,1.3043,1.3186,1.3295,1.3403,1.3403,1.3403,1.3505,1.3754,1.3795,1.391,1.4265,1.4475,1.4593,1.4687,1.5011,1.5181,1.5181,1.5181,1.5181,1.5181,1.5181,1.5181,1.5181,1.5181,1.5181,1.5181,1.5181,1.5181,1.5181,1.5181,1.5181,1.5181,1.5181,1.5242,1.535,1.5499,1.5649,1.5798,1.5947,1.6035,1.6083,1.6083,1.6083,1.6083,1.6083,1.6083,1.6083,0.0,0.0,0.0,0.0,0.0,0.0,0.0,1.7032,1.6768,1.7777,1.7923,1.8286,1.9272,1.9401,1.905,1.813,1.839,0.0,0.0,0.0,0.0,0.0,0.0,0.0,0.0,1.7441,1.7409,1.8512,1.8512,1.9387,2.1122,2.1448,2.0739,1.9232,2.0199,2.0432,0.0,0.0,0.0,0.0,0.0,0.0,2.2893,0.0,0.0,0.0,0.0,0.0,0.0,0.0,0.0,0.0,0.0,0.0,0.0,0.0,1.8514,1.6268,1.6917,1.4846,1.2501,1.2501,1.2501,1.2501,1.2501,1.2501,1.2562,1.2773,1.2895,1.3064,1.322,1.3336,1.3403,1.3403,1.3403,1.3505,1.3754,1.3795,1.391,1.4265,1.4563,1.4694,1.4694,1.5011,1.5181,1.5181,1.5181,1.5181,1.5181,1.5181,1.5181,1.5181,1.5181,1.5181,1.5181,1.5181,1.5181,1.5181,1.5181,1.5181,1.5181,1.5181,1.5269,1.5418,1.5526,1.5723,0.0,1.6015,1.6083,1.6083,1.6083,1.6083,1.6083,1.6083,1.6083,1.6083,0.0,0.0,0.0,0.0,0.0,0.0,0.0,1.9401,1.9401,1.9401,1.9401,1.9401,1.9401,1.9415,1.9535,1.9773,0.0,0.0,0.0,0.0,0.0,0.0,0.0,0.0,1.8736,1.8672,1.8672,1.8672,1.8672,1.9515,2.1122,2.1448,2.0804,1.9499,2.1502,2.1616,0.0,0.0,0.0,0.0,0.0,0.0,0.0,0.0,0.0,0.0,0.0,0.0,0.0,0.0,0.0,0.0,0.0,0.0,0.0,0.0,0.0,0.0,0.0,1.3907,1.2501,1.2501,1.2501,1.2501,1.2501,1.2508,0.0,1.2941,1.3009,1.3105,1.3349,1.3403,1.3403,1.3403,1.3403,1.3505,1.3754,1.3815,1.3937,1.4265,1.4563,1.4694,1.4694,1.5011,1.5181,1.5181,1.5181,1.5181,1.5181,1.5181,1.5181,1.5181,1.5181,1.5181,1.5181,1.5181,1.5181,1.5181,1.5181,1.5181,1.5181,1.5181,1.5269,1.5438,1.5533,1.5723,1.5928,1.6071,1.6083,1.6083,1.6083,1.6083,1.6083,1.6083,1.6083,1.6083,0.0,0.0,0.0,0.0,0.0,0.0,0.0,0.0,0.0,0.0,1.9401,1.9401,1.9401,1.9559,1.972,0.0,0.0,0.0,0.0,0.0,0.0,0.0,0.0,0.0,2.0494,2.0494,2.0494,2.0494,2.0494,2.0684,2.1122,2.1448,2.1502,2.1351,2.2084,2.2342,0.0,0.0,0.0,0.0,0.0,0.0,0.0,0.0,0.0,0.0,2.2893,2.2893,0.0,0.0,0.0,0.0,0.0,0.0,0.0,0.0,1.8447,1.7709,1.416,0.0,1.2501,1.2501,1.2501,1.2501,0.0,1.2589,1.2732,1.2962,1.3091,1.322,1.3363,1.3403,1.3403,1.3403,1.3403,1.3505,1.3754,1.3998,1.4217,1.4292,1.4563,1.4694,1.4694,1.5011,1.5181,1.5181,1.5181,1.5181,1.5181,1.5181,1.5181,1.5181,1.5181,1.5181,1.5181,1.5181,1.5181,1.5181,1.5181,1.5181,1.5181,1.5181,1.533,1.5539,1.5573,1.5784,1.6078,1.6069,1.6083,1.6083,1.6083,1.6083,1.6083,1.6083,1.6083,1.6083,0.0,0.0,0.0,0.0,0.0,0.0,0.0,0.0,0.0,0.0,0.0,0.0,0.0,0.0,0.0,0.0,0.0,0.0,0.0,0.0,0.0,0.0,0.0,2.1109,2.1109,2.1109,2.1109,2.1109,2.1109,2.1176,2.1355,2.1649,2.1943,2.2205,2.2485,2.2746,0.0,0.0,0.0,0.0,2.2893,0.0,0.0,0.0,0.0,0.0,2.2893,2.2893,0.0,2.2893,2.2893,2.292,0.0,0.0,0.0,0.0,1.8225,1.7701,1.3606,1.2501,1.2501,1.2501,1.2501,1.2501,1.2501,1.2617,1.2773,1.2969,1.3111,1.322,1.337,1.3403,1.3403,1.3403,1.3458,1.3607,1.3905,1.415,1.4299,1.4299,1.4563,1.4694,1.4694,1.5011,1.5181,1.5181,1.5181,1.5181,1.5181,1.5181,1.5181,1.5181,1.5181,1.5181,1.5181,1.5181,1.5181,1.5181,1.5181,1.5181,1.5181,1.5181,1.5309,1.5492,1.556,1.5764,1.603,1.6056,1.6083,1.6083,1.6083,1.6083,1.6083,1.6083,1.6083,1.6083,0.0,0.0,0.0,0.0,0.0,0.0,0.0,0.0,0.0,0.0,0.0,0.0,0.0,0.0,0.0,0.0,0.0,0.0,0.0,0.0,0.0,0.0,2.1109,2.1109,2.1109,2.1109,2.1109,2.1109,2.1149,2.1309,2.1628,2.193,2.2205,2.2498,2.2786,2.2893,0.0,0.0,0.0,0.0,2.2893,0.0,0.0,0.0,0.0,0.0,0.0,0.0,0.0,2.2893,2.2893,2.2947,2.3233,0.0,0.0,0.0,0.0,0.0,1.3606,1.2501,1.2501,1.2501,1.2501,1.2501,1.2501,1.2637,1.28,1.2975,1.3132,1.3288,1.3376,1.3403,1.3403,1.3403,1.3546,1.3756,1.4078,1.4204,1.4299,1.4299,1.4563,1.4694,1.4694,1.5011,1.5181,1.5181,1.5181,1.5181,1.5181,1.5181,1.5181,1.5181,1.5181,1.5181,1.5181,1.5181,1.5181,1.5181,1.5181,1.5181,1.5181,1.5181,1.5269,1.5418,1.5526,1.5723,1.5915,1.6015,1.6083,1.6083,1.6083,1.6083,1.6083,1.6083,1.6083,1.6083,0.0,0.0,0.0,0.0,0.0,0.0,0.0,0.0,0.0,0.0,0.0,0.0,0.0,0.0,0.0,0.0,0.0,0.0,0.0,0.0,0.0,2.1109,2.1109,2.1109,2.1109,2.1109,2.1109,2.1109,2.1395,2.1542,2.1596,2.2098,2.2512,2.2827,2.288,2.2893,2.2893,0.0,0.0,0.0,2.2893,0.0,0.0,0.0,0.0,0.0,0.0,0.0,0.0,2.2893,2.2893,2.2947,2.3233,0.0,0.0,0.0,0.0,0.0,1.3606,1.2501,1.2501,1.2501,1.2501,1.2501,1.2501,1.2725,1.2975,1.2996,1.322,1.337,1.3397,1.3403,1.3403,1.3403,1.3627,1.3871,1.4091,1.4204,1.4299,1.4299,1.4563,1.4694,1.4694,1.5011,1.5181,1.5181,1.5181,1.5181,1.5181,1.5181,1.5181,1.5181,1.5181,1.5181,1.5181,1.5181,1.5181,1.5181,1.5181,1.5181,1.5181,1.5181,1.5269,1.5418,1.5526,1.5723,1.5915,1.6015,1.6083,1.6083,1.6083,1.6083,1.6083,1.6083,1.6083,1.6083,0.0,0.0,0.0,0.0,0.0,0.0,0.0,0.0,0.0,0.0,0.0,0.0,0.0,0.0,0.0,0.0,0.0,0.0,0.0,0.0,2.1109,2.1109,2.1109,2.1109,2.1109,2.1109,2.1189,2.1381,2.1515,2.1743,2.2031,2.2458,2.276,2.2893,2.2893,2.2893,2.2893,2.2893,2.2893,0.0,0.0,0.0,0.0,0.0,0.0,0.0,0.0,0.0,0.0,0.0,2.3014,2.3166,2.3474,0.0,0.0,0.0,0.0,0.0,1.3298,1.2501,1.2501,1.2501,1.2501,1.2522,1.261,1.28,1.3023,1.3098,1.3247,1.3403,1.3403,1.3403,1.3451,1.3572,1.3824,1.4021,1.4177,1.4258,1.4299,1.4299,1.4563,1.4694,1.4694,1.5011,1.5181,1.5181,1.5181,1.5181,1.5181,1.5181,1.5181,1.5181,1.5181,1.5181,1.5181,1.5181,1.5181,1.5181,1.5181,1.5181,1.5181,1.5181,1.5269,1.5418,1.5526,1.5723,1.5915,1.6015,1.6083,1.6083,1.6083,1.6083,1.6083,1.6083,1.6083,1.6083,0.0,0.0,0.0,0.0,0.0,0.0,0.0,0.0,0.0,0.0,0.0,0.0,0.0,0.0,0.0,0.0,0.0,0.0,0.0,0.0,2.1109,2.1109,2.1176,2.1216,2.1216,2.1216,2.1363,2.1689,2.1756,2.205,2.2525,2.2786,2.2893,2.2893,2.2893,2.2893,2.2893,2.2893,2.2893,0.0,0.0,0.0,0.0,0.0,0.0,0.0,0.0,0.0,0.0,0.0,0.0,0.0,0.0,0.0,0.0,1.9827,1.7853,1.5769,1.376,1.2842,1.2508,1.2549,1.2556,1.2583,1.2665,1.2874,1.3084,1.3193,1.3295,1.3403,1.3403,1.3431,1.3553,1.3802,1.3994,1.4166,1.4278,1.4299,1.4299,1.4299,1.4563,1.4694,1.4694,1.5011,1.5181,1.5181,1.5181,1.5181,1.5181,1.5181,1.5181,1.5181,1.5181,1.5181,1.5181,1.5181,1.5181,1.5181,1.5181,1.5181,1.5181,1.5181,1.5269,1.5418,1.5526,1.5723,1.5915,1.6015,1.6083,1.6083,1.6083,1.6083,1.6083,1.6083,1.6083,1.6083,0.0,0.0,0.0,0.0,0.0,0.0,0.0,0.0,0.0,0.0,0.0,0.0,0.0,0.0,0.0,0.0,0.0,0.0,0.0,0.0,2.1109,2.1109,2.1408,2.1555,2.1555,2.1555,2.1703,2.1984,2.2218,2.2525,2.2867,2.288,2.2893,2.2893,2.2893,2.2893,2.2893,2.2893,2.2893,2.2893,0.0,0.0,0.0,0.0,0.0,0.0,0.0,0.0,0.0,0.0,0.0,0.0,0.0,0.0,2.3617,2.1903,1.9967,1.7929,1.5845,1.3907,1.2535,1.2638,1.2672,1.2679,1.2686,1.2949,1.32,1.3214,1.3295,1.3403,1.3403,1.3519,1.3709,1.4007,1.4105,1.4166,1.4278,1.4299,1.4299,1.4299,1.4563,1.4694,1.4694,1.5011,1.5181,1.5181,1.5181,1.5181,1.5181,1.5181,1.5181,1.5181,1.5181,1.5181,1.5181,1.5181,1.5181,1.5181,1.5181,1.5181,1.5181,1.5181,1.5269,1.5418,1.5526,1.5723,1.5915,1.6015,1.6083,1.6083,1.6083,1.6083,1.6083,1.6083,1.6083,1.6083,0.0,0.0,0.0,0.0,0.0,0.0,0.0,0.0,0.0,0.0,0.0,0.0,0.0,0.0,0.0,0.0,0.0,0.0,0.0,2.1109,2.1189,2.1408,2.1529,2.1756,2.2084,2.1943,2.1964,2.2258,2.2552,2.2786,2.2893,2.2893,2.2893,2.2893,2.2893,2.2893,2.2893,2.2893,2.2893,2.2893,2.2893,0.0,0.0,0.0,0.0,0.0,0.0,0.0,0.0,0.0,2.3354,2.3661,2.3941,2.3372,2.2448,2.1802,1.9252,1.6485,1.5731,1.4022,1.2535,1.2652,1.28,1.2895,1.2983,1.3091,1.3241,1.3295,1.3363,1.3431,1.3526,1.3743,1.3939,1.4098,1.415,1.4231,1.4292,1.4299,1.4299,1.4299,1.4563,1.4694,1.4694,1.5011,1.5181,1.5181,1.5181,1.5181,1.5181,1.5181,1.5181,1.5181,1.5181,1.5181,1.5181,1.5181,1.5181,1.5181,1.5181,1.5181,1.5181,1.5181,1.5316,1.5506,1.5566,1.5771,1.6051,1.6056,1.6083,1.6083,1.6083,1.6083,1.6083,1.6083,1.6083,1.6083,0.0,0.0,0.0,0.0,0.0,0.0,0.0,0.0,0.0,0.0,0.0,0.0,0.0,0.0,0.0,0.0,0.0,0.0,2.1109,2.1203,2.1368,2.1582,2.1756,2.2004,2.2371,2.2311,2.2365,2.2565,2.28,2.2893,2.2893,2.2893,2.2893,2.2893,2.2893,2.2893,2.2893,2.2893,2.2893,2.2893,2.2893,2.2893,0.0,0.0,0.0,0.0,0.0,0.0,0.0,0.0,2.3581,2.3977,2.4142,2.3417,2.2434,2.1788,1.9176,1.6333,1.5693,1.406,1.261,1.2766,1.2915,1.3105,1.3214,1.3247,1.3275,1.3376,1.3437,1.3532,1.3729,1.3933,1.4132,1.418,1.4231,1.4299,1.4299,1.4299,1.4299,1.4299,1.4516,1.464,1.4687,1.497,1.5133,1.5181,1.5181,1.5181,1.5181,1.5181,1.5181,1.5181,1.5181,1.5181,1.5181,1.5181,1.5181,1.5181,1.5181,1.5181,1.5181,1.5181,1.535,1.5593,1.5593,1.5805,1.6083,1.6083,1.6083,1.6083,1.6083,1.6083,1.6083,1.6083,1.6083,1.6083,0.0,0.0,0.0,0.0,0.0,0.0,0.0,0.0,0.0,0.0,0.0,0.0,0.0,0.0,0.0,0.0,0.0,0.0,2.1109,2.1422,2.1582,2.1628,2.2111,2.2385,2.2385,2.2746,2.2893,2.2893,2.2893,2.2893,2.2893,2.2893,2.2893,2.2893,2.2893,2.2893,2.2893,2.2893,2.2893,2.2893,2.2893,2.2893,0.0,0.0,0.0,0.0,0.0,0.0,0.0,0.0,2.3728,2.4209,2.4172,2.4372,2.4179,2.2161,2.0155,1.8118,1.6074,1.4152,1.2766,1.2962,1.3111,1.3254,1.3363,1.3403,1.3403,1.3403,1.3526,1.3722,1.4057,1.4119,1.4166,1.4278,1.4299,1.4299,1.4299,1.4299,1.4299,1.4299,1.4428,1.457,1.4674,1.4875,1.5078,1.5167,1.5181,1.5181,1.5181,1.5181,1.5181,1.5181,1.5181,1.5181,1.5181,1.5181,1.5181,1.5181,1.5181,1.5181,1.5181,1.5181,1.535,1.5593,1.5593,1.5805,1.6083,1.6083,1.6083,1.6083,1.6083,1.6083,1.6083,1.6083,1.6083,1.6083,0.0,0.0,0.0,0.0,0.0,0.0,0.0,0.0,0.0,0.0,0.0,0.0,0.0,0.0,0.0,0.0,0.0,0.0,2.1435,2.1542,2.177,2.2151,2.2325,2.2512,2.276,2.2853,2.2893,2.2893,2.2893,2.2893,2.2893,2.2893,2.2893,2.2893,2.2893,2.2893,2.2893,2.2893,2.2893,2.2893,2.2893,2.2893,2.2893,0.0,0.0,0.0,0.0,0.0,0.0,0.0,0.0,0.0,2.2743,2.2447,2.2087,2.008,1.8042,1.633,1.5855,1.4243,1.2753,1.3084,1.318,1.3254,1.3363,1.3403,1.3431,1.3539,1.3763,1.3966,1.4098,1.4156,1.4245,1.4292,1.4299,1.4299,1.4299,1.4299,1.4299,1.4299,1.4428,1.4529,1.4577,1.4814,1.5037,1.5078,1.5173,1.5181,1.5181,1.5181,1.5181,1.5181,1.5181,1.5181,1.5181,1.5181,1.5181,1.5181,1.5181,1.5181,1.5181,1.5181,1.535,1.5593,1.5593,1.5805,1.6083,1.6083,1.6083,1.6083,1.6083,1.6083,1.6083,1.6083,1.6083,1.6083,0.0,0.0,0.0,0.0,0.0,0.0,0.0,0.0,0.0,0.0,2.1002,2.1109,0.0,0.0,0.0,0.0,0.0,0.0,0.0,2.1796,2.2058,2.2405,2.2539,2.2672,2.2893,2.2893,2.2893,2.2893,2.2893,2.2893,2.2893,2.2893,2.2893,2.2893,2.2893,2.2893,2.2893,2.2893,2.2893,2.2893,2.2893,2.2893,2.2893,0.0,0.0,0.0,0.0,0.0,0.0,0.0,0.0,0.0,2.3103,2.2248,2.1178,1.9176,1.7132,1.5352,1.4735,1.3712,1.2881,1.3152,1.3261,1.3302,1.3458,1.3492,1.3553,1.3763,1.3946,1.4132,1.415,1.4238,1.4299,1.4299,1.4299,1.4299,1.4299,1.4299,1.4299,1.4299,1.4373,1.4448,1.4509,1.4679,1.4841,1.501,1.5052,1.512,1.5181,1.5181,1.5181,1.5181,1.5181,1.5181,1.5181,1.5181,1.5181,1.5181,1.5181,1.5181,1.5181,1.5181,1.5316,1.5506,1.5676,1.5859,1.6083,1.6083,1.6083,1.6083,1.6083,1.6083,1.6083,1.6083,1.6083,1.6076,0.0,0.0,0.0,0.0,0.0,0.0,0.0,0.0,0.0,0.0,2.1109,2.1109,0.0,0.0,0.0,0.0,0.0,0.0,0.0,0.0,2.2398,2.2425,2.2746,2.2893,2.2893,2.2893,2.2893,2.2893,2.2893,2.2893,2.2893,2.2893,2.2893,2.2893,2.2893,2.2893,2.2893,2.2893,2.2893,2.2893,2.2893,2.292,2.2934,2.2934,0.0,0.0,0.0,0.0,0.0,0.0,0.0,0.0,2.4179,2.2806,2.0879,1.8706,1.6703,1.4885,1.319,1.2874,1.3057,1.32,1.3308,1.3464,1.3572,1.3619,1.3743,1.4057,1.4125,1.418,1.4272,1.4299,1.4299,1.4299,1.4299,1.4299,1.4299,1.4299,1.4299,1.4299,1.4299,1.4353,1.4482,1.4502,1.4631,1.4909,1.5003,1.5025,1.52,1.5174,1.5181,1.5181,1.5181,1.5181,1.5181,1.5181,1.5181,1.5181,1.5181,1.5181,1.5181,1.5181,1.5269,1.5425,1.5772,1.5983,1.6062,1.6076,1.6083,1.6083,1.6083,1.6083,1.6083,1.6069,1.6062,1.6042,0.0,0.0,0.0,0.0,0.0,0.0,0.0,0.0,0.0,0.0,0.0,0.0,0.0,0.0,0.0,0.0,0.0,0.0,0.0,0.0,2.2525,2.2786,2.2867,2.2893,2.2893,2.2893,2.2893,2.2893,2.2893,2.2893,2.2893,2.2893,2.2893,2.2893,2.2893,2.2893,2.2893,2.2893,2.2893,2.2893,2.2893,2.3041,2.322,2.322,2.342,0.0,0.0,0.0,0.0,0.0,0.0,0.0,2.0879,1.9591,1.8565,1.5029,1.3642,1.3283,1.3124,1.3105,1.3207,1.3315,1.3464,1.3572,1.372,1.3892,1.3994,1.4105,1.4163,1.4265,1.4292,1.4299,1.4299,1.4299,1.4299,1.4299,1.4299,1.4299,1.4299,1.4299,1.4299,1.4312,1.434,1.4448,1.4536,1.4604,1.4835,1.503,1.5064,1.512,1.5181,1.5181,1.5181,1.5181,1.5181,1.5181,1.5181,1.5181,1.5181,1.5181,1.5181,1.5181,1.5269,1.5425,1.5772,1.5922,1.5962,1.6085,1.6083,1.6083,1.6083,1.6083,1.6069,1.5996,1.5949,1.5928,0.0,0.0,0.0,0.0,0.0,0.0,0.0,0.0,0.0,0.0,0.0,0.0,0.0,0.0,0.0,0.0,0.0,0.0,0.0,0.0,2.2733,2.2893,2.2893,2.2893,2.2893,2.2893,2.2893,2.2893,2.2893,2.2893,2.2893,2.2893,2.2893,2.2893,2.2893,2.2893,2.2893,2.2893,2.2987,2.3086,2.3086,2.3273,2.3541,2.3541,2.3728,2.3995,2.4155,0.0,0.0,0.0,0.0,0.0,0.0,0.0,1.8104,1.5062,1.3562,1.2888,1.3152,1.3214,1.3248,1.3363,1.3566,1.3707,1.3781,1.4021,1.4183,1.4183,1.4245,1.4299,1.4299,1.4299,1.4299,1.4299,1.4299,1.4299,1.4299,1.4299,1.4299,1.4299,1.4299,1.4299,1.4299,1.4367,1.4441,1.4509,1.4658,1.4814,1.501,1.5085,1.5113,1.5181,1.5181,1.5181,1.5181,1.5181,1.5181,1.5181,1.5181,1.5181,1.5181,1.5181,1.5269,1.5418,1.5574,1.5683,1.5757,1.5839,1.5872,1.5872,1.5872,1.5872,1.5859,1.5778,1.575,1.573,0.0,0.0,0.0,0.0,0.0,0.0,0.0,0.0,0.0,0.0,0.0,0.0,0.0,0.0,0.0,0.0,0.0,0.0,0.0,0.0,0.0,2.2893,2.2893,2.2893,2.2893,2.2893,2.2893,2.2893,2.2893,2.2893,2.2893,2.2893,2.2893,2.2893,2.2893,2.292,2.2974,2.2974,2.3126,2.3407,2.3407,2.3581,2.3884,2.3884,2.4022,2.4275,2.4275,2.4399,2.4599,2.4599,0.0,0.0,0.0,0.0,1.7884,1.5942,1.4234,1.3071,1.3214,1.3214,1.3241,1.337,1.3578,1.3795,1.3795,1.4082,1.4299,1.4299,1.4299,1.4299,1.4299,1.4299,1.4299,1.4299,1.4299,1.4299,1.4299,1.4299,1.4299,1.4299,1.4299,1.4299,1.4299,1.4299,1.4346,1.4468,1.4496,1.4624,1.4875,1.4989,1.5071,1.514,1.5167,1.5181,1.5181,1.5181,1.5181,1.5181,1.5181,1.5181,1.5181,1.5181,1.5248,1.5371,1.5398,1.5486,1.5553,1.558,1.5593,1.5593,1.5593,1.5593,1.5587,1.556,1.5553,1.5533,0.0,0.0,0.0,0.0,0.0,0.0,0.0,0.0,0.0,0.0,2.1336,0.0,0.0,0.0,0.0,0.0,0.0,0.0,2.2813,0.0,0.0,2.2893,2.2893,2.2893,2.2893,2.2893,2.2893,2.2893,2.2893,2.2893,2.2893,2.2893,2.2893,2.2893,2.2893,2.3041,2.326,2.326,2.3434,2.375,2.375,2.3888,2.4142,2.4142,2.4329,2.4546,2.4546,2.4572,2.4599,2.4599,2.3463,0.0,0.0,0.0,1.5847,1.407,1.3369,1.322,1.3329,1.337,1.3376,1.3397,1.3578,1.3795,1.3795,1.4082,1.4299,1.4299,1.4299,1.4299,1.4299,1.4299,1.4299,1.4299,1.4299,1.4299,1.4299,1.4299,1.4299,1.4299,1.4299,1.4299,1.4299,1.4299,1.4306,1.4326,1.4441,1.4529,1.457,1.4828,1.5023,1.5044,1.512,1.5181,1.5181,1.5181,1.5181,1.5181,1.5181,1.5181,1.5181,1.5181,1.5194,1.5221,1.535,1.5425,1.5452,1.5539,1.5593,1.5593,1.5593,1.5593,1.5573,1.5493,1.5438,1.5418,0.0,0.0,0.0,0.0,0.0,0.0,0.0,0.0,0.0,0.0,0.0,2.189,0.0,0.0,0.0,2.2645,2.2672,2.276,2.2893,2.2893,2.2893,2.2893,2.2893,2.2893,2.2893,2.2893,2.2893,2.2893,2.2893,2.2893,2.2893,2.3046,2.3126,2.3126,2.3126,2.3287,2.3581,2.3581,2.3741,2.4008,2.4008,2.4182,2.4412,2.4412,2.4492,2.4599,2.4599,2.4599,2.4451,2.3302,2.2382,2.1182,1.8106,0.0,0.0,0.0,1.3234,1.3315,1.3383,1.3403,1.3403,1.3403,1.3559,1.37,1.3781,1.4014,1.4197,1.4285,1.4299,1.4299,1.4299,1.4299,1.4299,1.4299,1.4299,1.4299,1.4299,1.4299,1.4299,1.4299,1.4299,1.4299,1.4299,1.4299,1.4299,1.4299,1.436,1.4428,1.4509,1.4719,1.4882,1.5017,1.5106,1.5181,1.5181,1.5181,1.5181,1.5181,1.5181,1.5181,1.5181,1.5181,1.5181,1.5187,1.5255,1.5282,1.5289,1.5357,1.5384,1.5384,1.5384,1.5384,1.5377,1.5309,1.5282,1.5276,0.0,0.0,0.0,0.0,0.0,0.0,0.0,0.0,0.0,0.0,0.0,0.0,0.0,0.0,0.0,0.0,2.2893,2.2893,2.2893,2.2893,2.2893,2.2893,2.2893,2.2893,2.2893,2.2893,2.2893,2.2893,2.2974,2.3014,2.3027,2.33,2.3474,2.3541,2.3474,2.3607,2.391,2.391,2.4048,2.4279,2.3755,2.3652,2.3759,2.3264,2.3079,2.3079,2.3079,2.3079,2.2856,2.1372,2.0602,1.9772,1.6829,1.568,0.0,0.0,0.0,1.3403,1.3403,1.3403,1.3403,1.3403,1.3519,1.3612,1.372,1.3933,1.4146,1.4217,1.4272,1.4299,1.4299,1.4299,1.4299,1.4299,1.4299,1.4299,1.4299,1.4299,1.4299,1.4299,1.4299,1.4299,1.4299,1.4299,1.4299,1.4299,1.4299,1.4346,1.4448,1.4604,1.4753,1.4909,1.5052,1.5194,1.5181,1.5181,1.5181,1.5181,1.5181,1.5181,1.5181,1.5181,1.5181,1.5181,1.5181,1.5181,1.5181,1.5181,1.5181,1.5181,1.5181,1.5181,1.5181,1.5181,1.5181,1.5181,0.0,0.0,0.0,0.0,0.0,0.0,0.0,0.0,0.0,0.0,0.0,0.0,2.2385,2.2672,2.288,2.2893,2.2893,2.2893,2.2893,2.2893,2.2893,2.2893,2.2893,0.0,2.2893,2.2893,2.2893,2.2893,2.3153,2.3265,2.3278,2.3607,2.3888,2.4142,2.391,2.3901,2.4182,2.4182,2.4342,2.4425,2.2484,2.1739,2.1564,1.9629,1.8912,1.8912,1.8912,0.0,0.0,0.0,0.0,1.6121,1.6153,1.4883,1.3363,0.0,0.0,0.0,1.3403,1.3403,1.3403,1.3403,1.3519,1.3592,1.3599,1.3865,1.4119,1.4125,1.4197,1.4299,1.4299,1.4299,1.4299,1.4299,1.4299,1.4299,1.4299,1.4299,1.4299,1.4299,1.4299,1.4299,1.4299,1.4299,1.4299,1.4299,1.4299,1.4306,1.4312,1.4448,1.4545,1.4701,1.4903,1.5091,1.5181,1.5181,1.5181,1.5181,1.5181,1.5181,1.5181,1.5181,1.5181,1.5181,1.5181,1.5181,1.5181,1.5181,1.5181,1.5181,1.5181,1.5181,1.5181,1.5181,1.5181,1.5181,0.0,0.0,0.0,0.0,0.0,0.0,0.0,0.0,0.0,0.0,0.0,0.0,0.0,2.284,2.2893,2.2893,2.2893,2.2893,2.2893,2.2893,2.2893,2.2893,2.2893,2.2893,2.2893,2.2893,2.2987,2.3153,2.3238,2.342,2.3621,2.3915,2.4102,2.4195,2.4102,2.4209,2.4439,2.4439,2.4506,2.4414,2.2397,2.1601,2.1365,1.9365,1.861,0.0,0.0,0.0,0.0,0.0,0.0,0.0,1.4658,1.3847,1.3329,1.3383,1.3403,1.3403,1.3403,1.3403,1.3403,1.3403,1.3444,1.3505,1.3565,1.3709,1.3844,1.4078,1.4159,1.4183,1.4285,1.4299,1.4299,1.4299,1.4299,1.4299,1.4299,1.4299,1.4299,1.4299,1.4299,1.4299,1.4299,1.4299,1.4299,1.4299,1.4299,1.4299,1.4299,1.4434,1.4536,1.459,1.4841,1.5038,1.5181,1.5181,1.5181,1.5181,1.5181,1.5181,1.5181,1.5181,1.5181,1.5181,1.5181,1.5181,1.5181,1.5181,1.5181,1.5181,1.5181,1.5181,1.5181,1.5181,1.5181,1.5181,0.0,0.0,0.0,0.0,0.0,0.0,0.0,0.0,0.0,2.2565,0.0,0.0,0.0,0.0,2.2893,2.2893,2.2893,2.2893,2.2893,2.2893,2.2893,2.2893,2.2893,2.2947,2.302,2.2947,2.3094,2.3474,2.3474,2.3621,2.3928,2.4209,2.4342,2.4342,2.4342,2.4412,2.4599,2.4599,2.4599,2.4364,2.1676,2.0579,2.0316,1.7588,0.0,0.0,0.0,0.0,0.0,0.0,0.0,0.0,1.3677,1.3315,1.3403,1.3403,1.3403,1.3403,1.3403,1.3403,1.3403,1.3403,1.3403,1.3424,1.3532,1.3551,1.3646,1.3885,1.4,1.4146,1.4204,1.4265,1.4299,1.4299,1.4299,1.4299,1.4299,1.4299,1.4299,1.4299,1.4299,1.4299,1.4299,1.4299,1.4299,1.4299,1.4299,1.4299,1.4299,1.4387,1.4489,1.4539,1.4835,1.5038,1.5181,1.5181,1.5181,1.5181,1.5181,1.5181,1.5181,1.5181,1.5181,1.5181,1.5181,1.5181,1.5181,1.5181,1.5181,1.5181,1.5181,1.5181,1.5181,1.5181,1.5181,1.5181,0.0,0.0,0.0,0.0,0.0,0.0,0.0,0.0,2.2893,2.2893,0.0,0.0,0.0,0.0,0.0,2.2893,2.2893,2.2893,2.2893,2.2893,2.2893,2.2907,2.2907,2.302,2.3305,2.3046,2.3215,2.3817,2.3817,2.3928,2.4222,2.4466,2.4599,2.4599,2.4599,2.4599,2.4599,2.4599,2.4599,2.4253,2.0268,1.8648,1.8156,1.4137,0.0,0.0,1.2693,1.2834,0.0,1.3166,0.0,0.0,0.0,1.3403,1.3403,1.3403,1.3403,1.3403,0.0,0.0,0.0,1.3403,1.3403,1.3403,1.3403,1.3512,1.3585,1.3585,1.3858,1.4105,1.4112,1.419,1.4292,1.4299,1.4299,1.4299,1.4299,1.4299,1.4299,1.4299,1.4299,1.4299,1.4299,1.4299,1.4299,1.4299,1.4299,1.4299,1.4299,1.4299,1.4434,1.4681,1.4882,1.5078,1.5174,1.5181,1.5181,1.5181,1.5181,1.5181,1.5181,1.5181,1.5181,1.5181,1.5181,1.5181,1.5181,1.5181,1.5181,1.5181,1.5181,1.5181,1.5181,1.5181,1.5181,1.5181,0.0,0.0,0.0,0.0,0.0,0.0,2.2773,2.284,2.2893,0.0,0.0,0.0,2.2893,2.2893,2.2893,2.2893,2.2893,2.2893,2.2893,2.2893,2.3,2.3193,2.3193,2.334,2.3647,2.3603,2.3736,2.4088,2.4088,2.4235,2.4479,2.4559,2.4599,2.4599,2.4599,2.4599,2.4599,2.4599,2.4599,2.4377,2.1788,1.9892,1.8307,1.5654,0.0,0.0,0.0,1.2895,1.3159,0.0,1.3247,1.3342,0.0,0.0,1.3403,1.3403,1.3403,1.3403,1.3403,0.0,0.0,0.0,0.0,0.0,1.3403,1.3437,1.3498,1.3565,1.3653,1.3817,1.4078,1.4153,1.417,1.4285,1.4299,1.4299,1.4299,1.4299,1.4299,1.4299,1.4299,1.4299,1.4299,1.4299,1.4299,1.4299,1.4299,1.4299,1.4299,1.4299,1.4387,1.457,1.4681,1.4875,1.5025,1.5133,1.5181,1.5181,1.5181,1.5181,1.5181,1.5181,1.5181,1.5181,1.5181,1.5181,1.5181,1.5181,1.5181,1.5181,1.5181,1.5181,1.5181,1.5181,1.5181,1.5181,0.0,0.0,0.0,0.0,0.0,2.2893,2.2893,2.2893,2.2893,0.0,0.0,0.0,2.2893,2.2893,2.2893,2.2893,2.3014,2.306,2.306,2.3215,2.3362,2.35,2.3514,2.3647,2.3941,2.387,2.3968,2.4382,2.4262,2.4356,2.4599,2.4599,2.4171,2.3479,2.44,2.3855,2.2335,2.3266,2.4093,2.4549,2.1679,1.9832,1.8528,1.5499,1.3733,0.0,0.0,0.0,1.3268,1.3268,1.3329,0.0,0.0,0.0,0.0,0.0,1.3403,0.0,0.0,0.0,1.3403,1.3403,0.0,0.0,1.3403,1.3403,1.3424,1.3512,1.3545,1.3639,1.3858,1.3987,1.4146,1.419,1.4258,1.4299,1.4299,1.4299,1.4299,1.4299,1.4299,1.4299,1.4299,1.4299,1.4299,1.4299,1.4299,1.4299,1.4299,1.4299,1.4367,1.4509,1.4597,1.4719,1.4875,1.5018,1.5139,1.5139,1.5153,1.5181,1.5181,1.5181,1.5181,1.5181,1.5181,1.5181,1.5181,1.5181,1.5181,1.5181,1.5181,1.5181,1.5181,1.5181,1.5181,1.5181,0.0,0.0,2.2893,2.2893,2.2893,2.2893,2.2893,2.2893,2.2893,0.0,2.2893,2.2907,2.2947,2.2947,2.296,2.3,2.322,2.338,2.338,2.3621,2.3817,2.3857,2.3857,2.3955,2.4249,2.3995,2.4115,2.4599,2.4382,2.4396,2.4653,2.4417,2.3429,2.1922,2.3656,2.2383,1.9141,2.1146,2.2949,2.4162,2.0484,1.8941,1.8426,0.0,1.3129,1.3214,1.3214,1.3268,1.3403,1.3403,1.3403,0.0,0.0,0.0,0.0,0.0,1.3403,0.0,0.0,0.0,0.0,0.0,1.3403,0.0,1.3403,1.3403,1.3403,1.3403,1.3512,1.3565,1.3585,1.3844,1.4078,1.4112,1.4183,1.4278,1.4299,1.4299,1.4299,1.4299,1.4299,1.4299,1.4299,1.4299,1.4299,1.4299,1.4299,1.4299,1.4299,1.4299,1.436,1.4482,1.4502,1.4577,1.4667,1.4869,1.4996,1.5017,1.5099,1.5167,1.5181,1.5181,1.5181,1.5181,1.5181,1.5181,1.5181,1.5181,1.5181,1.5181,1.5181,1.5181,1.5181,1.5181,1.5181,1.5181,0.0,0.0,2.2893,2.2893,2.2893,2.2893,2.2893,2.2893,2.2893,2.2893,2.2893,2.2987,2.3207,2.3233,2.334,2.3616,2.3683,2.3688,2.3688,2.3777,2.391,2.4115,2.4115,2.4249,2.4506,2.4452,2.4492,2.4599,2.4546,2.4703,2.4959,2.3179,2.2288,2.2152,2.0802,1.9764,1.9044,1.9738,2.0264,2.0476,1.9425,1.8054,1.6516,1.57,1.4441,1.3214,1.3214,1.3268,1.3403,1.3403,1.3403,1.3403,0.0,0.0,0.0,1.3403,0.0,0.0,0.0,0.0,0.0,0.0,0.0,0.0,1.3403,1.3403,1.3403,1.3403,1.3424,1.3485,1.3565,1.3632,1.3797,1.4078,1.4139,1.4156,1.4285,1.4299,1.4299,1.4299,1.4299,1.4299,1.4299,1.4299,1.4299,1.4299,1.4299,1.4299,1.4299,1.4299,1.4312,1.434,1.4448,1.4523,1.4557,1.466,1.4848,1.5017,1.5044,1.5119,1.5181,1.5181,1.5181,1.5181,1.5181,1.5181,1.5181,1.5181,1.5181,1.5181,1.5181,1.5181,1.5181,1.5181,1.5181,1.5181,2.2893,2.2893,2.2893,2.2893,2.2893,2.2893,2.2893,2.2893,2.2893,2.2893,2.3027,2.3207,2.3514,2.3554,2.3607,2.379,2.3901,2.3981,2.3981,2.4115,2.4262,2.4372,2.4386,2.4452,2.4599,2.4746,2.4863,2.4863,2.4959,2.5144,2.5291,2.4163,2.2665,2.0898,2.0858,1.9105,1.6296,1.7512,1.7436,1.6536,1.7382,1.7124,1.6199,1.5039,1.4073,1.3288,1.3288,1.3336,1.3403,1.3403,1.3403,0.0,0.0,1.3403,1.3403,0.0,1.3403,1.3403,0.0,0.0,0.0,1.3403,0.0,0.0,0.0,1.3403,1.3403,1.3403,1.3403,1.3424,1.3498,1.3538,1.3682,1.3824,1.3973,1.4139,1.4177,1.4251,1.4299,1.4299,1.4299,1.4299,1.4299,1.4299,1.4299,1.4299,1.4299,1.4299,1.4299,1.4299,1.4299,1.4299,1.4367,1.4407,1.4407,1.455,1.4665,1.474,1.4821,1.4896,1.4964,1.5038,1.5079,1.5079,1.5153,1.5181,1.5181,1.5181,1.5181,1.5181,1.5181,1.5181,1.5181,1.5181,1.5181,1.5181,2.2893,2.2893,2.2893,2.2893,2.2893,2.2893,2.2893,2.2947,2.3014,2.3067,2.326,2.3527,2.3857,2.3884,2.391,2.3928,2.4155,2.4289,0.0,2.4466,2.4599,2.4599,2.4653,2.4679,2.4679,2.501,2.5157,2.5157,2.5398,2.5545,2.5598,2.5162,2.3018,1.9624,2.0949,1.8487,1.3521,1.5267,1.4987,1.3556,1.5169,1.5878,1.5778,1.3951,1.3295,1.3403,1.3403,1.3403,1.3403,1.3403,1.3403,1.3403,1.3403,1.3403,0.0,0.0,0.0,0.0,0.0,0.0,0.0,0.0,0.0,1.3403,0.0,0.0,0.0,1.3403,1.3403,1.3403,1.3403,1.3505,1.3531,1.3546,1.379,1.3973,1.3989,1.4095,1.4231,1.4292,1.4299,1.4299,1.4299,1.4299,1.4299,1.4299,1.4299,1.4299,1.4299,1.4299,1.4299,1.4299,1.4299,1.4299,1.4299,1.4414,1.4482,1.4516,1.4593,1.4667,1.4701,1.4869,1.493,1.4936,1.5045,1.5099,1.5099,1.5099,1.5099,1.5099,1.516,1.5181,1.5181,1.5181,1.5181,1.5181,2.2893,2.2893,2.2893,2.2893,2.2893,2.2893,2.2893,2.31,2.3367,2.3669,2.3736,2.387,2.4128,2.4155,2.4262,0.0,0.0,0.0,2.4546,0.0,2.4599,2.4599,2.489,2.5024,2.5024,2.5317,2.5464,2.5464,2.5504,2.5651,2.5905,2.3945,2.1896,1.9785,1.8082,1.5819,1.3403,1.3645,1.3604,1.3397,1.3666,1.3755,1.3721,1.3459,1.3383,1.3403,1.3403,1.3403,1.3403,0.0,1.3403,1.3403,0.0,1.3403,1.3403,1.3403,0.0,0.0,0.0,0.0,0.0,0.0,1.3403,0.0,0.0,0.0,1.3403,1.3403,0.0,1.3403,1.3403,0.0,0.0,1.3247,1.3478,1.3634,1.3498,1.3715,1.395,1.4265,1.4299,1.4299,1.4299,1.4299,1.4299,1.4299,1.4299,1.4299,1.4299,1.4299,1.4299,1.4299,1.4299,1.4299,1.4299,1.4319,1.4387,1.4509,1.4529,1.4566,1.4694,1.4714,1.4721,1.4721,1.4735,1.4741,1.4741,1.4741,1.4741,1.4769,1.5079,1.5181,1.5181,1.5181,1.5181,1.5181,2.2893,2.2893,2.296,2.31,2.3126,2.3193,2.3402,2.3536,2.3688,2.3981,2.4022,2.4128,2.4386,0.0,0.0,0.0,0.0,2.3339,0.0,0.0,0.0,2.4853,2.501,2.5157,2.5331,2.5611,2.5772,2.5772,2.5932,2.6092,2.6173,2.3979,2.1836,1.9785,1.7588,1.5391,1.3403,1.3403,1.3403,1.3403,1.3403,1.3403,0.0,1.3403,1.3403,1.3403,1.3403,1.3403,1.3403,0.0,1.3403,0.0,0.0,0.0,0.0,0.0,0.0,0.0,0.0,0.0,0.0,0.0,0.0,0.0,1.3403,0.0,1.3403,0.0,0.0,0.0,0.0,0.0,0.0,0.0,1.3485,1.3565,1.3504,1.3666,1.3876,1.4143,1.417,1.4204,1.4292,1.4299,1.4299,1.4299,1.4299,1.4299,1.4299,1.4299,1.4299,1.4299,1.4299,1.4299,1.4299,1.4299,1.4333,1.4387,1.4387,1.4421,1.4489,1.457,1.4566,1.4611,1.4654,1.4694,1.4694,1.4694,1.4694,1.4708,1.4829,1.4984,1.5059,1.5059,1.5113,1.5181,2.3148,2.3081,2.3086,2.3394,2.3447,2.3554,2.3848,2.3924,2.3995,2.4289,2.4329,2.4359,2.4572,2.4105,0.0,0.0,2.2434,2.1975,0.0,0.0,2.2792,0.0,0.0,0.0,0.0,2.5607,2.6118,2.6118,2.6279,2.6386,2.6347,2.4151,2.1965,1.9785,1.7588,1.5391,1.3403,1.3403,1.3403,1.3403,1.3403,1.3403,1.3403,1.3403,1.3403,1.3403,1.3403,1.3403,1.3403,1.3403,1.3403,0.0,1.3403,0.0,0.0,0.0,0.0,0.0,1.3403,0.0,0.0,0.0,0.0,0.0,0.0,0.0,0.0,0.0,0.0,0.0,0.0,0.0,0.0,0.0,0.0,1.3539,1.3458,1.3565,1.3747,1.3987,1.4091,1.4129,1.4285,1.4299,1.4299,1.4299,1.4299,1.4299,1.4299,1.4299,1.4299,1.4299,1.4299,1.4299,1.4299,1.4299,1.4299,1.4299,1.4299,1.4299,1.4306,1.4407,1.4455,1.4462,1.457,1.4572,1.4572,1.4572,1.4572,1.4572,1.4572,1.4713,1.4848,1.4896,1.497,1.5059,2.3777,2.3514,2.3407,2.3736,2.379,2.3884,2.4142,2.4195,2.4289,2.4546,2.4586,2.4586,0.0,0.0,0.0,0.0,0.0,2.0804,1.8912,0.0,2.3129,0.0,0.0,2.492,0.0,2.5074,2.6373,2.6373,2.6386,2.6386,2.6347,2.4151,2.1965,1.9785,1.7588,1.5391,1.3403,1.3403,1.3403,1.3403,1.3403,1.3403,1.3403,0.0,1.3403,1.3403,1.3403,0.0,0.0,1.3403,1.3403,0.0,0.0,0.0,0.0,0.0,0.0,0.0,0.0,0.0,0.0,1.3403,0.0,0.0,0.0,0.0,1.3403,0.0,0.0,0.0,0.0,0.0,0.0,0.0,0.0,0.0,0.0,1.3234,1.3519,1.3774,1.398,1.4129,1.4285,1.4299,1.4299,1.4299,1.4299,1.4299,1.4299,1.4299,1.4299,1.4299,1.4299,1.4299,1.4299,1.4299,1.4299,1.4299,1.4299,1.4299,1.4299,1.4306,1.4306,1.4306,1.4312,1.4312,1.4312,1.4312,1.4312,1.4312,1.4312,1.4401,1.4543,1.4647,1.4708,1.4708,2.4022,2.3981,2.3941,2.4035,2.4062,2.4155,2.4412,2.4452,2.4038,2.2769,2.262,0.0,0.0,2.0005,1.9591,0.0,0.0,1.7853,1.8534,2.0157,0.0,0.0,0.0,2.5036,0.0,2.5188,2.6386,2.6386,2.6386,2.6386,2.6347,2.4151,2.2699,2.1845,1.8231,1.6205,1.5432,1.4011,1.3403,1.3403,1.3403,1.3403,1.3403,0.0,1.3403,1.3403,1.3403,1.3403,0.0,1.3403,1.3403,1.3403,1.3403,1.3403,1.3403,1.3403,1.3403,1.3403,0.0,0.0,1.3403,1.3403,0.0,0.0,0.0,0.0,0.0,0.0,0.0,0.0,0.0,0.0,0.0,0.0,0.0,0.0,0.0,1.3336,1.3478,1.3632,1.3919,1.4129,1.4285,1.4299,1.4299,1.4299,1.4299,1.4299,1.4299,1.4299,1.4299,1.4299,1.4299,1.4299,1.4299,1.4299,1.4299,1.4299,1.4299,1.4299,1.4299,1.4299,1.4299,1.4299,1.4299,1.4299,1.4299,1.4299,1.4299,1.4299,1.4299,1.4333,1.4387,1.4536,1.4606,1.4694,2.4315,2.4356,2.4356,2.4356,2.4356,2.4386,2.4572,2.3994,2.3079,2.1788,2.0991,0.0,1.8798,0.0,1.7616,0.0,1.6469,1.6276,1.7663,1.862,0.0,1.8171,2.1789,0.0,0.0,0.0,2.5251,2.5251,2.6017,2.6386,2.6347,2.334,2.1965,2.1764,1.7424,1.5473,1.535,1.3969,1.3403,1.3403,1.3403,1.3437,0.0,0.0,1.3485,1.3492,0.0,1.3559,1.3559,1.3559,1.3559,1.3559,1.3559,1.3519,1.3485,1.3485,1.3444,1.3403,1.3403,1.3403,0.0,1.3403,1.3403,0.0,1.3403,0.0,1.3403,0.0,0.0,0.0,0.0,0.0,0.0,0.0,0.0,0.0,0.0,1.3403,1.3458,1.3572,1.3844,1.4048,1.4204,1.4272,1.4299,1.4299,1.4299,1.4299,1.4299,1.4299,1.4299,1.4299,1.4299,1.4299,1.4299,1.4299,1.4299,1.4299,1.4299,1.4299,1.4299,1.4299,1.4299,1.4299,1.4299,1.4299,1.4299,1.4299,1.4299,1.4299,1.4299,1.4299,1.4312,1.4401,1.4496,1.4539,2.4599,2.4599,2.4599,2.4599,2.4599,2.4599,2.4599,2.2893,2.1564,2.1464,1.9725,1.8483,1.8521,1.6808,1.5716,1.5843,1.5852,1.59,1.6018,1.8133,0.0,0.0,1.851,1.8796,1.6442,0.0,0.0,0.0,2.5052,2.607,2.5977,2.1845,1.9907,1.9704,1.5481,1.3562,1.3562,1.3445,1.3403,1.341,1.341,1.3505,1.3599,1.3605,1.3605,1.3626,1.3754,1.3795,1.3795,1.3795,1.3795,1.3795,1.3795,1.3707,1.3599,1.3599,1.3539,1.3424,1.3424,1.3417,1.341,1.341,1.3403,0.0,0.0,0.0,1.3403,0.0,0.0,0.0,0.0,0.0,0.0,0.0,0.0,0.0,0.0,0.0,1.3458,1.3558,1.37,1.3892,1.4091,1.4197,1.4292,1.4292,1.4299,1.4299,1.4299,1.4299,1.4299,1.4299,1.4299,1.4299,1.4299,1.4299,1.4299,1.4299,1.4299,1.4299,1.4299,1.4299,1.4299,1.4299,1.4299,1.4299,1.4299,1.4299,1.4299,1.4299,1.4299,1.4299,1.4299,1.4299,1.4299,1.4299,2.4599,2.4599,2.4599,2.4599,2.4599,2.4599,2.4599,2.2893,2.1097,1.9722,1.7788,1.6022,1.4647,1.4042,1.3746,1.3782,1.3789,0.0,0.0,0.0,0.0,1.4077,1.7787,1.8863,1.662,1.9309,0.0,2.0716,0.0,2.1563,2.1523,2.0433,1.9907,1.9785,1.7016,1.5794,1.5671,1.4093,1.3464,1.3531,1.3531,1.3612,1.3754,0.0,1.396,1.3946,1.3829,1.3795,1.3795,1.3795,1.3795,1.3795,1.3795,1.3774,1.3741,1.3741,1.3714,1.3687,1.3687,1.3605,1.3531,1.3531,1.3485,1.3403,0.0,0.0,0.0,0.0,0.0,0.0,0.0,0.0,0.0,0.0,0.0,0.0,0.0,0.0,0.0,1.3458,1.3551,1.37,1.3842,1.4041,1.4129,1.4129,1.4238,1.4299,1.4299,1.4299,1.4299,1.4299,1.4299,1.4299,1.4299,1.4299,1.4299,1.4299,1.4299,1.4299,1.4299,1.4299,1.4299,1.4299,1.4299,1.4299,1.4299,1.4299,1.4299,1.4299,1.4299,1.4299,1.4299,1.4299,1.4299,1.4299,2.4599,2.4599,2.4599,2.4599,2.39,2.3379,2.329,2.2419,2.0743,1.7855,1.6598,0.0,1.3312,1.3152,1.318,1.3247,1.3308,0.0,1.4672,0.0,0.0,1.4687,1.6196,1.6492,1.5226,1.7343,0.0,1.8444,0.0,1.9907,1.9866,1.8933,1.8444,1.8354,1.6164,1.5185,1.511,1.3887,1.3492,1.3585,1.3585,1.3714,0.0,1.4084,1.4159,1.4156,1.4075,1.3998,1.3998,1.3998,1.3998,1.3998,1.3998,1.3994,1.3939,1.3939,1.3849,1.3795,1.3795,1.3741,1.368,1.368,1.3612,1.358,1.3512,1.3498,1.3485,0.0,1.3403,1.3403,0.0,0.0,0.0,0.0,0.0,0.0,0.0,0.0,0.0,0.0,1.3478,1.3559,1.3641,1.3844,1.3973,1.3973,1.4116,1.4197,1.4197,1.4265,1.4299,1.4299,1.4299,1.4299,1.4299,1.4299,1.4299,1.4299,1.4299,1.4299,1.4299,1.4299,1.4299,1.4299,1.4299,1.4299,1.4299,1.4299,1.4299,1.4299,1.4299,1.4299,1.4299,1.4299,1.4299,1.4299,2.4599,2.4377,2.4193,2.4232,2.269,2.1273,2.0929,2.1076,1.9919,1.6316,0.0,1.5177,1.3459,1.337,1.3512,1.3605,0.0,1.4585,1.6358,1.4694,1.4426,1.6155,1.4419,1.3431,1.3431,1.5242,1.6164,0.0,0.0,1.9055,1.9014,1.7097,1.6164,1.6082,1.4217,1.3403,1.3403,1.3424,1.3519,1.3619,1.3639,1.3851,1.4146,1.4146,1.4183,1.4299,1.4299,1.4299,1.4299,1.4299,1.4299,1.4299,1.4299,1.4211,1.4146,1.4146,1.4007,1.3856,1.3856,1.3842,1.3829,1.3829,1.3815,1.3768,1.3646,1.3612,1.3578,1.3485,1.3444,1.3431,0.0,0.0,0.0,0.0,0.0,0.0,0.0,0.0,0.0,0.0,0.0,0.0,1.3403,1.3648,1.3768,1.3768,1.3953,1.4048,1.4112,1.4197,1.4278,1.4299,1.4299,1.4299,1.4299,1.4299,1.4299,1.4299,1.4299,1.4299,1.4299,1.4299,1.4299,1.4299,1.4299,1.4299,1.4299,1.4299,1.4299,1.4299,1.4299,1.4299,1.4299,1.4299,1.4299,1.4299,2.4599,2.3264,2.2159,2.2274,2.0648,1.8802,1.7226,1.7036,1.684,1.6218,1.4837,1.379,1.3574,1.3632,1.3734,1.3761,1.3781,0.0,0.0,0.0,0.0,1.4266,1.3816,1.3545,1.3545,1.3832,1.3969,0.0,0.0,0.0,1.4541,1.4135,1.3969,1.3928,1.3562,1.3403,1.341,1.3539,1.3632,1.3774,1.3939,1.4102,1.4258,1.4258,1.4278,1.4299,1.4299,1.4299,1.4299,1.4299,1.4299,1.4299,1.4299,1.4285,1.4258,1.4258,1.4238,1.4217,1.4217,1.4129,1.4034,1.4034,1.3933,1.3788,1.3768,1.3761,1.3754,1.3727,1.3626,1.3545,1.3545,0.0,0.0,0.0,0.0,0.0,0.0,0.0,0.0,0.0,0.0,1.3403,1.3403,1.3518,1.3626,1.3626,1.3754,1.3939,1.4105,1.4139,1.417,1.4299,1.4299,1.4299,0.0,1.4299,1.4299,1.4299,1.4299,1.4299,1.4299,1.4299,1.4299,1.4299,1.4299,1.4299,1.4299,1.4299,1.4299,1.4299,1.4299,1.4299,1.4299,1.4299,1.4299,1.4299,2.3117,2.1537,2.019,2.0313,1.8739,1.7158,1.6311,1.5382,1.4758,1.475,1.5093,1.4912,1.3814,1.3871,1.396,1.396,1.4034,1.4048,1.3966,1.396,1.3926,1.3802,1.3734,1.366,1.3592,1.3559,1.3478,1.3403,0.0,0.0,1.3403,1.3403,1.3403,1.3403,1.3403,1.3403,1.341,1.3524,1.3666,1.3815,1.4007,1.4163,1.4299,1.4299,1.4299,1.4299,1.4299,1.4299,1.4299,1.4299,1.4299,1.4299,1.4299,1.4299,1.4299,1.4299,1.4299,1.4299,1.4299,1.4245,1.419,1.419,1.4136,1.4055,1.398,1.396,1.3939,1.3815,1.3741,1.3673,1.3599,1.3505,0.0,0.0,0.0,0.0,0.0,0.0,0.0,0.0,0.0,0.0,0.0,1.3464,1.3512,1.3512,1.3605,1.3754,1.3946,1.4027,1.4143,1.4292,1.4299,0.0,1.4299,0.0,1.4299,1.4299,1.4299,1.4299,1.4299,1.4299,1.4299,1.4299,1.4299,1.4299,1.4299,1.4299,1.4299,1.4299,1.4299,1.4299,1.4299,1.4299,1.4299,1.4299,2.1173,1.9594,1.8242,1.8414,1.6848,1.5666,1.5841,1.4616,1.3668,1.3512,1.5232,1.5798,1.4057,1.4027,1.4122,1.4122,1.4231,1.4251,1.4173,1.4122,1.4068,1.3903,1.3862,1.3795,1.3729,1.3619,1.3566,0.0,0.0,0.0,1.3403,1.3403,1.3403,1.3403,1.3403,1.3417,1.3458,0.0,1.3714,1.3862,1.4061,1.419,1.4299,1.4299,1.4299,1.4299,1.4299,1.4299,1.4299,1.4299,1.4299,1.4299,1.4299,1.4299,1.4299,1.4299,1.4299,1.4299,1.4299,1.4299,1.4299,1.4299,1.4299,1.4272,1.4193,1.4122,1.4089,1.3916,1.3869,1.3802,1.366,1.3553,0.0,0.0,0.0,0.0,0.0,0.0,0.0,0.0,0.0,0.0,1.3403,1.3403,1.3403,1.3403,1.3512,1.3612,1.3788,1.3953,1.4109,1.4292,1.4299,1.4299,1.4299,0.0,1.4299,1.4299,1.4299,1.4299,1.4299,1.4299,1.4299,1.4299,1.4299,1.4299,1.4299,1.4299,1.4299,1.4299,1.4299,1.4299,1.4299,1.4299,1.4299,1.4299,1.9226,1.7631,1.6333,1.6578,1.4998,1.3763,1.4004,1.4055,1.3973,1.3774,1.4119,1.4308,1.4091,1.419,1.4278,1.4278,1.4292,1.4292,1.4278,1.4278,1.4272,1.4258,1.4122,1.4084,1.4034,1.377,1.3578,0.0,0.0,1.3403,0.0,0.0,1.3403,1.3403,1.3403,0.0,0.0,1.3714,1.3912,1.4061,1.4217,1.4285,1.4299,1.4299,1.4299,1.4299,1.4299,1.4299,1.4299,1.4299,1.4299,1.4299,1.4299,1.4299,1.4299,1.4299,1.4299,1.4299,1.4299,1.4299,1.4299,1.4299,1.4299,1.4299,1.4285,1.4278,1.4278,1.4258,1.415,1.4,1.3808,1.366,1.3565,0.0,0.0,0.0,0.0,0.0,0.0,0.0,0.0,0.0,1.3403,1.3403,1.3403,1.3403,1.3417,1.3546,1.3781,1.3815,0.0,1.4292,1.4299,1.4299,1.4299,1.4299,1.4299,1.4299,1.4299,1.4299,1.4299,1.4299,1.4299,1.4299,1.4299,1.4299,1.4299,1.4299,1.4299,1.4299,1.4299,1.4299,1.4299,1.4299,1.4299,1.4299,1.7291,1.5755,1.4497,1.4693,1.4105,1.3736,1.3946,1.4034,1.4082,1.4116,1.417,1.4211,1.4211,1.4265,1.4299,1.4299,1.4299,1.4299,1.4299,1.4299,1.4299,1.4299,1.4245,1.4163,1.4119,1.3953,1.3851,0.0,0.0,0.0,0.0,0.0,0.0,0.0,0.0,1.3578,1.3727,1.3912,1.4014,1.4132,1.4238,1.4299,1.4299,1.4299,1.4299,1.4299,1.4299,1.4299,1.4299,1.4299,1.4299,1.4299,1.4299,1.4299,1.4299,1.4299,1.4299,1.4299,1.4299,1.4299,1.4299,1.4299,1.4299,1.4299,1.4299,1.4299,1.4299,1.4299,1.4177,1.4098,1.3987,1.3858,1.3714,1.3714,0.0,0.0,0.0,0.0,0.0,0.0,0.0,0.0,0.0,1.3403,1.3403,1.3403,1.3403,1.3532,0.0,0.0,0.0,1.4292,0.0,1.4299,1.4299,1.4299,1.4299,1.4299,1.4299,1.4299,1.4299,1.4299,1.4299,1.4299,1.4299,1.4299,1.4299,1.4299,1.4299,1.4299,1.4299,1.4299,1.4299,1.4299,1.4299,1.4299,1.5477,1.4441,1.358,1.3729,1.3844,1.396,1.4116,1.4136,1.4177,1.4285,1.4299,1.4299,1.4299,1.4299,1.4299,1.4299,1.4299,1.4299,1.4299,1.4299,1.4299,1.4299,1.4299,0.0,1.4143,1.4139,1.4021,1.3905,1.372,0.0,0.0,0.0,0.0,0.0,1.3646,1.3727,1.3912,1.4027,1.4139,1.415,1.4258,1.4299,1.4299,1.4299,1.4299,1.4299,1.4299,1.4299,1.4299,1.4299,1.4299,1.4299,1.4299,1.4299,1.4299,1.4299,1.4299,1.4299,1.4299,1.4299,1.4299,1.4299,1.4299,1.4299,1.4299,1.4299,1.4299,1.4299,1.4211,1.4136,1.4136,1.4014,1.3905,1.3905,0.0,0.0,0.0,0.0,0.0,0.0,1.3492,1.3464,1.3464,1.3464,1.3464,1.3464,0.0,0.0,0.0,0.0,0.0,0.0,0.0,0.0,1.4299,1.4299,1.4299,1.4299,1.4299,1.4299,1.4299,1.4299,1.4299,1.4299,1.4299,1.4299,1.4299,1.4299,1.4299,1.4299,1.4299,1.4299,1.4299,1.4299,1.4299,1.4299,1.3777,1.3788,1.3842,1.4041,1.4112,1.4122,1.4272,1.4299,1.4299,1.4299,1.4299,1.4299,1.4299,1.4299,1.4299,1.4299,1.4299,1.4299,1.4299,1.4299,1.4299,0.0,0.0,1.4299,1.4299,1.415,1.4112,1.4112,0.0,0.0,1.3795,0.0,1.3795,1.3795,1.3795,1.3926,1.4112,1.4119,1.4156,1.4299,1.4299,1.4299,1.4299,1.4299,1.4299,1.4299,1.4299,1.4299,1.4299,1.4299,1.4299,1.4299,1.4299,1.4299,1.4299,1.4299,1.4299,1.4299,1.4299,1.4299,1.4299,1.4299,1.4299,1.4299,1.4299,1.4299,1.4299,1.4299,1.4299,1.4299,1.4299,1.417,1.4112,1.4112,0.0,0.0,0.0,0.0,0.0,1.3795,1.3666,1.3585,1.3585,1.3585,1.3585,1.3585,0.0,0.0,0.0,0.0,0.0,1.4292,1.4299,0.0,1.4299,1.4299,1.4299,1.4299,1.4299,1.4299,1.4299,1.4299,1.4299,1.4299,1.4299,1.4299,1.4299,1.4299,1.4299,1.4299,1.4299,1.4299,1.4299,1.4299,1.4299,1.4299,1.3781,1.3926,1.4014,1.4105,1.42,1.4245,1.4292,1.4299,1.4299,1.4299,1.4299,1.4299,1.4299,1.4299,1.4299,0.0,1.4299,1.4299,0.0,1.4299,1.4299,1.4299,1.4299,1.4299,1.4299,1.4251,1.4231,1.4231,0.0,0.0,0.0,1.3795,1.3856,1.4,1.4,1.4082,1.4231,1.4231,1.4258,1.4299,1.4299,1.4299,1.4299,1.4299,1.4299,1.4299,1.4299,1.4299,1.4299,1.4299,1.4299,1.4299,1.4299,1.4299,1.4299,1.4299,1.4299,1.4299,1.4299,1.4299,1.4299,1.4299,1.4299,1.4299,1.4299,1.4299,1.4299,1.4299,1.4299,1.4299,1.4299,1.4258,1.4231,1.4231,1.4183,0.0,1.4014,0.0,0.0,0.0,1.3754,1.3734,1.3734,1.3734,0.0,0.0,0.0,0.0,0.0,0.0,0.0,0.0,1.4299,0.0,1.4299,1.4299,1.4299,1.4299,1.4299,1.4299,1.4299,1.4299,1.4299,1.4299,1.4299,1.4299,1.4299,1.4299,1.4299,1.4299,1.4299,1.4299,1.4299,1.4299,1.4299,1.4299,1.4,1.4089,1.42,1.42,1.4238,1.4299,1.4299,1.4299,1.4299,1.4299,1.4299,1.4299,1.4299,1.4299,0.0,1.4299,1.4299,1.4299,1.4299,1.4299,1.4299,1.4299,1.4299,1.4299,1.4299,1.4299,0.0,1.4299,1.4204,1.4109,1.3971,1.3971,1.4068,1.42,1.42,1.4211,1.4299,1.4299,1.4299,1.4299,1.4299,1.4299,1.4299,1.4299,1.4299,1.4299,1.4299,1.4299,1.4299,1.4299,1.4299,1.4299,1.4299,1.4299,1.4299,1.4299,1.4299,1.4299,1.4299,1.4299,1.4299,1.4299,1.4299,1.4299,1.4299,1.4299,1.4299,1.4299,1.4299,1.4299,1.4299,1.4299,1.4299,1.4299,1.4299,1.4265,1.417,0.0,0.0,0.0,0.0,0.0,0.0,1.3926,1.3926,0.0,0.0,0.0,0.0,0.0,1.4204,1.4299,1.4299,1.4299,1.4299,1.4299,1.4299,1.4299,1.4299,1.4299,1.4299,1.4299,1.4299,1.4299,1.4299,1.4299,1.4299,1.4299,1.4299,1.4299,1.4299,1.4299,1.4299,1.4299,1.4299,1.4299,1.4272,1.4299,1.4299,1.4299,1.4299,1.4299,1.4299,1.4299,1.4299,1.4299,1.4299,1.4299,1.4299,1.4299,1.4299,1.4299,0.0,0.0,1.4299,1.4299,1.4299,1.4299,1.4299,1.4299,1.4299,1.4299,1.4299,1.4299,1.4299,1.4299,1.4299,1.4299,1.4299,1.4299,1.4299,1.4299,1.4299,1.4299,1.4299,1.4299,1.4299,1.4299,1.4299,1.4299,1.4299,1.4299,1.4299,1.4299,1.4299,1.4299,1.4299,1.4299,1.4299,1.4299,1.4299,1.4299,1.4299,1.4299,1.4299,1.4299,1.4299,1.4299,1.4299,1.4299,1.4299,1.4299,1.4299,1.4299,1.4299,1.4299,1.4299,1.4299,1.4299,1.4299,1.4299,1.4299,1.4299,1.4299,0.0,0.0,0.0,0.0,1.4132,1.4132,1.4132,0.0,0.0,0.0,0.0,0.0,1.4299,1.4299,1.4299,1.4299,1.4299,1.4299,1.4299,1.4299,1.4299,1.4299,1.4299,1.4299,1.4299,1.4299,1.4299,1.4299,1.4299,1.4299,1.4299,1.4299,1.4299,1.4299,1.4299,1.4299,1.4299,1.4299,1.4292,1.4299,1.4299,1.4299,1.4299,1.4299,1.4299,1.4299,1.4299,1.4299,1.4299,1.4299,1.4299,1.4299,1.4299,1.4299,1.4299,1.4299,1.4299,1.4299,1.4299,1.4299,1.4299,1.4299,1.4299,1.4299,1.4299,1.4299,1.4299,1.4299,1.4299,1.4299,1.4299,1.4299,1.4299,1.4299,1.4299,1.4299,1.4299,1.4299,1.4299,1.4299,1.4299,1.4299,1.4299,1.4299,1.4299,1.4299,1.4299,1.4299,1.4299,1.4299,1.4299,1.4299,1.4299,1.4299,1.4299,1.4299,1.4299,1.4299,1.4299,1.4299,1.4299,1.4299,1.4299,1.4299,1.4299,1.4299,1.4299,1.4299,1.4299,1.4299,1.4299,1.4299,1.4299,1.4299,1.4299,1.4299,1.4299,0.0,1.4272,1.4245,1.4245,1.4245,1.4245,0.0,0.0,1.4299,1.4299,1.4299,1.4299,1.4299,1.4299,1.4299,1.4299,1.4299,1.4299,1.4299,1.4299,1.4299,1.4299,1.4299,1.4299,1.4299,1.4299,1.4299,1.4299,1.4299,1.4299,1.4299,1.4299,1.4299,1.4299,1.4299,1.4299,1.4299,1.4299,1.4299,1.4299,1.4299,1.4299,1.4299,1.4299,1.4299,1.4299,1.4299,1.4299,1.4299,1.4299,1.4299,1.4299,1.4299,1.4299,1.4299,1.4299,1.4299,1.4299,1.4299,1.4299,1.4299,1.4299,1.4299,1.4299,1.4299,1.4299,1.4299,1.4299,1.4299,1.4299,1.4299,1.4299,1.4299,1.4299,1.4299,1.4299,1.4299,1.4299,1.4299,1.4299,1.4299,1.4299,1.4299,1.4299,1.4299,1.4299,1.4299,1.4299,1.4299,1.4299,1.4299,1.4299,1.4299,1.4299,1.4299,1.4299,1.4299,1.4299,1.4299,1.4299,1.4299,1.4299,1.4299,1.4299,1.4299,1.4299,1.4299,1.4299,1.4299,1.4299,1.4299,1.4299,1.4299,1.4299,1.4299,1.4299,1.4299,1.4299,1.4299,1.4299,1.4299,1.4299,1.4299,1.4299,0.0,1.4299,1.4299,1.4299,1.4299,1.4299,1.4299,1.4299,1.4299,1.4299,1.4299,1.4299,1.4299,1.4299,1.4299,1.4299,1.4299,1.4299,1.4299,1.4299,1.4299,1.4299,1.4299,1.4299,1.4299,1.4299,1.4299,1.4299,1.4299,1.4299,1.4299,1.4299,1.4299,1.4299,1.4299,1.4299,1.4299,1.4299,1.4299,1.4299,1.4299,1.4299,1.4299,1.4299,1.4299,1.4299,1.4299,1.4299,1.4299,1.4299,1.4299,1.4299,1.4299,1.4299,1.4299,1.4299,1.4299,1.4299,1.4299,1.4299,1.4299,1.4299,1.4299,1.4299,1.4299,1.4299,1.4299,1.4299,1.4299,1.4299,1.4299,1.4299,1.4299,1.4299,1.4299,1.4299,1.4299,1.4299,1.4299,1.4299,1.4299,1.4299,1.4299,1.4299,1.4299,1.4299,1.4299,1.4299,1.4299,1.4299,1.4299,1.4299,1.4299,1.4299,1.4299,1.4299,1.4299,1.4299,1.4299,1.4299,1.4299,1.4299,1.4299,1.4299,1.4299,1.4299,0.0,1.4299,1.4299,1.4299,1.4299,1.4299,1.4299,1.4299,1.4299,1.4299,1.4299,1.4299,1.4299,1.4299,1.4299,1.4299,1.4299,1.4299,1.4299,1.4299,1.4299,1.4299,1.4299,1.4299,1.4299,1.4299,1.4299,1.4299,1.4299,1.4299,1.4299,1.4299,1.4299,1.4299,1.4299,1.4299,1.4299,1.4299,1.4299,1.4299,1.4299,1.4299,1.4299,1.4299,1.4299,1.4299,1.4299,1.4299,1.4299,1.4299,1.4299,1.4299,1.4299,1.4299,1.4299,1.4299,1.4299,1.4299,1.4299,1.4299,1.4299,1.4299,1.4299,1.4299,1.4299,1.4299,1.4299,1.4299,1.4299,1.4299,1.4299,1.4299,1.4299,1.4299,1.4299,1.4299,1.4299,1.4299,1.4299,1.4299,1.4299,1.4299,1.4299,1.4299,1.4299,1.4299,1.4299,1.4299,1.4299,1.4299,1.4299,1.4299,1.4299,1.4299,1.4299,1.4299,1.4299,1.4299,1.4299,1.4299,1.4299,1.4299,1.4299,1.4299,1.4299,1.4299,1.4299,1.4299,1.4299,1.4299,1.4299,1.4299,1.4299,1.4299,1.4299,1.4299,0.0,1.4299,1.4299,1.4299,1.4299,1.4299,1.4299,1.4299,1.4299,1.4299,1.4299,1.4299,1.4299,1.4299,1.4299,1.4299,1.4299,1.4299,1.4299,1.4299,1.4299,1.4299,1.4299,1.4299,1.4299,1.4299,1.4299,1.4299,1.4299,1.4299,1.4299,1.4299,1.4299,1.4299,1.4299,1.4299,1.4299,1.4299,1.4299,1.4299,1.4299,1.4299,1.4299,1.4299,1.4299,1.4299,1.4299,1.4299,1.4299,1.4299,1.4299,1.4299,1.4299,1.4299,1.4299,1.4299,1.4299,1.4299,1.4299,1.4299,1.4299,1.4299,1.4299,1.4299,1.4299,1.4299,1.4299,1.4299,1.4299,1.4299,1.4299,1.4299,1.4299,1.4299,1.4299,1.4299,1.4299,1.4299,1.4299,1.4299,1.4299,1.4299,1.4299,1.4299,1.4299,1.4299,1.4299,1.4299,1.4299,1.4299,1.4299,1.4299,1.4299,1.4299,1.4299,1.4299,1.4299,1.4299,1.4299,1.4299,1.4299,1.4299,1.4299,1.4299,1.4299,1.4299,1.4299,1.4299,1.4299,1.4299,1.4299,1.4299,1.4299,1.4299,1.4299,1.4299,1.4299,1.4299,1.4299,1.4299,1.4299,1.4299,1.4299,1.4299,1.4299,1.4299,1.4299,1.4299,1.4299,1.4299,1.4299,1.4299,1.4299,1.4299,1.4299,1.4299,1.4299,1.4299,1.4299,1.4299,1.4299,1.4299,1.4299,1.4299,1.4299,1.4299,1.4299,1.4299,1.4299,1.4299,1.4299,1.4299,1.4299,1.4299,1.4299,1.4299,1.4299,1.4299,1.4299,1.4299,1.4299,1.4299,1.4299,1.4299,1.4299,1.4299,1.4299,1.4299,1.4299,1.4299,1.4299,1.4299,1.4299,1.4299,1.4299,1.4299,1.4299,1.4299,1.4299,1.4299,1.4299,1.4299,1.4299,1.4299,1.4299,1.4299,1.4299,1.4299,1.4299,1.4299,1.4299,1.4299,1.4299,1.4299,1.4299,1.4299,1.4299,1.4299,1.4299,1.4299,1.4299,1.4299,1.4299,1.4299,1.4299,1.4299,1.4299,1.4299,1.4299,1.4299,1.4299,1.4299,1.4299,1.4299,1.4299,1.4299,1.4299,1.4299,1.4299,1.4299,1.4299,1.4299,1.4299,1.4299,1.4299,1.4299,1.4299,1.4299,1.4299,0.0,1.4299,1.4299,1.4299,1.4299,1.4299,1.4299,1.4299,1.4299,1.4299,1.4299,1.4299,1.4299,1.4299,1.4299,1.4299,1.4299,1.4299,1.4299,1.4299,1.4299,1.4299,1.4299,1.4299,1.4299,1.4299,1.4299,1.4299,1.4299,1.4299,1.4299,1.4299,1.4299,1.4299,1.4299,1.4299,1.4299,1.4299,1.4299,1.4299,1.4299,1.4299,1.4299,1.4299,1.4299,1.4299,1.4299,1.4299,1.4299,1.4299,1.4299,1.4299,1.4299,1.4299,1.4299,1.4299,1.4299,1.4299,1.4299,1.4299,1.4299,1.4299,1.4299,1.4299,1.4299,1.4299,1.4299,1.4299,1.4299,1.4299,1.4299,1.4299,1.4299,1.4299,1.4299,1.4299,1.4299,1.4299,1.4299,1.4299,1.4299,1.4299,1.4299,1.4299,1.4299,1.4299,1.4299,1.4299,1.4299,1.4299,1.4299,1.4299,1.4299,1.4299,1.4299,1.4299,1.4299,1.4299,1.4299,1.4299,1.4299,1.4299,1.4299,1.4299,1.4299,1.4299,1.4299,1.4299,1.4299,1.4299,1.4299,1.4299,1.4299,1.4299,1.4299,1.4299,0.0,0.0,1.4299,1.4299,1.4299,1.4299,1.4299,1.4299,1.4299,1.4299,1.4299,1.4299,1.4299,1.4299,1.4299,1.4299,1.4299,1.4299,1.4299,1.4299,1.4299,1.4299,1.4299,1.4299,1.4299,1.4299,1.4299,1.4299,1.4299,1.4299,1.4299,1.4299,1.4299,1.4299,1.4299,1.4299,1.4299,1.4299,1.4299,1.4299,1.4299,1.4299,1.4299,1.4299,1.4299,1.4299,1.4299,1.4299,1.4299,1.4299,1.4299,1.4299,1.4299,1.4299,1.4299,1.4299,1.4299,1.4299,1.4299,1.4299,1.4299,1.4299,1.4299,1.4299,1.4299,1.4299,1.4299,1.4299,1.4299,1.4299,1.4299,1.4299,1.4299,1.4299,1.4299,1.4299,1.4299,1.4299,1.4299,1.4299,1.4299,1.4299,1.4299,1.4299,1.4299,1.4299,1.4299,1.4299,1.4299,1.4299,1.4299,1.4299,1.4299,1.4299,1.4299,1.4299,1.4299,1.4299,1.4299,1.4299,1.4299,1.4299,1.4299,1.4299,1.4299,1.4299,1.4299,1.4299,1.4299,1.4299,1.4299,1.4299,1.4299,1.4299,1.4299,1.4299,0.0,1.4299,1.4299,1.4299,1.4299,1.4299,1.4299,1.4299,1.4299,1.4299,1.4299,1.4299,1.4299,1.4299,1.4299,1.4299,1.4299,1.4299,1.4299,1.4299,1.4299,1.4299,1.4299,1.4299,1.4299,1.4299,1.4299,1.4299,1.4299,1.4299,1.4299,1.4299,1.4299,1.4299,1.4299,1.4299,1.4299,1.4299,1.4299,1.4299,1.4299,1.4299,1.4299,1.4299,1.4299,1.4299,1.4299,1.4299,1.4299,1.4299,1.4299,1.4299,1.4299,1.4299,1.4299,1.4299,1.4299,1.4299,1.4299,1.4299,1.4299,1.4299,1.4299,1.4299,1.4299,1.4299,1.4299,1.4299,1.4299,1.4299,1.4299,1.4299,1.4299,1.4299,1.4299,1.4299,1.4299,1.4299,1.4299,1.4299,1.4299,1.4299,1.4299,1.4299,1.4299,1.4299,1.4299,1.4299,1.4299,1.4299,1.4299,1.4299,1.4299,1.4299,1.4299,1.4299,1.4299,1.4299,1.4299,1.4299,1.4299,1.4299,1.4299,1.4299,1.4299,1.4299,1.4299,1.4299,1.4299,1.4299,1.4299,1.4299,1.4299,1.4299,1.4299,1.4299,1.4299,1.4299,1.4299,1.4299,1.4299,1.4299,1.4299,1.4299,1.4299,1.4299,1.4299,1.4299,1.4299,1.4299,1.4299,1.4299,1.4299,1.4299,1.4299,1.4299,1.4299,1.4299,1.4299,1.4299,1.4299,1.4299,1.4299,1.4299,1.4299,1.4299,1.4299,1.4299,1.4299,1.4299,1.4299,1.4299,1.4299,1.4299,1.4299,1.4299,1.4299,1.4299,1.4299,1.4299,1.4299,1.4299,1.4299,1.4299,1.4299,1.4299,1.4299,1.4299,1.4299,1.4299,1.4299,1.4299,1.4299,1.4299,1.4299,1.4299,1.4299,1.4299,1.4299,1.4299,1.4299,1.4299,1.4299,1.4299,1.4299,1.4299,1.4299,1.4299,1.4299,1.4299,1.4299,1.4299,1.4299,1.4299,1.4299,1.4299,1.4299,1.4299,1.4299,1.4299,1.4299,1.4299,1.4299,1.4299,1.4299,1.4299,1.4299,1.4299,1.4299,1.4299,1.4299,1.4299,1.4299,1.4299,1.4299,1.4299,1.4299,1.4299,1.4299,1.4299,1.4299,1.4299,1.4299,1.4299,1.4299,1.4299,1.4299,1.4299,1.4299,1.4299,1.4299,1.4299,1.4299,1.4299,1.4299,1.4299,1.4299,1.4299,1.4299,1.4299,1.4299,1.4299,1.4299,1.4299,1.4299,1.4299,1.4299,1.4299,1.4299,1.4299,1.4299,1.4299,1.4299,1.4299,1.4299,1.4299,1.4299,1.4299,1.4299,1.4299,1.4299,1.4299,1.4299,1.4299,1.4299,1.4299,1.4299,1.4299,1.4299,1.4299,1.4299,1.4299,1.4299,1.4299,1.4299,1.4299,1.4299,1.4299,1.4299,1.4299,1.4299,1.4299,1.4299,1.4299,1.4299,1.4299,1.4299,1.4299,1.4299,1.4299,1.4299,1.4299,1.4299,1.4299,1.4299,1.4299,1.4299,1.4299,1.4299,1.4299,1.4299,1.4299,1.4299,1.4299,1.4299,1.4299,1.4299,1.4299,1.4299,1.4299,1.4299,1.4299,1.4299,1.4299,1.4299,1.4299,1.4299,1.4299,1.4299,1.4299,1.4299,1.4299,1.4299,1.4299,1.4299,1.4299,1.4299,1.4299,1.4299,1.4299,1.4299,1.4299,1.4299,1.4299,1.4299,1.4299,1.4299,1.4299,1.4299,1.4299,1.4299,1.4299,1.4299,1.4299,1.4299,1.4299,1.4299,1.4299,1.4299,1.4299,1.4299,1.4299,1.4299,1.4299,1.4299,1.4299,1.4299,1.4299,1.4299,1.4299,1.4299,1.4299,1.4299,1.4299,1.4299,1.4299,1.4299,1.4299,1.4299,1.4299,1.4299,1.4299,1.4299,1.4299,1.4299,1.4299,1.4299,1.4299,1.4299,1.4299,1.4299,1.4299,1.4299,1.4299,1.4299,1.4299,1.4299,1.4299,1.4299,1.4299,1.4299,1.4299,1.4299,1.4299,1.4299,1.4299,1.4299,1.4299,1.4299,1.4299,1.4299,1.4299,1.4299,1.4299,1.4299,1.4299,1.4299,1.4299,1.4299,1.4299,1.4299,1.4299,1.4299,1.4299,1.4299,1.4299,1.4299,1.4299,1.4299,1.4299,1.4299,1.4299,1.4299,1.4299,1.4299,1.4299,1.4299,1.4299,1.4299,1.4299,1.4299,1.4299,1.4299,1.4299,1.4299,1.4299,1.4299,1.4299,1.4299,1.4299,1.4299,1.4299,1.4299,1.4299,1.4299,1.4299,1.4299,1.4299,1.4299,1.4299,1.4299,1.4299,1.4299,1.4299,1.4299,1.4299,1.4299,1.4299,1.4299,1.4299,1.4299,1.4299,1.4299,1.4299,1.4299,1.4299,1.4299,1.4299,1.4299,1.4299,1.4299,1.4299,1.4299,1.4299,1.4299,1.4299,1.4299,1.4299,1.4299,1.4299,1.4299,1.4299,1.4299,1.4299,1.4299,1.4299,1.4299,1.4299,1.4299,1.4299,1.4299,1.4299,1.4299,1.4299,1.4299,1.4299,1.4299,1.4299,1.4299,1.4299,1.4299,1.4299,1.4299,1.4299,1.4299,1.4299,1.4299,1.4299,1.4299,1.4299,1.4299,1.4299,1.4299,1.4299,1.4299,1.4299,1.4299,1.4299,1.4299,1.4299,1.4299,1.4299,1.4299,1.4299,1.4299,1.4299,1.4299,1.4299,1.4299,1.4299,1.4299,1.4299,1.4299,1.4299,1.4299,1.4299,1.4299,1.4299,1.4299,1.4299,1.4299,1.4299,1.4299,1.4299,1.4299,1.4299,1.4299,1.4299,1.4299,1.4299,1.4299,1.4299,1.4299,1.4299,1.4299,1.4299,1.4299,1.4299,1.4299,1.4299,1.4299,1.4299,1.4299,1.4299,1.4299,1.4299,1.4299,1.4299,1.4299,1.4299,1.4299,1.4299,1.4299,1.4299,1.4299,1.4299,1.4299,1.4299,1.4299,1.4299,1.4299,1.4299,1.4299,1.4299,1.4299,1.4299,1.4299,1.4299,1.4299,1.4299,1.4299,1.4299,1.4299,1.4299,1.4299,1.4299,1.4299,1.4299,1.4299,1.4299,1.4299,1.4299,1.4299,1.4299,1.4299,1.4299,1.4299,1.4299,1.4299,1.4299,1.4299,1.4299,1.4299,1.4299,1.4299,1.4299,1.4299,1.4299,1.4299,1.4299,1.4299,1.4299,1.4299,1.4299,1.4299,1.4299,1.4299,1.4299,1.4299,1.4299,1.4299,1.4299,1.4299,1.4299,1.4299,1.4299,1.4299,1.4299,1.4299,1.4299,1.4299,1.4299,1.4299,1.4299,1.4299,1.4299,1.4299,1.4299,1.4299,1.4299,1.4299,1.4299,1.4299,1.4299,1.4299,1.4299,1.4299,1.4299,1.4299,1.4299,1.4299,1.4299,1.4299,1.4299,1.4299,1.4299,1.4299,1.4299,1.4299,1.4299,1.4299,1.4299,1.4299,1.4299,1.4299,1.4299,1.4299,1.4299,1.4299,1.4299,1.4299,1.4299,1.4299,1.4299,1.4299,1.4299,1.4299,1.4299,1.4299,1.4299,1.4299,1.4299,1.4299,1.4299,1.4299,1.4299,1.4299,1.4299,1.4299,1.4299,1.4299,1.4299,1.4299,1.4299,1.4299,1.4299,1.4299,1.4299,1.4299,1.4299,1.4299,1.4299,1.4299,1.4299,1.4299,1.4299,1.4299,1.4299,1.4299,1.4299,1.4299,1.4299,1.4299,1.4299,1.4299,1.4299,1.4299,1.4299,1.4299,1.4299,1.4299,1.4299,1.4299,1.4299,1.4299,1.4299,1.4299,1.4299,1.4299,1.4299,1.4299,1.4299,1.4299,1.4299,1.4299,1.4299,1.4299,1.4299,1.4299,1.4299,1.4299,1.4299,1.4299,1.4299,1.4299,1.4299,1.4299,1.4299,1.4299,1.4299,1.4299,1.4299,1.4299,1.4299,1.4299,1.4299,1.4299,1.4299,1.4299,1.4299,1.4299,1.4299,1.4299,1.4299,1.4299,1.4299,1.4299,1.4299,1.4299,1.4299,1.4299,1.4299,1.4299,1.4299,1.4299,1.4299,1.4299,1.4299,1.4299,1.4299,1.4299,1.4299,1.4299,1.4299,1.4299,1.4299,1.4299,1.4299,1.4299,1.4299,1.4299,1.4299,1.4299,1.4299,1.4299,1.4299,1.4299,1.4299,1.4299,1.4299,1.4299,1.4299,1.4299,1.4299,1.4299,1.4299,1.4299,1.4299,1.4299,1.4299,1.4299,1.4299,1.4299,1.4299,1.4299,1.4299,1.4299,1.4299,1.4299,1.4299,1.4299,1.4299,1.4299,1.4299,1.4299,1.4299,1.4299,1.4299,1.4299,1.4299,1.4299,1.4299,1.4299,1.4299,1.4299,1.4299,1.4299,1.4299,1.4299,1.4299,1.4299,1.4299,1.4299,1.4299,1.4299,1.4299,1.4299,1.4299,1.4299,1.4299,1.4299,1.4299,1.4299,1.4299,1.4299,1.4299,1.4299,1.4299,1.4299,1.4299,1.4299,1.4299,1.4299,1.4299,1.4299,1.4299,1.4299,1.4299,1.4299,1.4299,1.4299,1.4299,1.4299,1.4299,1.4299,1.4299,1.4299,1.4299,1.4299,1.4299,1.4299,1.4299,1.4299,1.4299,1.4299,1.4299,1.4299,1.4299,1.4299,1.4299,1.4299,1.4299,1.4299,1.4299,1.4299,1.4299,1.4299,1.4299,1.4299,1.4299,1.4299,1.4299,1.4299,1.4299,1.4299,1.4299,1.4299,1.4299,1.4299,1.4299,1.4299,1.4299,1.4299,1.4299,1.4299,1.4299,1.4299,1.4299,1.4299,1.4299,1.4299,1.4299,1.4299,1.4299,1.4299,1.4299,1.4299,1.4299,1.4299,1.4299,1.4299,1.4299,1.4299,1.4299,1.4299,1.4299,1.4299,1.4299,1.4299,1.4299,1.4299,1.4299,1.4299,1.4299,1.4299,1.4299,1.4299,1.4299,1.4299,1.4299,1.4299,1.4299,1.4299,1.4299,1.4299,1.4299,1.4299,1.4299,1.4299,1.4299,1.4299,1.4299,1.4299,1.4299,1.4299,1.4299,1.4299,1.4299,1.4299,1.4299,1.4299,1.4299,1.4299,1.4299,1.4299,1.4299,1.4299,1.4299,1.4299,1.4299,1.4299,1.4299,1.4299,1.4299,1.4299,1.4299,1.4299,1.4299,1.4299,1.4299,1.4299,1.4299,1.4299,1.4299,1.4299,1.4299,1.4299,1.4299,1.4299,1.4299,1.4299,1.4299,1.4299,1.4299,1.4299,1.4299,1.4299,1.4299,1.4299,1.4299,1.4299,1.4299,1.4299,1.4299,1.4299,1.4299,1.4299,1.4299,1.4299,1.4299,1.4299,1.4299,1.4299,1.4299,1.4299,1.4299,1.4299,1.4299,1.4299,1.4299,1.4299,1.4299,1.4299,1.4299,1.4299,1.4299,1.4299,1.4299,1.4299,1.4299,1.4299,1.4299,1.4299,1.4299,1.4299,1.4299,1.4299,1.4299,1.4299,1.4299,1.4299,1.4299,1.4299,1.4299,1.4299,1.4299,1.4299,1.4299,1.4299,1.4299,1.4299,1.4299,1.4299,1.4299,1.4299,1.4299,1.4299,1.4299,1.4299,1.4299,1.4299,1.4299,1.4299,1.4299,1.4299,1.4299,1.4299,1.4299,1.4299,1.4299,1.4299,1.4299,1.4299,1.4299,1.4299,1.4299,1.4299,1.4299,1.4299,1.4299,1.4299,1.4299,1.4299,1.4299,1.4299,1.4299,1.4299,1.4299,1.4299,1.4299,1.4299,1.4299,1.4299,1.4299,1.4299,1.4299,1.4299,1.4299,1.4299,1.4299,1.4299,1.4299,1.4299,1.4299,1.4299,1.4299,1.4299,1.4299,1.4299,1.4299,1.4299,1.4299,1.4299,1.4299,1.4299,1.4299,1.4299,1.4299,1.4299,1.4299,1.4299,1.4299,1.4299,1.4299,1.4299,1.4299,1.4299,1.4299,1.4299,1.4299,1.4299,1.4299,1.4299,1.4299,1.4299,1.4299,1.4299,1.4299,1.4299,1.4299,1.4299,1.4299,1.4299,1.4299,1.4299,1.4299,1.4299,1.4299,1.4299,1.4299,1.4299,1.4299,1.4299,1.4299,1.4299,1.4299,1.4299,1.4299,1.4299,1.4299,1.4299,1.4299,1.4299,1.4299,1.4299,1.4299,1.4299,1.4299,1.4299,1.4299,1.4299,1.4299,1.4299,1.4299,1.4299,1.4299,1.4299,1.4299,1.4299,1.4299,1.4299,1.4299]},{"header":{"parameterUnit":"m.s-1","parameterCategory":1,"la1":30.6,"la2":28.766,"lo1":-90.7593,"lo2":-88.6598,"dy":0.0162,"dx":0.0183,"nx":116,"ny":114,"refTime":"2023-09-25T12:00:00:Z","depth":0,"parameterNumber":3,"parameterNumberName":"V-component_of_WINDS"},"data":[0.0,0.0,0.0,0.0,0.0,0.0,0.0,0.0,0.0,0.0,0.0,0.0,0.0,0.0,0.0,0.0,0.0,0.0,0.0,0.0,0.0,0.0,0.0,0.0,0.0,0.0,0.0,0.0,0.0,0.0,0.0,0.0,0.0,0.0,0.0,0.0,0.0,0.0,0.0,0.0,0.0,0.0,0.0,0.0,0.0,0.0,0.0,0.0,0.0,0.0,0.0,0.0,0.0,0.0,0.0,0.0,0.0,0.0,0.0,0.0,0.0,0.0,0.0,0.0,0.0,0.0,0.0,0.0,0.0,0.0,0.0,0.0,0.0,0.0,0.0,0.0,0.0,0.0,0.0,0.0,0.0,0.0,0.0,0.0,0.0,0.0,0.0,0.0,0.0,0.0,0.0,0.0,0.0,0.0,0.0,0.0,0.0,0.0,0.0,0.0,0.0,0.0,0.0,0.0,0.0,0.0,0.0,0.0,0.0,0.0,0.0,0.0,0.0,0.0,0.0,0.0,0.0,0.0,0.0,0.0,0.0,0.0,0.0,0.0,0.0,0.0,0.0,0.0,0.0,0.0,0.0,0.0,0.0,0.0,0.0,0.0,0.0,0.0,0.0,0.0,0.0,0.0,0.0,0.0,0.0,0.0,0.0,0.0,0.0,0.0,0.0,0.0,0.0,0.0,0.0,0.0,0.0,0.0,0.0,0.0,0.0,0.0,0.0,0.0,0.0,0.0,0.0,0.0,0.0,0.0,0.0,0.0,0.0,0.0,0.0,0.0,0.0,0.0,0.0,0.0,0.0,0.0,0.0,0.0,0.0,0.0,0.0,0.0,0.0,0.0,0.0,0.0,0.0,0.0,0.0,0.0,0.0,0.0,0.0,0.0,0.0,0.0,0.0,0.0,0.0,0.0,0.0,0.0,0.0,0.0,0.0,0.0,0.0,0.0,0.0,0.0,0.0,0.0,0.0,0.0,0.0,0.0,0.0,0.0,0.0,0.0,0.0,0.0,0.0,0.0,0.0,0.0,0.0,0.0,0.0,0.0,0.0,0.0,0.0,0.0,0.0,0.0,0.0,0.0,0.0,0.0,0.0,0.0,0.0,0.0,0.0,0.0,0.0,0.0,0.0,0.0,0.0,0.0,0.0,0.0,0.0,0.0,0.0,0.0,0.0,0.0,0.0,0.0,0.0,0.0,0.0,0.0,0.0,0.0,0.0,0.0,0.0,0.0,0.0,0.0,0.0,0.0,0.0,0.0,0.0,0.0,0.0,0.0,0.0,0.0,0.0,0.0,0.0,0.0,0.0,0.0,0.0,0.0,0.0,0.0,0.0,0.0,0.0,0.0,0.0,0.0,0.0,0.0,0.0,0.0,0.0,0.0,0.0,0.0,0.0,0.0,0.0,0.0,0.0,0.0,0.0,0.0,0.0,0.0,0.0,0.0,0.0,0.0,0.0,0.0,0.0,0.0,0.0,0.0,0.0,0.0,0.0,0.0,0.0,0.0,0.0,0.0,0.0,0.0,0.0,0.0,0.0,0.0,0.0,0.0,0.0,0.0,0.0,0.0,0.0,0.0,0.0,0.0,0.0,0.0,0.0,0.0,0.0,0.0,0.0,0.0,0.0,0.0,0.0,0.0,0.0,0.0,0.0,0.0,0.0,0.0,0.0,0.0,0.0,0.0,0.0,0.0,0.0,0.0,0.0,0.0,0.0,0.0,0.0,0.0,0.0,0.0,0.0,0.0,0.0,0.0,0.0,0.0,0.0,0.0,0.0,0.0,0.0,0.0,0.0,0.0,0.0,0.0,0.0,0.0,0.0,0.0,0.0,0.0,0.0,0.0,0.0,0.0,0.0,0.0,0.0,0.0,0.0,0.0,0.0,0.0,0.0,0.0,0.0,0.0,0.0,0.0,0.0,0.0,0.0,0.0,0.0,0.0,0.0,0.0,0.0,0.0,0.0,0.0,0.0,0.0,0.0,0.0,0.0,0.0,0.0,0.0,0.0,0.0,0.0,0.0,0.0,0.0,0.0,0.0,0.0,0.0,0.0,0.0,0.0,0.0,0.0,0.0,0.0,0.0,0.0,0.0,0.0,0.0,0.0,0.0,0.0,0.0,0.0,0.0,0.0,0.0,0.0,0.0,0.0,0.0,0.0,0.0,0.0,0.0,0.0,0.0,0.0,0.0,0.0,0.0,0.0,0.0,0.0,0.0,0.0,0.0,0.0,0.0,0.0,0.0,0.0,0.0,0.0,0.0,0.0,0.0,0.0,0.0,0.0,0.0,0.0,0.0,0.0,0.0,0.0,0.0,0.0,0.0,0.0,0.0,0.0,0.0,0.0,0.0,0.0,0.0,0.0,0.0,0.0,0.0,0.0,0.0,0.0,0.0,0.0,0.0,0.0,0.0,0.0,0.0,0.0,0.0,0.0,0.0,0.0,0.0,0.0,0.0,0.0,0.0,0.0,0.0,0.0,0.0,0.0,0.0,0.0,0.0,0.0,0.0,0.0,0.0,0.0,0.0,0.0,0.0,0.0,0.0,0.0,0.0,0.0,0.0,0.0,0.0,0.0,0.0,0.0,0.0,0.0,0.0,0.0,0.0,0.0,0.0,0.0,0.0,0.0,0.0,0.0,0.0,0.0,0.0,0.0,0.0,0.0,0.0,0.0,0.0,0.0,0.0,0.0,0.0,0.0,0.0,0.0,0.0,0.0,0.0,0.0,0.0,0.0,0.0,0.0,0.0,0.0,0.0,0.0,0.0,0.0,0.0,0.0,0.0,0.0,0.0,0.0,0.0,0.0,0.0,0.0,0.0,0.0,0.0,0.0,0.0,0.0,0.0,0.0,0.0,0.0,0.0,0.0,0.0,0.0,0.0,0.0,0.0,0.0,0.0,0.0,0.0,0.0,0.0,0.0,0.0,0.0,0.0,0.0,0.0,0.0,0.0,0.0,0.0,0.0,0.0,0.0,0.0,0.0,0.0,0.0,0.0,0.0,0.0,0.0,0.0,0.0,0.0,0.0,0.0,0.0,0.0,0.0,0.0,0.0,0.0,0.0,0.0,0.0,0.0,0.0,0.0,0.0,0.0,0.0,0.0,0.0,0.0,0.0,0.0,0.0,0.0,0.0,0.0,0.0,0.0,0.0,0.0,0.0,0.0,0.0,0.0,0.0,0.0,0.0,0.0,0.0,0.0,0.0,0.0,0.0,0.0,0.0,0.0,0.0,0.0,0.0,0.0,0.0,0.0,0.0,0.0,0.0,0.0,0.0,0.0,0.0,0.0,0.0,0.0,0.0,0.0,0.0,0.0,0.0,0.0,0.0,0.0,0.0,0.0,0.0,0.0,0.0,0.0,0.0,0.0,0.0,0.0,0.0,0.0,0.0,0.0,0.0,0.0,0.0,0.0,0.0,0.0,0.0,0.0,0.0,0.0,0.0,0.0,0.0,0.0,0.0,0.0,0.0,0.0,0.0,0.0,0.0,0.0,0.0,0.0,0.0,0.0,0.0,0.0,0.0,0.0,0.0,0.0,0.0,0.0,0.0,0.0,0.0,0.0,0.0,0.0,0.0,0.0,0.0,0.0,0.0,0.0,0.0,0.0,0.0,0.0,0.0,0.0,0.0,0.0,0.0,0.0,0.0,0.0,0.0,0.0,0.0,0.0,0.0,0.0,0.0,0.0,0.0,0.0,0.0,0.0,0.0,0.0,0.0,0.0,0.0,0.0,0.0,0.0,0.0,0.0,0.0,0.0,0.0,0.0,0.0,0.0,0.0,0.0,0.0,0.0,0.0,0.0,0.0,0.0,0.0,0.0,0.0,0.0,0.0,0.0,0.0,0.0,0.0,0.0,0.0,0.0,0.0,0.0,0.0,0.0,0.0,0.0,0.0,0.0,0.0,0.0,0.0,0.0,0.0,0.0,0.0,0.0,0.0,0.0,0.0,0.0,0.0,0.0,0.0,0.0,0.0,0.0,0.0,0.0,0.0,0.0,0.0,0.0,0.0,0.0,0.0,0.0,0.0,0.0,0.0,0.0,0.0,0.0,0.0,0.0,0.0,0.0,0.0,0.0,0.0,0.0,0.0,0.0,0.0,0.0,0.0,0.0,0.0,0.0,0.0,0.0,0.0,0.0,0.0,0.0,0.0,0.0,0.0,0.0,0.0,0.0,0.0,0.0,0.0,0.0,0.0,0.0,0.0,0.0,0.0,0.0,0.0,0.0,0.0,0.0,0.0,0.0,0.0,0.0,0.0,0.0,0.0,0.0,0.0,0.0,0.0,0.0,0.0,0.0,0.0,0.0,0.0,0.0,0.0,0.0,0.0,0.0,0.0,0.0,0.0,0.0,0.0,0.0,0.0,0.0,0.0,0.0,0.0,0.0,0.0,0.0,0.0,0.0,0.0,0.0,0.0,0.0,0.0,0.0,0.0,0.0,0.0,0.0,0.0,0.0,0.0,0.0,0.0,0.0,0.0,0.0,0.0,0.0,0.0,0.0,0.0,0.0,0.0,0.0,0.0,0.0,0.0,0.0,0.0,0.0,0.0,0.0,0.0,0.0,0.0,0.0,0.0,0.0,0.0,0.0,0.0,0.0,0.0,0.0,0.0,0.0,0.0,0.0,0.0,0.0,0.0,0.0,0.0,0.0,0.0,0.0,0.0,0.0,0.0,0.0,0.0,0.0,0.0,0.0,0.0,0.0,0.0,0.0,0.0,0.0,0.0,0.0,0.0,0.0,0.0,0.0,0.0,0.0,0.0,0.0,0.0,0.0,0.0,0.0,0.0,0.0,0.0,0.0,0.0,0.0,0.0,0.0,0.0,0.0,0.0,0.0,0.0,0.0,0.0,0.0,0.0,0.0,0.0,0.0,0.0,0.0,0.0,0.0,0.0,0.0,0.0,0.0,0.0,0.0,0.0,0.0,0.0,0.0,0.0,0.0,0.0,0.0,0.0,0.0,0.0,0.0,0.0,0.0,0.0,0.0,0.0,0.0,0.0,0.0,0.0,0.0,0.0,0.0,0.0,0.0,0.0,0.0,0.0,0.0,0.0,0.0,0.0,0.0,0.0,0.0,0.0,0.0,0.0,0.0,0.0,0.0,0.0,0.0,0.0,0.0,0.0,0.0,0.0,0.0,0.0,0.0,0.0,0.0,0.0,0.0,0.0,0.0,0.0,0.0,0.0,0.0,0.0,0.0,0.0,0.0,0.0,0.0,0.0,0.0,0.0,0.0,0.0,0.0,0.0,0.0,0.0,0.0,0.0,0.0,0.0,0.0,0.0,0.0,0.0,0.0,0.0,0.0,0.0,0.0,0.0,0.0,0.0,0.0,0.0,0.0,0.0,0.0,0.0,0.0,0.0,0.0,0.0,0.0,0.0,0.0,0.0,0.0,0.0,0.0,0.0,0.0,0.0,0.0,0.0,0.0,0.0,0.0,0.0,0.0,0.0,0.0,0.0,0.0,0.0,0.0,0.0,0.0,0.0,0.0,0.0,0.0,0.0,0.0,0.0,0.0,0.0,0.0,0.0,0.0,0.0,0.0,0.0,0.0,0.0,0.0,0.0,0.0,0.0,0.0,0.0,0.0,0.0,0.0,0.0,0.0,0.0,0.0,0.0,0.0,0.0,0.0,0.0,0.0,0.0,0.0,0.0,0.0,0.0,0.0,0.0,0.0,0.0,0.0,0.0,0.0,0.0,0.0,0.0,0.0,0.0,0.0,0.0,0.0,0.0,0.0,0.0,0.0,0.0,0.0,0.0,0.0,0.0,0.0,0.0,0.0,0.0,0.0,0.0,0.0,0.0,0.0,0.0,0.0,0.0,0.0,0.0,0.0,0.0,0.0,0.0,0.0,0.0,0.0,0.0,0.0,0.0,0.0,0.0,0.0,0.0,0.0,0.0,0.0,0.0,0.0,0.0,0.0,0.0,0.0,0.0,0.0,0.0,0.0,0.0,0.0,0.0,0.0,0.0,0.0,0.0,0.0,0.0,0.0,0.0,0.0,0.0,0.0,0.0,0.0,0.0,0.0,0.0,0.0,0.0,0.0,0.0,0.0,0.0,0.0,0.0,0.0,0.0,0.0,0.0,0.0,0.0,0.0,0.0,0.0,4.8379,4.8526,0.0,0.0,0.0,0.0,0.0,0.0,0.0,0.0,0.0,0.0,0.0,0.0,0.0,0.0,0.0,0.0,0.0,0.0,0.0,0.0,0.0,0.0,0.0,0.0,0.0,0.0,0.0,0.0,0.0,0.0,0.0,0.0,0.0,0.0,0.0,0.0,0.0,4.5883,4.5883,4.5883,4.5883,4.5039,4.4644,4.4644,0.0,0.0,0.0,0.0,0.0,0.0,0.0,0.0,0.0,0.0,0.0,0.0,0.0,0.0,0.0,0.0,0.0,0.0,0.0,0.0,0.0,0.0,0.0,0.0,0.0,0.0,0.0,0.0,0.0,0.0,0.0,0.0,0.0,0.0,0.0,0.0,0.0,0.0,0.0,0.0,0.0,0.0,0.0,0.0,0.0,0.0,0.0,0.0,0.0,0.0,0.0,0.0,0.0,0.0,0.0,0.0,0.0,0.0,0.0,0.0,0.0,0.0,0.0,0.0,0.0,0.0,0.0,0.0,0.0,0.0,5.0215,4.9994,0.0,0.0,0.0,0.0,0.0,0.0,0.0,0.0,0.0,0.0,0.0,0.0,0.0,0.0,0.0,0.0,0.0,0.0,0.0,0.0,0.0,0.0,0.0,4.5821,4.6033,4.6489,4.6543,4.6683,0.0,0.0,0.0,0.0,0.0,0.0,4.6548,4.6468,4.6423,4.6423,4.6333,4.6324,4.6324,4.6324,4.6324,4.6324,4.603,0.0,0.0,0.0,0.0,0.0,0.0,0.0,0.0,0.0,0.0,0.0,0.0,0.0,0.0,0.0,0.0,0.0,0.0,0.0,0.0,0.0,0.0,0.0,0.0,0.0,0.0,0.0,0.0,0.0,0.0,0.0,0.0,0.0,0.0,0.0,0.0,0.0,0.0,0.0,0.0,0.0,0.0,0.0,0.0,0.0,0.0,0.0,0.0,0.0,0.0,0.0,0.0,0.0,0.0,0.0,0.0,0.0,0.0,0.0,0.0,0.0,0.0,0.0,5.1646,5.1646,5.1646,5.1646,5.238,5.3544,5.2197,5.1646,5.1646,5.1646,0.0,0.0,0.0,0.0,0.0,0.0,0.0,0.0,0.0,0.0,0.0,0.0,0.0,0.0,0.0,0.0,0.0,0.0,0.0,0.0,4.6658,4.6735,4.6911,4.7378,4.7432,4.7342,4.7126,0.0,0.0,0.0,0.0,0.0,4.9048,4.8695,4.8496,4.8496,4.8154,4.7966,4.7966,4.7966,4.7966,4.7929,4.6507,4.5883,4.5883,0.0,0.0,0.0,0.0,0.0,0.0,0.0,0.0,0.0,0.0,0.0,0.0,0.0,0.0,0.0,0.0,0.0,0.0,0.0,0.0,0.0,0.0,0.0,0.0,0.0,0.0,0.0,0.0,0.0,0.0,0.0,0.0,0.0,0.0,0.0,0.0,0.0,0.0,0.0,0.0,0.0,4.8269,4.9013,0.0,0.0,0.0,0.0,0.0,0.0,0.0,0.0,0.0,0.0,0.0,0.0,0.0,5.2197,5.2884,5.3592,5.4289,5.4961,5.4961,5.4961,5.4961,5.4961,5.5071,5.5254,5.5071,0.0,5.4961,5.4961,0.0,0.0,0.0,0.0,0.0,0.0,0.0,0.0,0.0,0.0,0.0,0.0,0.0,0.0,0.0,0.0,0.0,0.0,0.0,0.0,0.0,4.7582,4.7852,4.8555,4.8621,4.8766,4.911,4.9651,0.0,0.0,0.0,5.0892,5.0892,5.0509,5.0171,4.9954,4.9808,4.9691,4.9691,4.9691,4.9691,4.9664,4.8967,4.8122,4.7241,4.6755,0.0,0.0,0.0,0.0,0.0,0.0,0.0,0.0,0.0,0.0,0.0,0.0,0.0,0.0,0.0,0.0,0.0,0.0,0.0,0.0,0.0,0.0,0.0,0.0,0.0,0.0,0.0,0.0,0.0,0.0,0.0,0.0,0.0,0.0,0.0,0.0,0.0,0.0,0.0,4.926,4.9848,5.0215,5.0582,5.0802,0.0,0.0,0.0,0.0,0.0,0.0,0.0,0.0,0.0,5.3482,5.4289,5.4876,5.5233,5.6014,5.6602,5.6943,5.6943,5.6943,5.6943,5.6943,5.7189,5.7618,5.7618,5.7886,5.8143,5.6356,5.5585,5.5585,0.0,0.0,0.0,0.0,5.6943,5.709,0.0,0.0,0.0,0.0,0.0,0.0,0.0,0.0,0.0,0.0,0.0,0.0,4.8394,4.8432,4.8779,4.9668,4.9745,5.0091,5.0938,5.1283,5.1541,5.1776,5.2119,5.2296,5.2296,5.1831,5.1313,5.0802,5.0802,5.0802,5.0802,5.0802,5.0802,5.0802,5.0802,5.0105,4.8884,4.8296,4.8039,4.8003,0.0,0.0,0.0,0.0,0.0,0.0,0.0,0.0,0.0,0.0,0.0,0.0,0.0,0.0,0.0,0.0,0.0,0.0,0.0,0.0,0.0,0.0,0.0,0.0,0.0,0.0,0.0,0.0,0.0,0.0,0.0,0.0,0.0,0.0,0.0,0.0,0.0,5.1096,5.1242,5.1683,5.172,5.1793,0.0,0.0,0.0,0.0,0.0,0.0,5.5879,5.5915,5.5989,5.6209,5.7005,5.7398,5.7398,5.8217,5.8621,5.8621,5.8621,5.8621,5.8621,5.8621,5.8951,5.9526,5.9526,5.9857,6.0199,5.7813,5.6833,5.6833,5.6833,5.6833,5.698,5.818,5.8621,5.8804,0.0,0.0,0.0,0.0,0.0,0.0,0.0,0.0,0.0,0.0,0.0,4.8432,4.924,4.9317,4.9707,5.0553,5.063,5.0976,5.1774,5.1875,5.2254,5.3067,5.3128,5.3123,5.3123,5.2354,5.159,5.0802,5.0802,5.0802,5.0802,5.0802,5.0802,5.0802,5.0802,5.0765,5.0655,5.0618,5.0618,5.0618,5.0582,0.0,0.0,0.0,0.0,0.0,0.0,0.0,0.0,0.0,0.0,0.0,0.0,0.0,0.0,0.0,0.0,0.0,0.0,0.0,0.0,0.0,0.0,0.0,0.0,0.0,0.0,0.0,0.0,0.0,0.0,0.0,0.0,0.0,0.0,0.0,0.0,0.0,0.0,5.4032,5.4216,0.0,0.0,0.0,0.0,5.5475,5.5511,5.5879,5.6701,5.6737,5.7079,5.785,5.8646,5.9086,5.9086,5.9893,6.0272,6.0272,6.0272,6.0272,6.0272,6.0272,6.0309,6.0346,6.0346,6.037,6.037,6.0236,6.0162,6.0162,6.0162,6.0162,6.0162,6.0236,6.0272,6.0309,0.0,0.0,0.0,0.0,0.0,0.0,0.0,0.0,4.8625,4.8894,4.9433,4.9899,5.0207,5.0245,5.0553,5.139,5.1467,5.1813,5.2697,5.3274,5.3703,5.401,5.4511,5.4693,5.4413,5.3895,5.3324,5.2752,5.2471,5.2333,5.2333,5.2333,5.2333,5.2333,5.2333,5.2333,5.226,5.1242,5.0802,5.0802,5.0802,5.0802,0.0,0.0,0.0,0.0,0.0,0.0,0.0,0.0,0.0,0.0,0.0,0.0,0.0,0.0,0.0,0.0,0.0,0.0,0.0,0.0,0.0,0.0,0.0,0.0,0.0,0.0,0.0,0.0,0.0,0.0,0.0,0.0,0.0,0.0,0.0,0.0,0.0,5.5108,5.5181,0.0,5.6308,5.6381,5.6785,5.7838,5.7912,5.8279,5.9049,5.9123,5.9245,5.9538,6.0309,6.0994,6.1508,6.2365,6.3025,6.3563,6.3563,6.3563,6.3563,6.3563,6.3563,6.3563,6.3563,6.3563,6.3563,6.3563,6.2316,6.0419,6.0419,6.0419,6.0456,6.097,6.1153,6.1263,0.0,0.0,0.0,0.0,0.0,0.0,0.0,0.0,4.9514,4.9784,5.0322,5.0707,5.0707,5.0938,5.1318,5.1846,5.2159,5.2697,5.3587,5.4164,5.4626,5.4895,5.5439,5.5493,5.5121,5.4701,5.4346,5.4031,5.3604,5.3632,5.4041,5.388,5.3947,5.4252,5.4081,5.3849,5.3544,5.2491,5.1867,5.161,5.161,5.161,5.1563,0.0,0.0,0.0,0.0,0.0,0.0,0.0,0.0,0.0,0.0,0.0,0.0,0.0,0.0,0.0,0.0,0.0,0.0,0.0,0.0,0.0,0.0,0.0,0.0,0.0,0.0,0.0,0.0,0.0,0.0,0.0,0.0,0.0,0.0,5.5842,5.6099,5.6393,5.665,5.7116,5.7948,5.8022,5.8462,5.9526,5.96,6.0077,6.1141,6.1215,6.1471,6.2022,6.2585,6.3099,6.3637,6.4237,6.4787,6.5288,6.5288,6.5288,6.5288,6.5288,6.5435,6.5705,6.5705,6.5852,6.6109,6.6109,6.4824,6.2805,6.2291,6.2059,6.2132,6.2658,6.2842,6.2915,0.0,0.0,0.0,0.0,0.0,0.0,4.9317,4.9433,4.9745,5.0592,5.0707,5.0707,5.0745,5.1428,5.1923,5.1962,5.2736,5.3626,5.4472,5.4549,5.4895,5.567,5.5708,5.5531,5.5172,5.4754,5.4583,5.4583,5.4123,5.4515,5.5716,5.5274,5.5491,5.6274,5.5839,5.5192,5.4436,5.4436,5.3995,5.3287,5.3214,5.3214,5.3104,0.0,0.0,0.0,0.0,0.0,0.0,0.0,0.0,0.0,0.0,0.0,0.0,0.0,0.0,0.0,0.0,0.0,0.0,0.0,0.0,0.0,0.0,0.0,0.0,0.0,0.0,0.0,0.0,0.0,0.0,0.0,0.0,0.0,5.5952,5.6418,5.7178,5.7997,5.8756,5.9563,6.037,6.0456,6.0493,6.0529,6.0529,6.1215,6.2793,6.2866,6.3637,6.5288,6.5325,6.5362,6.5398,6.5398,6.5411,6.5474,6.5448,6.5448,6.5474,6.5448,6.5888,6.6623,6.6623,6.7063,6.7774,6.7774,6.7774,6.7627,6.5999,6.5375,6.54,6.54,6.5413,6.5439,0.0,0.0,0.0,0.0,0.0,0.0,5.0207,5.0322,5.0438,5.0668,5.0707,5.0938,5.1505,5.1774,5.2428,5.3664,5.401,5.4472,5.5324,5.5362,5.5478,5.5708,5.5708,5.594,5.6476,5.6076,5.615,5.6759,5.6331,5.6304,5.6655,5.6522,5.6392,5.6293,5.6174,5.5807,5.5254,5.5254,5.5144,5.484,5.3654,5.3214,5.3177,0.0,0.0,0.0,0.0,0.0,0.0,0.0,0.0,0.0,0.0,0.0,0.0,0.0,0.0,0.0,0.0,0.0,0.0,0.0,0.0,0.0,0.0,0.0,0.0,0.0,0.0,0.0,0.0,0.0,0.0,0.0,5.9612,5.9391,5.8352,5.8902,5.9501,5.9722,5.9942,6.037,6.119,6.1814,6.2401,6.3025,6.3613,6.415,6.4591,6.4591,6.5068,6.6145,6.6182,6.6733,6.7894,6.7894,6.8431,6.9422,6.897,6.8997,6.941,6.897,6.8898,6.9119,6.9119,6.9229,6.9463,6.9463,6.9463,6.9279,6.765,6.7292,6.7627,6.7627,6.7907,6.8281,0.0,0.0,0.0,0.0,0.0,0.0,5.063,5.0707,5.0707,5.0707,5.0976,5.1395,5.1846,5.2544,5.3395,5.4395,5.4818,5.5208,5.567,5.5708,5.5862,5.6247,5.6247,5.6632,5.7517,5.7137,5.7217,5.7896,5.7472,5.7529,5.8025,5.7856,5.7691,5.7604,5.7387,5.6867,5.6088,5.6088,5.5915,5.5511,5.4583,5.4216,5.4216,5.4216,5.4216,5.4216,5.4216,5.4216,5.4216,5.4216,0.0,0.0,0.0,0.0,0.0,0.0,0.0,0.0,0.0,0.0,0.0,0.0,0.0,0.0,0.0,0.0,0.0,0.0,0.0,0.0,0.0,0.0,0.0,0.0,6.0676,6.086,6.0737,6.0811,6.1043,6.1361,6.1741,6.2254,6.3062,6.3563,6.404,6.4567,6.5338,6.5962,6.6292,6.6609,6.7173,6.7981,6.8017,6.8458,6.9376,6.9412,6.9814,7.063,7.0611,7.0772,7.1135,7.1112,7.143,7.2002,7.2002,7.2336,7.2918,7.2918,7.2918,7.2643,0.0,0.0,0.0,0.0,6.9539,7.0057,0.0,0.0,0.0,0.0,0.0,0.0,5.0707,5.0784,5.0822,5.0822,5.1548,5.2077,5.2197,5.3587,5.4549,5.4626,5.5285,5.5708,5.5708,5.5785,5.6209,5.6983,5.7093,5.7555,5.8429,5.8049,5.8081,5.8583,5.8272,5.87,5.9775,5.9471,5.946,5.9723,5.9328,5.8489,5.7354,5.7324,5.6824,5.6099,5.6022,5.5842,5.5585,5.5585,5.5585,5.5585,5.5585,5.5585,5.5585,5.5585,0.0,0.0,0.0,0.0,0.0,0.0,0.0,0.0,0.0,0.0,0.0,0.0,0.0,0.0,0.0,0.0,0.0,0.0,0.0,0.0,0.0,0.0,0.0,0.0,6.1337,6.2144,6.2829,6.2401,6.2291,6.3013,6.3759,6.453,6.5215,6.5472,6.5582,6.5582,6.6402,6.721,6.7921,6.8641,0.0,0.0,0.0,7.0505,7.0616,7.0785,7.0904,7.0948,7.1627,7.1959,7.2028,7.2696,7.3653,7.4848,7.4848,7.5578,7.6813,7.6813,7.6813,7.6421,7.2482,7.0948,7.0961,7.1004,7.1392,7.1862,0.0,0.0,0.0,0.0,0.0,0.0,5.0707,5.1241,5.1659,5.1659,5.2428,5.3236,5.3933,5.428,5.4741,5.5401,5.5593,5.5708,5.5708,5.6362,5.6824,5.6983,5.7665,5.8434,5.9242,5.9184,5.953,6.0319,6.092,6.1349,6.1595,6.2176,6.2268,6.1987,6.1901,6.1515,6.0905,6.0489,5.9892,5.909,5.868,5.7336,5.5585,5.5585,5.5585,5.5585,5.5585,5.5585,5.5585,5.5585,5.5585,5.5695,5.6345,5.6565,0.0,0.0,0.0,0.0,0.0,0.0,0.0,0.0,0.0,0.0,0.0,0.0,0.0,0.0,0.0,0.0,0.0,0.0,0.0,6.2242,6.3062,6.3662,6.3846,6.4273,6.4628,6.4811,6.4958,6.5141,6.5288,6.6476,6.726,6.726,6.8568,6.9449,6.9646,6.9779,7.0257,7.105,7.2159,7.3102,7.3796,7.492,7.5769,7.6245,7.5898,0.0,7.6452,7.6112,7.6103,7.6369,7.6369,7.655,7.6813,7.6813,7.6813,7.6759,7.639,7.6207,7.6268,7.6719,7.6952,7.7058,0.0,0.0,0.0,0.0,0.0,0.0,5.0707,5.1395,5.1885,5.1885,5.3044,5.401,5.4434,5.4857,5.5247,5.567,5.5708,5.6049,5.6934,5.7016,5.7363,5.8209,5.8665,5.9281,6.0127,6.0165,6.0589,6.1441,6.1903,6.2326,6.2704,6.3121,6.3065,6.2597,6.2597,6.2333,6.1869,6.1657,6.117,6.0559,5.9891,5.8733,5.7373,5.6943,5.6796,5.6796,5.6796,5.6796,5.6796,5.6796,5.6796,5.687,5.7262,5.7691,5.8095,0.0,0.0,0.0,0.0,0.0,0.0,0.0,0.0,0.0,0.0,0.0,0.0,0.0,0.0,6.1728,6.2144,0.0,6.2989,6.3392,6.4163,6.4824,6.5228,6.5999,6.6366,6.5962,6.6256,6.6659,6.705,6.8201,6.8912,6.8912,7.0036,7.0881,7.1284,7.1991,7.2761,7.3599,7.4574,7.53,7.5739,7.644,7.6955,7.7255,7.7349,7.7549,7.7831,7.7932,7.8154,7.8459,7.8459,7.8623,7.8942,7.8942,7.8942,7.8971,7.9274,7.8511,7.7296,7.7551,7.7829,7.8096,0.0,0.0,0.0,0.0,0.0,0.0,0.0,5.1548,5.2159,5.2159,5.3664,5.4741,5.4741,5.5324,5.5785,5.5939,5.5939,5.6626,5.8198,5.7786,5.8094,5.9435,5.9665,6.0089,6.0787,6.0787,6.1133,6.1864,6.2172,6.2666,6.3314,6.366,6.3597,6.325,6.325,6.3039,6.2678,6.2449,6.2062,6.1498,6.0656,5.9971,5.938,5.8731,5.8364,5.8217,5.8217,5.8327,5.8474,5.8474,5.8474,5.8474,5.8474,5.8902,5.9416,5.9416,5.9893,0.0,0.0,0.0,0.0,0.0,0.0,0.0,0.0,6.1814,6.2034,6.2683,6.2939,6.305,6.305,6.3759,6.431,6.431,6.5154,6.5999,6.6623,6.7554,6.7921,6.7283,6.7774,6.8435,6.9082,6.9853,7.0403,7.055,7.1321,7.2149,7.3128,7.4272,7.5282,7.6057,7.6817,7.7214,7.7214,7.751,7.7638,7.7638,7.8289,7.8582,7.862,7.9253,7.9837,8.0306,8.0306,8.0608,8.1093,8.1093,8.1093,8.1093,8.1093,7.9678,7.7638,7.7638,7.794,7.8346,0.0,0.0,0.0,0.0,0.0,0.0,0.0,0.0,5.3044,5.3044,5.4511,5.5555,5.5555,5.567,5.6016,5.6786,5.6863,5.7286,5.8236,5.8896,5.9319,5.9473,6.0242,6.071,6.0787,6.0787,6.0864,6.0941,6.2435,6.3198,6.3314,6.4897,6.5571,6.5538,6.5538,6.5481,6.5401,6.4482,6.3644,6.2805,6.1837,6.0969,6.0272,6.0162,5.9673,5.9086,5.9086,5.9526,6.0126,6.0126,6.0126,6.0126,6.0126,6.0187,6.026,6.026,6.0334,6.0566,6.1263,6.1998,6.2536,6.2536,6.2536,6.2572,0.0,6.2683,6.2683,6.2793,6.3429,6.3943,6.3943,6.4604,6.5191,6.5191,6.6439,6.748,6.7554,6.8875,6.9779,6.9706,6.9779,6.9853,6.9963,7.0697,7.1454,7.2165,7.2973,7.4024,7.5434,7.5701,7.6069,7.6689,7.7979,7.8675,7.8675,7.9965,8.0611,8.0611,8.0726,8.0764,8.0764,8.0833,8.0934,8.0983,8.0983,8.1007,8.1093,8.1093,8.1093,8.1093,8.1093,8.0884,8.0611,8.0611,8.0643,8.0722,0.0,0.0,0.0,0.0,0.0,0.0,0.0,0.0,0.0,5.3895,5.4972,5.5708,5.5708,5.5708,5.6247,5.7627,5.7286,5.7786,5.9627,5.9588,5.9742,6.0242,6.0594,6.0787,6.0787,6.0787,6.1056,6.1556,6.2249,6.2858,6.3314,6.4551,6.5128,6.5166,6.5667,6.5904,6.5885,6.5463,6.4739,6.3785,6.2858,6.1927,6.1043,6.0566,6.0493,6.0529,6.0077,6.0114,0.0,6.0419,6.0419,6.0419,6.0419,6.0713,6.108,6.108,6.1447,6.1875,6.2218,6.2536,6.2793,6.2793,6.2793,6.2793,6.2793,6.3196,6.3576,6.3576,6.4237,6.4787,6.4787,6.5448,6.6145,6.6623,6.765,6.8693,6.9517,7.0605,7.1309,7.1309,7.246,7.262,7.0965,7.2276,7.3347,7.368,7.4831,7.597,7.7051,7.7463,7.7987,7.8711,7.9673,8.0187,8.0187,8.0783,8.1093,8.1093,8.1093,8.1093,8.1093,8.1093,8.1093,8.1093,8.1093,8.1093,8.1093,8.1093,8.1093,8.1093,8.1093,8.1093,8.1093,8.1093,8.1093,8.1093,0.0,0.0,0.0,0.0,0.0,0.0,0.0,0.0,0.0,0.0,5.5208,5.5708,5.5708,5.5708,5.6395,5.8159,5.7703,5.8325,6.0633,6.0204,6.0127,6.0781,6.0787,6.0787,6.0787,6.0787,6.1095,6.1749,6.1979,6.2403,6.2974,6.4089,6.4589,6.4628,6.5513,6.5904,6.5897,6.5723,6.5245,6.4525,6.3606,6.279,6.2068,6.1324,6.141,6.1814,6.1006,6.086,6.1068,6.1068,6.1068,6.1068,6.1068,6.1447,6.1924,6.1924,6.2352,6.2793,6.2793,6.2793,6.2793,6.2793,6.2976,6.316,6.316,6.3833,6.442,6.442,6.5081,6.5618,6.5618,6.6292,6.71,6.7921,6.8854,6.9908,7.1144,7.2147,7.2865,7.3089,7.4512,7.4781,7.2982,7.4286,7.5284,7.5533,7.6552,7.7548,7.8512,7.8985,7.96,8.0361,8.0855,8.1093,8.1093,8.1093,8.1093,8.1093,8.1093,8.1093,8.1093,8.1093,8.1093,8.1093,8.1093,8.1246,8.1439,8.1439,8.1554,8.1785,8.1785,8.1785,8.1785,8.1785,8.1516,8.1093,0.0,0.0,0.0,0.0,0.0,0.0,0.0,0.0,0.0,0.0,0.0,0.0,0.0,5.5708,5.6395,5.8159,5.828,5.8973,6.071,6.0787,6.0781,6.0787,6.0787,6.0787,6.0787,6.0787,6.0825,6.0825,6.1672,6.2095,6.2172,6.382,6.4589,6.4628,6.5513,6.5904,6.5878,6.5328,6.5107,6.4973,6.3981,6.3582,6.3494,6.2928,6.2756,6.2646,6.1851,6.2071,6.2719,6.2719,6.2719,6.2719,6.2719,6.2756,6.2756,6.2756,6.2793,6.2793,6.2793,6.2793,6.2793,6.2793,6.3429,6.4066,6.4066,6.4677,6.5251,6.5251,6.5888,6.6476,6.6476,6.71,6.7921,6.8752,7.0048,7.1231,7.2063,7.3348,7.4546,7.5312,7.5447,7.5787,7.6568,7.6704,7.7081,7.784,7.7927,7.8561,7.9952,8.0029,8.0379,8.1061,8.1085,8.1093,8.1093,8.1093,8.1093,8.1093,8.1093,8.1093,8.1093,8.1093,8.1093,8.1093,8.1093,8.1554,8.2247,8.2247,8.2747,8.3524,8.3524,8.3524,8.3524,8.3524,8.2485,8.1093,0.0,0.0,0.0,0.0,0.0,0.0,0.0,0.0,0.0,0.0,0.0,0.0,0.0,0.0,0.0,0.0,5.8313,5.9011,6.071,6.0787,6.0787,6.0787,6.0787,6.0787,6.0787,6.0787,6.0787,6.0787,6.1095,6.1518,6.2133,6.3205,6.4051,6.4628,6.5513,6.5697,6.5381,6.5169,6.4722,6.4079,6.3745,6.3374,6.311,6.3273,6.3317,6.3317,0.0,6.2863,6.2855,6.3215,6.3073,6.2867,6.3227,6.3098,6.2793,6.2793,6.2793,6.2793,6.2793,6.3196,6.3649,6.3649,6.4273,6.4897,6.4897,6.5521,6.6109,6.6109,6.7035,6.7815,6.7815,6.8348,6.9222,7.0581,7.1201,7.2342,7.4661,7.5385,7.5997,7.6844,7.7787,7.8319,7.8186,7.8194,7.8308,7.8565,7.9514,8.0258,8.075,8.0758,8.0863,8.1093,8.1093,8.1093,8.1093,8.1093,8.1093,8.1093,8.1093,8.1362,8.19,8.19,8.2208,8.2747,8.2747,8.2909,8.3178,8.3178,8.3332,8.3601,8.3601,8.3601,8.3601,8.3601,8.3255,8.2747,0.0,0.0,0.0,0.0,0.0,0.0,0.0,0.0,0.0,0.0,0.0,0.0,0.0,0.0,0.0,0.0,0.0,5.9011,6.071,6.0787,6.0787,6.0787,6.0787,6.0787,6.0787,6.0787,6.0787,6.0787,6.0787,6.1248,6.2139,6.2935,6.3775,6.4628,6.5513,6.559,6.5107,6.5107,6.4739,6.4129,6.3937,6.376,6.3632,6.3829,6.3892,0.0,6.3892,6.3554,6.3132,6.3487,6.325,6.2904,6.3431,6.3238,6.2793,6.2793,6.2793,6.2866,6.316,6.3686,6.4176,6.4457,6.5118,6.5742,6.5742,6.6366,6.6996,6.7168,6.7888,6.8544,6.8762,6.9064,6.9841,7.1549,7.194,7.3098,7.5969,7.6579,7.7152,7.83,7.9234,7.976,7.9683,7.9695,7.9695,7.9695,8.0564,8.1093,8.1093,8.1093,8.1093,8.1093,8.1093,8.1093,8.1093,8.14,8.1708,8.1977,8.1977,8.2247,8.2747,8.2747,8.3062,8.3601,8.3601,8.3793,8.4055,8.4055,8.4209,8.4478,8.4478,8.4478,8.4478,8.4478,8.4478,8.4409,0.0,0.0,0.0,0.0,0.0,0.0,0.0,0.0,0.0,0.0,0.0,0.0,0.0,0.0,0.0,0.0,0.0,0.0,6.071,6.0787,6.0787,6.0787,6.0787,6.0787,6.0787,6.0787,6.0787,6.0787,6.0825,6.1325,6.2172,6.2974,6.3814,6.4705,6.5513,6.559,6.5107,6.5107,6.5091,6.5035,6.4572,6.4661,6.5035,6.459,6.4417,6.4417,6.4417,6.4079,6.3626,6.3659,6.3305,6.2953,6.3419,6.3215,6.2805,6.283,6.2854,6.3062,6.392,6.4165,6.4433,6.5191,6.5988,6.6602,6.6602,6.7229,6.7917,6.844,6.8544,6.875,6.9251,6.9373,6.9922,7.1594,7.2329,7.3542,7.6128,7.7004,7.7977,7.9669,7.9854,8.0208,8.1016,8.1093,8.1093,8.1093,8.1093,8.1093,8.1093,8.1093,8.1093,8.1093,8.1131,8.117,8.117,8.1939,8.2793,8.3601,8.3601,8.364,8.3678,8.3678,8.3678,8.3717,8.3717,8.4209,8.497,8.497,8.5393,8.6094,8.6094,8.6094,8.6094,8.6094,8.6094,8.5863,0.0,0.0,0.0,0.0,0.0,0.0,0.0,0.0,0.0,0.0,0.0,0.0,0.0,0.0,0.0,0.0,0.0,0.0,6.071,6.0787,6.0787,6.0787,6.0787,6.0787,6.0787,6.0787,6.0787,6.0787,6.1441,6.221,6.3006,6.3852,6.4743,6.559,6.5788,6.559,6.5107,6.5107,6.4883,6.4554,6.4435,6.4463,6.459,6.4825,6.4908,6.4908,6.4908,6.4608,6.4236,6.4608,6.4407,6.3892,6.3215,6.2892,6.2892,6.3296,6.3577,6.3909,6.4456,6.5238,6.5925,6.6145,6.7084,6.7974,6.7974,6.8441,6.8924,6.9064,6.9433,6.9738,6.9865,7.0233,7.1061,7.2785,7.3185,7.4367,7.7523,7.8116,7.883,8.0554,8.0785,8.0862,8.1093,8.1093,8.1093,8.1093,8.1093,8.1093,8.1093,8.1093,8.1093,8.1093,8.167,8.1977,8.1977,8.2832,8.337,8.3601,8.3601,8.3939,8.4555,8.4555,8.4901,8.5478,8.5478,8.5593,8.5786,8.5786,8.5901,8.6094,8.6094,8.6094,8.6094,8.6094,8.6094,8.6055,0.0,0.0,0.0,0.0,0.0,0.0,0.0,0.0,0.0,0.0,0.0,0.0,0.0,0.0,0.0,0.0,0.0,0.0,0.0,6.0787,6.0787,6.0787,6.0787,6.0787,6.0787,6.0787,6.0979,6.1364,6.1479,6.232,6.3852,6.3968,6.4705,6.5904,6.5904,6.559,6.5107,6.5107,6.4971,0.0,0.0,6.4854,6.5097,6.5366,6.5446,6.5446,6.5446,6.5115,6.4643,6.4227,6.4079,6.3913,6.3049,6.2793,6.2966,6.391,6.4299,6.4668,6.5626,6.6354,6.69,6.6996,6.7777,6.8511,6.8511,6.8902,6.9373,6.9607,6.9883,7.0162,7.0424,7.0681,7.1475,7.3238,7.3507,7.4661,7.8023,7.8484,7.9138,8.09,8.1093,8.1093,8.1093,8.1093,8.1093,8.1093,8.1093,8.1093,8.1093,8.1439,8.1631,8.1631,8.2439,8.3054,8.3439,8.3939,8.4362,8.4709,8.4709,8.4939,8.5431,8.5431,8.567,8.6094,8.6094,8.6094,8.6094,8.6094,8.6094,8.6094,8.6094,8.6094,8.6094,8.6094,8.6094,8.6094,0.0,0.0,0.0,0.0,0.0,0.0,0.0,0.0,0.0,0.0,0.0,0.0,0.0,0.0,0.0,0.0,0.0,0.0,0.0,0.0,6.0787,6.0787,6.0787,6.0787,6.0787,6.0787,6.1172,6.1941,6.1287,6.2166,6.4397,6.3775,6.4359,6.5904,6.5904,6.5656,6.5223,6.5223,6.5223,6.5223,6.5223,6.5439,6.5795,0.0,6.5795,6.5788,6.5703,6.5366,6.4705,6.3282,6.3156,6.3509,6.2965,6.2793,6.3076,6.449,6.4979,6.5389,6.6872,6.7356,6.7501,6.7652,6.8173,6.8602,6.8602,6.9074,6.9645,7.0112,7.0195,7.0346,7.0805,7.0975,7.1629,7.3238,7.3584,7.4776,7.8061,7.8484,7.9138,8.09,8.1093,8.1093,8.1093,8.1208,8.1246,8.1246,8.1362,8.1362,8.1285,8.2016,8.2516,8.2631,8.3362,8.417,8.5055,8.5047,8.5401,8.6094,8.6094,8.6094,8.6094,8.6094,8.6094,8.6094,8.6094,8.6094,8.6094,8.6094,8.6094,8.6094,8.6094,8.6094,8.6094,8.6094,8.6094,8.6094,0.0,0.0,0.0,0.0,0.0,0.0,0.0,0.0,0.0,0.0,5.5708,5.5708,0.0,0.0,0.0,0.0,0.0,0.0,0.0,0.0,0.0,6.0787,6.0787,6.0787,6.0787,6.0787,6.0864,6.1018,6.1595,6.2441,6.3545,6.4128,6.4936,6.5904,6.5904,6.5865,6.5775,6.5775,6.5775,6.5775,6.5775,6.5556,6.5253,6.5253,0.0,0.0,6.4812,6.4313,6.3766,6.305,6.3156,6.3509,6.2965,6.2793,6.3076,6.4419,6.5318,6.6075,6.6986,6.7743,6.8207,6.78,6.844,6.9158,6.9158,6.9939,7.0645,7.0755,7.0762,7.0784,7.0885,7.1475,7.2322,7.3315,7.4046,7.5438,7.8138,7.8484,7.9138,8.09,8.1093,8.1093,8.1093,8.1708,8.2093,8.2093,8.2747,8.287,8.2131,8.2909,8.3708,8.4439,8.4593,8.5055,8.5901,8.5893,8.5978,8.6094,8.6094,8.6094,8.6094,8.6094,8.6094,8.6094,8.6094,8.6094,8.6094,8.6094,8.6094,8.6094,8.6094,8.6094,8.6094,8.6094,8.6094,8.6094,0.0,0.0,0.0,0.0,0.0,0.0,0.0,5.5708,5.5708,5.5708,5.5708,5.5708,5.5708,5.5708,5.6055,0.0,0.0,0.0,0.0,0.0,0.0,6.0787,6.0787,6.0787,6.0787,6.0787,6.1018,6.1479,0.0,6.2281,6.3968,6.3929,6.4628,6.5904,6.5904,6.5904,6.5904,6.5904,6.5723,6.5527,6.5788,6.5417,6.4757,6.5019,0.0,0.0,6.4158,6.3819,6.3531,6.2978,6.2965,6.3132,6.2892,6.2793,6.3076,6.443,6.5635,6.663,6.7138,6.8253,6.9148,6.8333,6.8913,6.972,6.972,7.0322,7.0898,7.0898,7.0898,7.1052,7.1475,7.1905,7.2629,7.3892,7.443,7.5592,7.8138,7.8484,7.9138,8.09,8.1093,8.1093,8.1093,8.1823,8.2285,8.2285,8.3516,8.3901,8.3024,8.3785,8.467,8.5517,8.5517,8.5709,8.6094,8.6094,8.6094,8.6094,8.6094,8.6094,8.6094,8.6094,8.6094,8.6094,8.6094,8.6094,8.6094,8.6094,8.6363,8.6786,8.6786,8.7055,8.744,8.744,8.744,8.744,0.0,0.0,0.0,0.0,0.0,0.0,0.0,5.5577,5.5599,5.5698,5.5708,5.5708,5.5708,5.5708,5.5978,0.0,0.0,0.0,0.0,0.0,0.0,0.0,0.0,0.0,6.0787,0.0,0.0,6.1826,6.1133,0.0,0.0,0.0,0.0,0.0,6.582,6.5904,6.5897,6.5781,6.5506,0.0,0.0,6.5049,6.4255,0.0,0.0,0.0,0.0,6.3531,6.3351,6.2929,6.2793,6.2793,6.2793,6.2793,6.3051,6.4366,6.564,6.6706,6.7165,6.851,6.9628,6.8864,6.9403,7.0103,7.0103,7.0509,7.0898,7.0898,7.1052,7.1398,7.2059,7.2482,7.3168,7.4469,7.4861,7.5784,7.8176,7.8484,7.9138,8.09,8.1093,8.117,8.1323,8.2093,8.267,8.2824,8.4286,8.4863,8.417,8.4786,8.544,8.6094,8.6094,8.6094,8.6094,8.6094,8.6094,8.6094,8.6094,8.6094,8.6094,8.6094,8.6094,8.6094,8.6094,8.6209,8.6363,8.6363,8.6901,8.7671,8.7671,8.8094,8.8718,8.8718,8.8718,8.8718,0.0,0.0,0.0,0.0,0.0,0.0,0.0,5.516,5.5275,5.5632,5.5708,5.5708,5.5708,5.5708,5.5747,0.0,0.0,0.0,0.0,0.0,0.0,0.0,0.0,0.0,0.0,0.0,0.0,6.0941,6.0825,0.0,0.0,0.0,0.0,0.0,0.0,6.5904,6.5878,6.5396,0.0,0.0,0.0,0.0,0.0,0.0,0.0,0.0,0.0,6.3296,6.2867,6.2818,6.2793,6.2793,6.2793,6.2793,6.2989,6.3921,6.4908,6.5932,6.7005,6.8085,6.8976,6.9184,6.9673,7.0103,7.0103,7.0509,7.0898,7.0898,7.1514,7.2098,7.2175,7.3437,7.4514,7.4661,7.5361,7.6476,7.8253,7.8484,7.9138,8.09,8.1093,8.14,8.2131,8.2986,8.3824,8.4593,8.547,8.594,8.5863,8.594,8.6017,8.6094,8.6094,8.6094,8.6094,8.6094,8.6094,8.6094,8.6094,8.6094,8.6094,8.6094,8.6094,8.6094,8.6094,8.6555,8.7286,8.7286,8.7786,8.8564,8.8564,8.8641,8.8718,8.8718,8.8718,8.8718,0.0,0.0,0.0,0.0,0.0,0.0,5.5053,5.5326,5.5429,5.5363,5.5356,5.5237,5.4988,5.496,5.5173,5.5676,0.0,0.0,0.0,0.0,0.0,0.0,0.0,0.0,0.0,0.0,6.0653,6.0371,6.0371,0.0,0.0,0.0,0.0,0.0,0.0,6.5425,6.541,6.5177,0.0,0.0,0.0,0.0,0.0,0.0,0.0,0.0,0.0,0.0,6.2793,6.2793,6.2793,6.2793,6.2793,6.2793,6.2866,6.3196,6.4978,6.6783,6.664,6.8262,7.0034,6.9825,7.017,7.06,7.06,7.0755,7.0898,7.0898,7.1591,7.236,7.2899,7.393,7.4853,7.5399,7.5784,7.6592,7.8253,7.8484,7.9138,8.09,8.1093,8.14,8.2208,8.3101,8.417,8.5517,8.594,8.6094,8.6094,8.6094,8.6094,8.6094,8.6094,8.6094,8.6094,8.6094,8.6094,8.6094,8.6094,8.6094,8.6094,8.6094,8.6094,8.6132,8.6671,8.7094,8.744,8.7979,8.8671,8.944,8.944,8.9748,9.021,9.021,9.021,9.021,0.0,0.0,0.0,0.0,0.0,5.4238,5.4633,5.4967,5.5076,5.4933,5.4912,5.4804,5.4516,5.4371,5.4586,5.5269,5.6727,0.0,0.0,0.0,0.0,0.0,0.0,0.0,0.0,0.0,6.045,6.011,6.011,6.0174,0.0,0.0,6.2265,6.3558,0.0,0.0,0.0,0.0,0.0,0.0,0.0,0.0,0.0,0.0,0.0,0.0,0.0,0.0,0.0,0.0,0.0,6.2793,6.2793,6.2929,6.3039,6.3149,6.4983,6.6949,6.6762,6.8566,7.0529,7.0371,7.0622,7.0898,7.0898,7.0898,7.0975,7.1245,7.1975,7.2822,7.3699,7.4546,7.5284,7.5899,7.6015,7.6592,7.8253,7.8484,7.9138,8.09,8.1093,8.1516,8.2593,8.3678,8.4824,8.6017,8.6094,8.6094,8.6094,8.6094,8.6094,8.6094,8.6094,8.6094,8.6094,8.6094,8.6094,8.6094,8.6094,8.6094,8.6094,8.6094,8.6094,8.617,8.7017,8.7555,8.7863,8.8709,8.9556,9.0278,9.0278,9.0663,9.121,9.121,9.121,9.121,0.0,0.0,0.0,0.0,0.0,0.0,5.3758,5.3805,5.3977,5.4436,5.453,5.4492,5.4484,5.4083,5.3995,5.446,5.6396,0.0,0.0,0.0,0.0,0.0,0.0,0.0,0.0,0.0,6.011,6.011,6.011,5.9862,5.9427,6.0283,6.141,6.262,0.0,0.0,0.0,0.0,0.0,0.0,0.0,0.0,0.0,0.0,0.0,0.0,0.0,0.0,0.0,0.0,0.0,0.0,0.0,6.3156,6.3684,6.3996,6.48,6.5983,6.7644,6.8874,6.9898,7.0699,7.0898,7.0898,7.0898,7.0898,7.1129,7.2021,7.2899,7.3738,7.4546,7.5399,7.5976,7.6015,7.6015,7.6592,7.8253,7.8484,7.9138,8.09,8.1093,8.1747,8.3409,8.5093,8.6094,8.6094,8.6094,8.6094,8.6094,8.6094,8.6094,8.6094,8.6094,8.6094,8.6094,8.6094,8.6094,8.6094,8.6094,8.6094,8.6094,8.6094,8.6094,8.617,8.7017,8.7902,8.8756,8.9556,9.0393,9.121,9.121,9.121,9.121,9.121,9.121,9.121,0.0,0.0,0.0,0.0,0.0,0.0,0.0,5.4066,5.4213,5.4039,5.4022,5.3934,5.3624,5.3464,5.3546,5.3977,5.5679,0.0,0.0,0.0,0.0,0.0,0.0,0.0,0.0,0.0,5.9458,5.913,5.913,5.8903,5.845,5.9302,6.04,6.1657,6.2316,6.315,0.0,0.0,0.0,0.0,0.0,0.0,6.2793,0.0,0.0,0.0,0.0,0.0,0.0,0.0,0.0,0.0,0.0,0.0,0.0,6.5159,6.6176,6.7125,6.7893,6.9264,7.0591,7.0821,7.0898,7.0898,7.0898,7.0898,7.1168,7.2021,7.2899,7.3738,7.4546,7.5399,7.6015,7.6015,7.6015,7.6592,7.8253,7.8484,7.9138,8.09,8.2093,8.3024,8.3563,8.5132,8.6094,8.6094,8.6094,8.6094,8.6094,8.6094,8.6094,8.6094,8.6094,8.6094,8.6094,8.6094,8.6094,8.6094,8.6094,8.6094,8.6094,8.6094,8.644,8.7055,8.7902,8.8748,8.9594,9.0441,9.0941,9.121,9.121,9.121,9.121,9.121,9.121,9.121,0.0,0.0,0.0,0.0,0.0,0.0,0.0,5.3814,5.3897,5.3614,5.3565,5.3484,5.322,5.3214,5.3424,5.399,5.5262,0.0,0.0,0.0,0.0,0.0,0.0,0.0,0.0,5.8999,5.9009,5.8713,5.8713,5.8471,5.8033,5.8829,5.991,6.123,6.1823,6.2651,0.0,0.0,0.0,0.0,0.0,0.0,6.2793,0.0,0.0,0.0,0.0,0.0,0.0,0.0,0.0,0.0,0.0,0.0,0.0,0.0,6.6899,6.7923,6.8649,6.9846,7.0898,7.0898,7.0898,7.0898,7.0898,7.0898,7.1245,7.2437,7.3129,7.3853,7.4976,7.563,7.6015,7.6015,7.6015,7.6592,7.8253,7.8484,7.9138,8.09,8.2593,8.3601,8.3601,8.5132,8.6094,8.6094,8.6094,8.6094,8.6094,8.6094,8.6094,8.6094,8.6094,8.6094,8.6094,8.6094,8.6094,8.6094,8.6094,8.6094,8.6094,8.6094,8.6594,8.744,8.8333,8.9171,0.0,9.0825,9.121,9.121,9.121,9.121,9.121,9.121,9.121,9.121,0.0,0.0,0.0,0.0,0.0,0.0,0.0,5.3214,5.3214,5.3214,5.3214,5.3214,5.3214,5.3251,5.3581,5.4326,0.0,0.0,0.0,0.0,0.0,0.0,0.0,0.0,5.8642,5.8662,5.8662,5.8662,5.8662,5.8429,5.8033,5.8829,5.9888,6.1146,6.1465,6.2335,0.0,0.0,0.0,0.0,0.0,0.0,0.0,0.0,0.0,0.0,0.0,0.0,0.0,0.0,0.0,0.0,0.0,0.0,0.0,0.0,0.0,0.0,0.0,7.0517,7.0898,7.0898,7.0898,7.0898,7.0898,7.0937,0.0,7.3161,7.3546,7.4084,7.5707,7.6015,7.6015,7.6015,7.6015,7.6592,7.8253,7.86,7.9292,8.09,8.2593,8.3601,8.3601,8.5132,8.6094,8.6094,8.6094,8.6094,8.6094,8.6094,8.6094,8.6094,8.6094,8.6094,8.6094,8.6094,8.6094,8.6094,8.6094,8.6094,8.6094,8.6094,8.6594,8.7555,8.8372,8.9171,9.0047,9.0855,9.121,9.121,9.121,9.121,9.121,9.121,9.121,9.121,0.0,0.0,0.0,0.0,0.0,0.0,0.0,0.0,0.0,0.0,5.3214,5.3214,5.3214,5.3739,5.4179,0.0,0.0,0.0,0.0,0.0,0.0,0.0,0.0,0.0,5.8175,5.8175,5.8175,5.8175,5.8175,5.8108,5.8033,5.8829,5.9682,6.0607,6.1299,6.212,0.0,0.0,0.0,0.0,0.0,0.0,0.0,0.0,0.0,0.0,6.2793,6.2793,0.0,0.0,0.0,0.0,0.0,0.0,0.0,0.0,6.7809,6.9256,7.0386,0.0,7.0898,7.0898,7.0898,7.0898,0.0,7.1398,7.2206,7.3276,7.4007,7.4738,7.5784,7.6015,7.6015,7.6015,7.6015,7.6592,7.8253,7.9638,8.0631,8.1054,8.2593,8.3601,8.3601,8.5132,8.6094,8.6094,8.6094,8.6094,8.6094,8.6094,8.6094,8.6094,8.6094,8.6094,8.6094,8.6094,8.6094,8.6094,8.6094,8.6094,8.6094,8.6094,8.694,8.841,8.8603,8.9517,9.0893,9.1133,9.121,9.121,9.121,9.121,9.121,9.121,9.121,9.121,0.0,0.0,0.0,0.0,0.0,0.0,0.0,0.0,0.0,0.0,0.0,0.0,0.0,0.0,0.0,0.0,0.0,0.0,0.0,0.0,0.0,0.0,0.0,5.7997,5.7997,5.7997,5.7997,5.7997,5.7997,5.818,5.8572,5.938,6.0187,6.1006,6.1777,6.2389,0.0,0.0,0.0,0.0,6.2793,0.0,0.0,0.0,0.0,0.0,6.2793,6.2793,0.0,6.2793,6.2793,6.2866,0.0,0.0,0.0,0.0,6.8314,6.954,7.0615,7.0898,7.0898,7.0898,7.0898,7.0898,7.0898,7.1552,7.2437,7.3315,7.4123,7.4976,7.5822,7.6015,7.6015,7.6015,7.6322,7.7169,7.8861,8.0246,8.1093,8.1093,8.2593,8.3601,8.3601,8.5132,8.6094,8.6094,8.6094,8.6094,8.6094,8.6094,8.6094,8.6094,8.6094,8.6094,8.6094,8.6094,8.6094,8.6094,8.6094,8.6094,8.6094,8.6094,8.6824,8.8141,8.8526,8.9402,9.0624,9.1056,9.121,9.121,9.121,9.121,9.121,9.121,9.121,9.121,0.0,0.0,0.0,0.0,0.0,0.0,0.0,0.0,0.0,0.0,0.0,0.0,0.0,0.0,0.0,0.0,0.0,0.0,0.0,0.0,0.0,0.0,5.7997,5.7997,5.7997,5.7997,5.7997,5.7997,5.8107,5.8547,5.9221,6.015,6.1006,6.1814,6.2499,6.2793,0.0,0.0,0.0,0.0,6.2793,0.0,0.0,0.0,0.0,0.0,0.0,0.0,0.0,6.2793,6.2793,6.2939,6.3833,0.0,0.0,0.0,0.0,0.0,7.0615,7.0898,7.0898,7.0898,7.0898,7.0898,7.0898,7.1668,7.2591,7.3353,7.4238,7.5123,7.5861,7.6015,7.6015,7.6015,7.6823,7.8015,7.9585,8.0554,8.1093,8.1093,8.2593,8.3601,8.3601,8.5132,8.6094,8.6094,8.6094,8.6094,8.6094,8.6094,8.6094,8.6094,8.6094,8.6094,8.6094,8.6094,8.6094,8.6094,8.6094,8.6094,8.6094,8.6094,8.6594,8.744,8.8333,8.9171,8.997,9.0825,9.121,9.121,9.121,9.121,9.121,9.121,9.121,9.121,0.0,0.0,0.0,0.0,0.0,0.0,0.0,0.0,0.0,0.0,0.0,0.0,0.0,0.0,0.0,0.0,0.0,0.0,0.0,0.0,0.0,5.7997,5.7997,5.7997,5.7997,5.7997,5.7997,5.7997,5.8682,5.9086,5.9233,6.0713,6.1851,6.2609,6.2756,6.2793,6.2793,0.0,0.0,0.0,6.2793,0.0,0.0,0.0,0.0,0.0,0.0,0.0,0.0,6.2793,6.2793,6.2939,6.3833,0.0,0.0,0.0,0.0,0.0,7.0615,7.0898,7.0898,7.0898,7.0898,7.0898,7.0898,7.2168,7.3353,7.3469,7.4738,7.5822,7.5976,7.6015,7.6015,7.6015,7.7284,7.8669,7.9662,8.0554,8.1093,8.1093,8.2593,8.3601,8.3601,8.5132,8.6094,8.6094,8.6094,8.6094,8.6094,8.6094,8.6094,8.6094,8.6094,8.6094,8.6094,8.6094,8.6094,8.6094,8.6094,8.6094,8.6094,8.6094,8.6594,8.744,8.8333,8.9171,8.997,9.0825,9.121,9.121,9.121,9.121,9.121,9.121,9.121,9.121,0.0,0.0,0.0,0.0,0.0,0.0,0.0,0.0,0.0,0.0,0.0,0.0,0.0,0.0,0.0,0.0,0.0,0.0,0.0,0.0,5.7997,5.7997,5.7997,5.7997,5.7997,5.7997,5.8217,5.8646,5.9013,5.9636,6.0529,6.1704,6.2426,6.2793,6.2793,6.2793,6.2793,6.2793,6.2793,0.0,0.0,0.0,0.0,0.0,0.0,0.0,0.0,0.0,0.0,0.0,6.3123,6.3649,6.4494,0.0,0.0,0.0,0.0,0.0,7.0674,7.0898,7.0898,7.0898,7.0898,7.1014,7.1514,7.2591,7.3623,7.4046,7.513,7.6015,7.6015,7.6015,7.6284,7.7215,7.84,7.9515,8.04,8.0862,8.1093,8.1093,8.2593,8.3601,8.3601,8.5132,8.6094,8.6094,8.6094,8.6094,8.6094,8.6094,8.6094,8.6094,8.6094,8.6094,8.6094,8.6094,8.6094,8.6094,8.6094,8.6094,8.6094,8.6094,8.6594,8.744,8.8333,8.9171,8.997,9.0825,9.121,9.121,9.121,9.121,9.121,9.121,9.121,9.121,0.0,0.0,0.0,0.0,0.0,0.0,0.0,0.0,0.0,0.0,0.0,0.0,0.0,0.0,0.0,0.0,0.0,0.0,0.0,0.0,5.7997,5.7997,5.818,5.829,5.829,5.829,5.8694,5.949,5.9673,6.0481,6.1887,6.2499,6.2793,6.2793,6.2793,6.2793,6.2793,6.2793,6.2793,0.0,0.0,0.0,0.0,0.0,0.0,0.0,0.0,0.0,0.0,0.0,0.0,0.0,0.0,0.0,0.0,6.872,6.9501,7.0044,7.0585,7.0798,7.0937,7.1168,7.1206,7.136,7.2059,7.3014,7.3969,7.4584,7.5399,7.6015,7.6015,7.6169,7.6861,7.8523,7.9361,8.0085,8.0977,8.1093,8.1093,8.1093,8.2593,8.3601,8.3601,8.5132,8.6094,8.6094,8.6094,8.6094,8.6094,8.6094,8.6094,8.6094,8.6094,8.6094,8.6094,8.6094,8.6094,8.6094,8.6094,8.6094,8.6094,8.6094,8.6594,8.744,8.8333,8.9171,8.997,9.0825,9.121,9.121,9.121,9.121,9.121,9.121,9.121,9.121,0.0,0.0,0.0,0.0,0.0,0.0,0.0,0.0,0.0,0.0,0.0,0.0,0.0,0.0,0.0,0.0,0.0,0.0,0.0,0.0,5.7997,5.7997,5.8719,5.9123,5.9123,5.9123,5.9526,6.0297,6.1043,6.1887,6.2719,6.2756,6.2793,6.2793,6.2793,6.2793,6.2793,6.2793,6.2793,6.2793,0.0,0.0,0.0,0.0,0.0,0.0,0.0,0.0,0.0,0.0,0.0,0.0,0.0,0.0,6.6808,6.8169,6.8924,6.9482,7.0026,7.0517,7.1091,7.1905,7.2098,7.2136,7.2175,7.3437,7.4623,7.47,7.5399,7.6015,7.6015,7.6669,7.7746,7.9438,7.9738,8.0085,8.0977,8.1093,8.1093,8.1093,8.2593,8.3601,8.3601,8.5132,8.6094,8.6094,8.6094,8.6094,8.6094,8.6094,8.6094,8.6094,8.6094,8.6094,8.6094,8.6094,8.6094,8.6094,8.6094,8.6094,8.6094,8.6094,8.6594,8.744,8.8333,8.9171,8.997,9.0825,9.121,9.121,9.121,9.121,9.121,9.121,9.121,9.121,0.0,0.0,0.0,0.0,0.0,0.0,0.0,0.0,0.0,0.0,0.0,0.0,0.0,0.0,0.0,0.0,0.0,0.0,0.0,5.7997,5.8217,5.8719,5.9049,5.9673,6.0676,6.0187,6.0346,6.1153,6.1961,6.2499,6.2793,6.2793,6.2793,6.2793,6.2793,6.2793,6.2793,6.2793,6.2793,6.2793,6.2793,0.0,0.0,0.0,0.0,0.0,0.0,0.0,0.0,0.0,6.4163,6.5007,6.5778,6.6811,6.7827,6.8366,6.9127,6.9838,7.0052,7.0494,7.1091,7.1982,7.2591,7.3129,7.363,7.4245,7.4853,7.5399,7.5784,7.6169,7.6707,7.7938,7.9054,7.97,8.0246,8.0708,8.1054,8.1093,8.1093,8.1093,8.2593,8.3601,8.3601,8.5132,8.6094,8.6094,8.6094,8.6094,8.6094,8.6094,8.6094,8.6094,8.6094,8.6094,8.6094,8.6094,8.6094,8.6094,8.6094,8.6094,8.6094,8.6094,8.6863,8.8218,8.8564,8.944,9.074,9.1056,9.121,9.121,9.121,9.121,9.121,9.121,9.121,9.121,0.0,0.0,0.0,0.0,0.0,0.0,0.0,0.0,0.0,0.0,0.0,0.0,0.0,0.0,0.0,0.0,0.0,0.0,5.7997,5.8253,5.8609,5.9196,5.9673,6.0456,6.1569,6.13,6.1447,6.1998,6.2536,6.2793,6.2793,6.2793,6.2793,6.2793,6.2793,6.2793,6.2793,6.2793,6.2793,6.2793,6.2793,6.2793,0.0,0.0,0.0,0.0,0.0,0.0,0.0,0.0,6.4787,6.5765,6.6329,6.7292,6.8284,6.8452,6.9148,6.9874,7.0061,7.0685,7.1514,7.2399,7.3245,7.4084,7.4938,7.513,7.5284,7.5861,7.6207,7.6746,7.7861,7.9015,7.9892,8.0162,8.0708,8.1093,8.1093,8.1093,8.1093,8.1093,8.2324,8.3293,8.3563,8.4901,8.5824,8.6094,8.6094,8.6094,8.6094,8.6094,8.6094,8.6094,8.6094,8.6094,8.6094,8.6094,8.6094,8.6094,8.6094,8.6094,8.6094,8.6094,8.7055,8.8718,8.8718,8.9633,9.121,9.121,9.121,9.121,9.121,9.121,9.121,9.121,9.121,9.121,0.0,0.0,0.0,0.0,0.0,0.0,0.0,0.0,0.0,0.0,0.0,0.0,0.0,0.0,0.0,0.0,0.0,0.0,5.7997,5.8756,5.9196,5.9221,6.075,6.1606,6.1606,6.2389,6.2793,6.2793,6.2793,6.2793,6.2793,6.2793,6.2793,6.2793,6.2793,6.2793,6.2793,6.2793,6.2793,6.2793,6.2793,6.2793,0.0,0.0,0.0,0.0,0.0,0.0,0.0,0.0,6.5191,6.6512,6.6526,6.7076,6.781,6.8332,6.8869,6.9433,6.9974,7.1145,7.2399,7.3276,7.4123,7.493,7.5784,7.6015,7.6015,7.6015,7.6707,7.7823,7.9469,7.9815,8.0085,8.0977,8.1093,8.1093,8.1093,8.1093,8.1093,8.1093,8.1823,8.2631,8.3486,8.4362,8.5239,8.6017,8.6094,8.6094,8.6094,8.6094,8.6094,8.6094,8.6094,8.6094,8.6094,8.6094,8.6094,8.6094,8.6094,8.6094,8.6094,8.6094,8.7055,8.8718,8.8718,8.9633,9.121,9.121,9.121,9.121,9.121,9.121,9.121,9.121,9.121,9.121,0.0,0.0,0.0,0.0,0.0,0.0,0.0,0.0,0.0,0.0,0.0,0.0,0.0,0.0,0.0,0.0,0.0,0.0,5.8792,5.9086,5.971,6.086,6.1337,6.1851,6.2426,6.2683,6.2793,6.2793,6.2793,6.2793,6.2793,6.2793,6.2793,6.2793,6.2793,6.2793,6.2793,6.2793,6.2793,6.2793,6.2793,6.2793,6.2793,0.0,0.0,0.0,0.0,0.0,0.0,0.0,0.0,0.0,6.7605,6.8074,6.8356,6.8891,6.9452,7.0035,7.0785,7.1605,7.2559,7.3969,7.4507,7.493,7.5784,7.6015,7.6169,7.6784,7.8054,7.9208,7.97,8.0285,8.0785,8.1054,8.1093,8.1093,8.1093,8.1093,8.1093,8.1093,8.1823,8.2401,8.267,8.4016,8.5008,8.5239,8.5778,8.6094,8.6094,8.6094,8.6094,8.6094,8.6094,8.6094,8.6094,8.6094,8.6094,8.6094,8.6094,8.6094,8.6094,8.6094,8.7055,8.8718,8.8718,8.9633,9.121,9.121,9.121,9.121,9.121,9.121,9.121,9.121,9.121,9.121,0.0,0.0,0.0,0.0,0.0,0.0,0.0,0.0,0.0,0.0,5.7703,5.7997,0.0,0.0,0.0,0.0,0.0,0.0,0.0,5.9783,6.0603,6.1557,6.1924,6.2291,6.2793,6.2793,6.2793,6.2793,6.2793,6.2793,6.2793,6.2793,6.2793,6.2793,6.2793,6.2793,6.2793,6.2793,6.2793,6.2793,6.2793,6.2793,6.2793,0.0,0.0,0.0,0.0,0.0,0.0,0.0,0.0,0.0,6.7937,6.8345,6.8602,6.9148,6.9683,7.0336,7.1426,7.2225,7.3053,7.4353,7.4969,7.5438,7.6322,7.6515,7.6861,7.8054,7.9092,7.9892,8.0246,8.0746,8.1093,8.1093,8.1093,8.1093,8.1093,8.1093,8.1093,8.1093,8.1516,8.1939,8.2285,8.3247,8.417,8.4854,8.5363,8.5747,8.6094,8.6094,8.6094,8.6094,8.6094,8.6094,8.6094,8.6094,8.6094,8.6094,8.6094,8.6094,8.6094,8.6094,8.6863,8.8218,8.8902,8.994,9.121,9.121,9.121,9.121,9.121,9.121,9.121,9.121,9.121,9.1171,0.0,0.0,0.0,0.0,0.0,0.0,0.0,0.0,0.0,0.0,5.7997,5.7997,0.0,0.0,0.0,0.0,0.0,0.0,0.0,0.0,6.1643,6.1716,6.2389,6.2793,6.2793,6.2793,6.2793,6.2793,6.2793,6.2793,6.2793,6.2793,6.2793,6.2793,6.2793,6.2793,6.2793,6.2793,6.2793,6.2793,6.2793,6.2866,6.2903,6.2903,0.0,0.0,0.0,0.0,0.0,0.0,0.0,0.0,6.781,6.8161,6.8694,6.9358,6.9907,7.0596,7.2045,7.3014,7.3815,7.4623,7.5476,7.6361,7.7215,7.7484,7.7938,7.9469,7.9854,8.0162,8.0939,8.1093,8.1093,8.1093,8.1093,8.1093,8.1093,8.1093,8.1093,8.1093,8.1093,8.14,8.2131,8.2247,8.2978,8.4555,8.4816,8.5209,8.5931,8.6055,8.6094,8.6094,8.6094,8.6094,8.6094,8.6094,8.6094,8.6094,8.6094,8.6094,8.6094,8.6094,8.6594,8.7478,8.9162,9.0355,9.1095,9.1171,9.121,9.121,9.121,9.121,9.121,9.1133,9.1095,9.0979,0.0,0.0,0.0,0.0,0.0,0.0,0.0,0.0,0.0,0.0,0.0,0.0,0.0,0.0,0.0,0.0,0.0,0.0,0.0,0.0,6.1887,6.2499,6.2719,6.2793,6.2793,6.2793,6.2793,6.2793,6.2793,6.2793,6.2793,6.2793,6.2793,6.2793,6.2793,6.2793,6.2793,6.2793,6.2793,6.2793,6.2793,6.3196,6.3796,6.3796,6.4347,0.0,0.0,0.0,0.0,0.0,0.0,0.0,6.8694,6.9032,6.9436,7.1085,7.1642,7.2107,7.3724,7.4322,7.4661,7.5515,7.6361,7.7215,7.8061,7.8784,7.9361,7.9738,8.0323,8.09,8.1054,8.1093,8.1093,8.1093,8.1093,8.1093,8.1093,8.1093,8.1093,8.1093,8.1093,8.117,8.1323,8.1939,8.2439,8.2824,8.4132,8.497,8.5162,8.5747,8.6094,8.6094,8.6094,8.6094,8.6094,8.6094,8.6094,8.6094,8.6094,8.6094,8.6094,8.6094,8.6594,8.7478,8.9162,9.0009,9.0239,9.0932,9.121,9.121,9.121,9.121,9.1133,9.0432,9.0163,9.0047,0.0,0.0,0.0,0.0,0.0,0.0,0.0,0.0,0.0,0.0,0.0,0.0,0.0,0.0,0.0,0.0,0.0,0.0,0.0,0.0,6.2352,6.2793,6.2793,6.2793,6.2793,6.2793,6.2793,6.2793,6.2793,6.2793,6.2793,6.2793,6.2793,6.2793,6.2793,6.2793,6.2793,6.2793,6.305,6.3429,6.3429,6.3943,6.4677,6.4677,6.5191,6.5925,6.6366,0.0,0.0,0.0,0.0,0.0,0.0,0.0,7.0163,7.1437,7.2293,7.3091,7.4353,7.47,7.4892,7.5784,7.6938,7.7984,7.8407,7.9515,8.0439,8.0439,8.0785,8.1093,8.1093,8.1093,8.1093,8.1093,8.1093,8.1093,8.1093,8.1093,8.1093,8.1093,8.1093,8.1093,8.1093,8.1477,8.19,8.2285,8.3131,8.4016,8.4854,8.5277,8.5709,8.6094,8.6094,8.6094,8.6094,8.6094,8.6094,8.6094,8.6094,8.6094,8.6094,8.6094,8.6594,8.744,8.8325,8.894,8.9363,8.9825,9.0017,9.0017,9.0017,9.0017,8.994,8.9479,8.9325,8.921,0.0,0.0,0.0,0.0,0.0,0.0,0.0,0.0,0.0,0.0,0.0,0.0,0.0,0.0,0.0,0.0,0.0,0.0,0.0,0.0,0.0,6.2793,6.2793,6.2793,6.2793,6.2793,6.2793,6.2793,6.2793,6.2793,6.2793,6.2793,6.2793,6.2793,6.2793,6.2866,6.3013,6.3013,6.3539,6.431,6.431,6.4787,6.5508,6.5508,6.5999,6.6696,6.6696,6.715,6.77,6.77,0.0,0.0,0.0,0.0,7.0904,7.1726,7.2801,7.3892,7.47,7.4938,7.5091,7.5822,7.7253,7.8484,7.8484,7.9862,8.1093,8.1093,8.1093,8.1093,8.1093,8.1093,8.1093,8.1093,8.1093,8.1093,8.1093,8.1093,8.1093,8.1093,8.1093,8.1093,8.1093,8.1093,8.1362,8.2054,8.2208,8.2939,8.4362,8.4739,8.5201,8.5863,8.6017,8.6094,8.6094,8.6094,8.6094,8.6094,8.6094,8.6094,8.6094,8.6094,8.6478,8.7171,8.7325,8.7825,8.8487,8.8641,8.8718,8.8718,8.8718,8.8718,8.8679,8.8526,8.8487,8.8372,0.0,0.0,0.0,0.0,0.0,0.0,0.0,0.0,0.0,0.0,5.8621,0.0,0.0,0.0,0.0,0.0,0.0,0.0,6.2572,0.0,0.0,6.2793,6.2793,6.2793,6.2793,6.2793,6.2793,6.2793,6.2793,6.2793,6.2793,6.2793,6.2793,6.2793,6.2793,6.3196,6.3906,6.3906,6.4383,6.5141,6.5141,6.5632,6.6329,6.6329,6.6843,6.7554,6.7554,6.7627,6.77,6.77,6.802,0.0,0.0,0.0,7.1667,7.3668,7.4394,7.4738,7.5592,7.5822,7.5861,7.5976,7.7253,7.8484,7.8484,7.9862,8.1093,8.1093,8.1093,8.1093,8.1093,8.1093,8.1093,8.1093,8.1093,8.1093,8.1093,8.1093,8.1093,8.1093,8.1093,8.1093,8.1093,8.1093,8.1131,8.1246,8.19,8.2401,8.2631,8.4093,8.4931,8.5047,8.5747,8.6094,8.6094,8.6094,8.6094,8.6094,8.6094,8.6094,8.6094,8.6094,8.617,8.6324,8.7055,8.7478,8.7632,8.841,8.8718,8.8718,8.8718,8.8718,8.8603,8.7863,8.7555,8.744,0.0,0.0,0.0,0.0,0.0,0.0,0.0,0.0,0.0,0.0,0.0,6.004,0.0,0.0,0.0,6.2218,6.2291,6.2426,6.2793,6.2793,6.2793,6.2793,6.2793,6.2793,6.2793,6.2793,6.2793,6.2793,6.2793,6.2793,6.2793,6.3319,6.3539,6.3539,6.3539,6.398,6.4787,6.4787,6.5228,6.5962,6.5962,6.6439,6.7187,6.7187,6.7407,6.77,6.77,6.77,6.7754,6.8034,6.863,6.9418,7.0646,0.0,0.0,0.0,7.5053,7.5515,7.5899,7.6015,7.6015,7.6015,7.6899,7.7946,7.8407,7.9477,8.0516,8.1016,8.1093,8.1093,8.1093,8.1093,8.1093,8.1093,8.1093,8.1093,8.1093,8.1093,8.1093,8.1093,8.1093,8.1093,8.1093,8.1093,8.1093,8.1093,8.1439,8.1823,8.2285,8.3478,8.4401,8.4893,8.567,8.6094,8.6094,8.6094,8.6094,8.6094,8.6094,8.6094,8.6094,8.6094,8.6094,8.6132,8.6517,8.6671,8.6709,8.7094,8.7248,8.7248,8.7248,8.7248,8.7209,8.6824,8.6671,8.6632,0.0,0.0,0.0,0.0,0.0,0.0,0.0,0.0,0.0,0.0,0.0,0.0,0.0,0.0,0.0,0.0,6.2793,6.2793,6.2793,6.2793,6.2793,6.2793,6.2793,6.2793,6.2793,6.2793,6.2793,6.2793,6.3013,6.3123,6.316,6.4016,6.4494,6.4677,6.4494,6.4861,6.5582,6.5582,6.6072,6.6819,6.6966,6.7375,6.7917,6.8047,6.811,6.811,6.811,6.811,6.8185,6.8828,6.9552,7.0401,7.1644,7.2983,0.0,0.0,0.0,7.6015,7.6015,7.6015,7.6015,7.6015,7.6669,7.7445,7.8061,7.9015,7.9969,8.0631,8.0939,8.1093,8.1093,8.1093,8.1093,8.1093,8.1093,8.1093,8.1093,8.1093,8.1093,8.1093,8.1093,8.1093,8.1093,8.1093,8.1093,8.1093,8.1093,8.1362,8.1939,8.2824,8.367,8.4555,8.5363,8.5893,8.6094,8.6094,8.6094,8.6094,8.6094,8.6094,8.6094,8.6094,8.6094,8.6094,8.6094,8.6094,8.6094,8.6094,8.6094,8.6094,8.6094,8.6094,8.6094,8.6094,8.6094,8.6094,0.0,0.0,0.0,0.0,0.0,0.0,0.0,0.0,0.0,0.0,0.0,0.0,6.1606,6.2291,6.2756,6.2793,6.2793,6.2793,6.2793,6.2793,6.2793,6.2793,6.2793,0.0,6.2793,6.2793,6.2793,6.2793,6.3613,6.4029,6.4066,6.4861,6.5632,6.6329,6.5582,6.5668,6.6439,6.6439,6.688,6.7681,6.8185,6.8426,6.8523,6.9021,6.9221,6.9221,6.9221,0.0,0.0,0.0,0.0,7.1606,7.324,7.4186,7.4832,0.0,0.0,0.0,7.6015,7.6015,7.6015,7.6015,7.6669,7.733,7.7369,7.8631,7.9815,7.9854,8.0516,8.1093,8.1093,8.1093,8.1093,8.1093,8.1093,8.1093,8.1093,8.1093,8.1093,8.1093,8.1093,8.1093,8.1093,8.1093,8.1093,8.1093,8.1093,8.1131,8.117,8.1939,8.2755,8.364,8.4516,8.5316,8.6094,8.6094,8.6094,8.6094,8.6094,8.6094,8.6094,8.6094,8.6094,8.6094,8.6094,8.6094,8.6094,8.6094,8.6094,8.6094,8.6094,8.6094,8.6094,8.6094,8.6094,8.6094,0.0,0.0,0.0,0.0,0.0,0.0,0.0,0.0,0.0,0.0,0.0,0.0,0.0,6.2646,6.2793,6.2793,6.2793,6.2793,6.2793,6.2793,6.2793,6.2793,6.2793,6.2793,6.2793,6.2793,6.305,6.3613,6.3956,6.4347,6.4897,6.5705,6.6219,6.6476,6.6219,6.6512,6.726,6.726,6.7444,6.7767,6.8296,6.8511,6.8544,6.9095,6.9302,0.0,0.0,0.0,0.0,0.0,0.0,0.0,7.4111,7.4942,7.5592,7.5899,7.6015,7.6015,7.6015,7.6015,7.6015,7.6015,7.6245,7.6592,7.7176,7.7746,7.8515,7.9585,8.0046,8.0439,8.1016,8.1093,8.1093,8.1093,8.1093,8.1093,8.1093,8.1093,8.1093,8.1093,8.1093,8.1093,8.1093,8.1093,8.1093,8.1093,8.1093,8.1093,8.1093,8.1862,8.2439,8.2747,8.417,8.5286,8.6094,8.6094,8.6094,8.6094,8.6094,8.6094,8.6094,8.6094,8.6094,8.6094,8.6094,8.6094,8.6094,8.6094,8.6094,8.6094,8.6094,8.6094,8.6094,8.6094,8.6094,8.6094,0.0,0.0,0.0,0.0,0.0,0.0,0.0,0.0,0.0,6.1998,0.0,0.0,0.0,0.0,6.2793,6.2793,6.2793,6.2793,6.2793,6.2793,6.2793,6.2793,6.2793,6.2939,6.3246,6.2939,6.3343,6.4494,6.4494,6.4897,6.5742,6.6512,6.688,6.688,6.688,6.7187,6.77,6.77,6.77,6.7744,6.8487,6.8784,6.8862,6.9569,0.0,0.0,0.0,0.0,0.0,0.0,0.0,0.0,7.4934,7.5515,7.6015,7.6015,7.6015,7.6015,7.6015,7.6015,7.6015,7.6015,7.6015,7.613,7.6746,7.7099,7.7638,7.8746,7.94,7.9969,8.0554,8.09,8.1093,8.1093,8.1093,8.1093,8.1093,8.1093,8.1093,8.1093,8.1093,8.1093,8.1093,8.1093,8.1093,8.1093,8.1093,8.1093,8.1093,8.1593,8.217,8.2716,8.4132,8.5286,8.6094,8.6094,8.6094,8.6094,8.6094,8.6094,8.6094,8.6094,8.6094,8.6094,8.6094,8.6094,8.6094,8.6094,8.6094,8.6094,8.6094,8.6094,8.6094,8.6094,8.6094,8.6094,0.0,0.0,0.0,0.0,0.0,0.0,0.0,0.0,6.2793,6.2793,0.0,0.0,0.0,0.0,0.0,6.2793,6.2793,6.2793,6.2793,6.2793,6.2793,6.2829,6.2829,6.3246,6.4139,6.3319,6.3673,6.5325,6.5325,6.5742,6.6549,6.7333,6.77,6.77,6.77,6.77,6.77,6.77,6.77,6.7784,6.8836,6.9292,6.9423,7.0471,0.0,0.0,7.2213,7.2783,0.0,7.443,0.0,0.0,0.0,7.6015,7.6015,7.6015,7.6015,7.6015,0.0,0.0,0.0,7.6015,7.6015,7.6015,7.6015,7.663,7.7292,7.7292,7.8592,7.9738,7.9777,8.0477,8.1054,8.1093,8.1093,8.1093,8.1093,8.1093,8.1093,8.1093,8.1093,8.1093,8.1093,8.1093,8.1093,8.1093,8.1093,8.1093,8.1093,8.1093,8.1862,8.3524,8.4401,8.5239,8.6055,8.6094,8.6094,8.6094,8.6094,8.6094,8.6094,8.6094,8.6094,8.6094,8.6094,8.6094,8.6094,8.6094,8.6094,8.6094,8.6094,8.6094,8.6094,8.6094,8.6094,8.6094,0.0,0.0,0.0,0.0,0.0,0.0,6.2462,6.2646,6.2793,0.0,0.0,0.0,6.2793,6.2793,6.2793,6.2793,6.2793,6.2793,6.2793,6.2793,6.3086,6.3723,6.3723,6.4127,6.4971,6.4738,6.5105,6.6182,6.6182,6.6586,6.737,6.759,6.77,6.77,6.77,6.77,6.77,6.77,6.77,6.7781,6.8452,6.8945,6.9383,7.0069,0.0,0.0,0.0,7.3129,7.4392,0.0,7.513,7.5668,0.0,0.0,7.6015,7.6015,7.6015,7.6015,7.6015,0.0,0.0,0.0,0.0,0.0,7.6015,7.6207,7.6553,7.7176,7.7676,7.8361,7.9585,8.0008,8.0362,8.1016,8.1093,8.1093,8.1093,8.1093,8.1093,8.1093,8.1093,8.1093,8.1093,8.1093,8.1093,8.1093,8.1093,8.1093,8.1093,8.1093,8.1593,8.2631,8.3524,8.4362,8.5209,8.5824,8.6094,8.6094,8.6094,8.6094,8.6094,8.6094,8.6094,8.6094,8.6094,8.6094,8.6094,8.6094,8.6094,8.6094,8.6094,8.6094,8.6094,8.6094,8.6094,8.6094,0.0,0.0,0.0,0.0,0.0,6.2793,6.2793,6.2793,6.2793,0.0,0.0,0.0,6.2793,6.2793,6.2793,6.2793,6.3123,6.3356,6.3356,6.3673,6.4077,6.4567,6.4604,6.4971,6.5778,6.5472,6.5852,6.699,6.6659,6.6916,6.77,6.77,6.802,6.8552,6.8312,6.867,6.9384,6.916,6.8752,6.8258,6.9019,6.9735,7.0375,7.0824,7.1903,0.0,0.0,0.0,7.5245,7.5245,7.5592,0.0,0.0,0.0,0.0,0.0,7.6015,0.0,0.0,0.0,7.6015,7.6015,0.0,0.0,7.6015,7.6015,7.613,7.663,7.7061,7.7599,7.8592,7.9323,7.9969,8.0477,8.0862,8.1093,8.1093,8.1093,8.1093,8.1093,8.1093,8.1093,8.1093,8.1093,8.1093,8.1093,8.1093,8.1093,8.1093,8.1093,8.1477,8.2285,8.2785,8.3478,8.4362,8.517,8.5585,8.5585,8.594,8.6094,8.6094,8.6094,8.6094,8.6094,8.6094,8.6094,8.6094,8.6094,8.6094,8.6094,8.6094,8.6094,8.6094,8.6094,8.6094,8.6094,0.0,0.0,6.2793,6.2793,6.2793,6.2793,6.2793,6.2793,6.2793,0.0,6.2793,6.2829,6.2939,6.2939,6.2976,6.3086,6.3796,6.4237,6.4237,6.4897,6.5325,6.5435,6.5435,6.5815,6.6623,6.5925,6.6256,6.77,6.699,6.7026,6.7847,6.7891,6.8651,6.9925,6.944,7.0189,7.1748,7.1387,7.0499,6.9432,7.0278,7.1155,7.1895,0.0,7.3286,7.47,7.47,7.5245,7.6015,7.6015,7.6015,0.0,0.0,0.0,0.0,0.0,7.6015,0.0,0.0,0.0,0.0,0.0,7.6015,0.0,7.6015,7.6015,7.6015,7.6015,7.663,7.7176,7.7292,7.8515,7.9585,7.9777,8.0439,8.0977,8.1093,8.1093,8.1093,8.1093,8.1093,8.1093,8.1093,8.1093,8.1093,8.1093,8.1093,8.1093,8.1093,8.1093,8.1439,8.2131,8.2247,8.267,8.3447,8.4324,8.4777,8.4893,8.5632,8.6017,8.6094,8.6094,8.6094,8.6094,8.6094,8.6094,8.6094,8.6094,8.6094,8.6094,8.6094,8.6094,8.6094,8.6094,8.6094,8.6094,0.0,0.0,6.2793,6.2793,6.2793,6.2793,6.2793,6.2793,6.2793,6.2793,6.2793,6.305,6.3759,6.3833,6.4127,6.4774,6.4958,6.5081,6.5081,6.5215,6.5582,6.6256,6.6256,6.6623,6.7444,6.7297,6.7407,6.77,6.7554,6.7871,6.8692,6.9148,6.9891,7.0795,7.1081,7.1417,7.1855,7.2397,7.2454,7.2151,7.1712,7.1909,7.2438,7.2499,7.3437,7.47,7.47,7.5245,7.6015,7.6015,7.6015,7.6015,0.0,0.0,0.0,7.6015,0.0,0.0,0.0,0.0,0.0,0.0,0.0,0.0,7.6015,7.6015,7.6015,7.6015,7.613,7.6476,7.7176,7.7561,7.8246,7.9585,7.9931,8.0285,8.1016,8.1093,8.1093,8.1093,8.1093,8.1093,8.1093,8.1093,8.1093,8.1093,8.1093,8.1093,8.1093,8.1093,8.117,8.1323,8.1939,8.2362,8.2554,8.3409,8.4209,8.4893,8.5047,8.547,8.6094,8.6094,8.6094,8.6094,8.6094,8.6094,8.6094,8.6094,8.6094,8.6094,8.6094,8.6094,8.6094,8.6094,8.6094,8.6094,6.2793,6.2793,6.2793,6.2793,6.2793,6.2793,6.2793,6.2793,6.2793,6.2793,6.316,6.3759,6.4604,6.4714,6.4861,6.5251,6.5668,6.5888,6.5888,6.6256,6.6659,6.7076,6.7113,6.7297,6.77,6.8104,6.8311,6.8311,6.8692,6.9082,6.9486,6.9803,7.0673,7.1989,7.2,7.2728,7.3888,7.4011,7.423,7.4395,7.3279,7.326,7.383,7.3716,7.4344,7.5361,7.5361,7.563,7.6015,7.6015,7.6015,0.0,0.0,7.6015,7.6015,0.0,7.6015,7.6015,0.0,0.0,0.0,7.6015,0.0,0.0,0.0,7.6015,7.6015,7.6015,7.6015,7.613,7.6553,7.7022,7.7592,7.84,7.9246,7.9931,8.04,8.0823,8.1093,8.1093,8.1093,8.1093,8.1093,8.1093,8.1093,8.1093,8.1093,8.1093,8.1093,8.1093,8.1093,8.1093,8.1477,8.1708,8.1708,8.2516,8.317,8.3593,8.4055,8.4478,8.4863,8.5286,8.5517,8.5517,8.594,8.6094,8.6094,8.6094,8.6094,8.6094,8.6094,8.6094,8.6094,8.6094,8.6094,8.6094,6.2793,6.2793,6.2793,6.2793,6.2793,6.2793,6.2793,6.2939,6.3123,6.327,6.3906,6.464,6.5435,6.5508,6.5582,6.5742,6.6366,6.6733,0.0,6.7333,6.77,6.77,6.7847,6.7921,6.7921,6.8715,6.9119,6.9119,6.9779,7.0183,7.033,7.0445,7.1504,7.3237,7.2909,7.3975,7.5954,7.5463,7.5559,7.5908,7.4766,7.4698,7.5238,7.5042,7.5399,7.6015,7.6015,7.6015,7.6015,7.6015,7.6015,7.6015,7.6015,7.6015,0.0,0.0,0.0,0.0,0.0,0.0,0.0,0.0,0.0,7.6015,0.0,0.0,0.0,7.6015,7.6015,7.6015,7.6015,7.6592,7.6984,7.6823,7.8207,7.9246,7.9085,7.9939,8.0708,8.1054,8.1093,8.1093,8.1093,8.1093,8.1093,8.1093,8.1093,8.1093,8.1093,8.1093,8.1093,8.1093,8.1093,8.1093,8.1093,8.1747,8.2131,8.2324,8.3024,8.3447,8.364,8.4324,8.467,8.4709,8.5324,8.5632,8.5632,8.5632,8.5632,8.5632,8.5978,8.6094,8.6094,8.6094,8.6094,8.6094,6.2793,6.2793,6.2793,6.2793,6.2793,6.2793,6.2793,6.3466,6.42,6.4921,6.5105,6.5472,6.6292,6.6366,6.6659,0.0,0.0,0.0,6.7554,0.0,6.77,6.77,6.8385,6.8752,6.8752,6.9559,6.9963,6.9963,7.0073,7.0477,7.1174,7.1693,7.2753,7.4164,7.4598,7.523,7.6015,7.5932,7.5939,7.5976,7.5809,7.5833,7.5879,7.5846,7.5899,7.6015,7.6015,7.6015,7.6015,0.0,7.6015,7.6015,0.0,7.6015,7.6015,7.6015,0.0,0.0,0.0,0.0,0.0,0.0,7.6015,0.0,0.0,0.0,7.6015,7.6015,0.0,7.6015,7.6015,0.0,0.0,7.513,7.6438,7.7323,7.6553,7.7784,7.9369,8.09,8.1093,8.1093,8.1093,8.1093,8.1093,8.1093,8.1093,8.1093,8.1093,8.1093,8.1093,8.1093,8.1093,8.1093,8.1093,8.1208,8.1593,8.2285,8.2401,8.287,8.3601,8.3717,8.3755,8.3755,8.3832,8.387,8.387,8.387,8.387,8.4024,8.5517,8.6094,8.6094,8.6094,8.6094,8.6094,6.2793,6.2793,6.2976,6.3466,6.3539,6.3723,6.4187,6.4554,6.5081,6.5888,6.5999,6.6292,6.7113,0.0,0.0,0.0,0.0,6.8021,0.0,0.0,0.0,6.8398,6.8715,6.9119,6.9596,7.0367,7.0807,7.0807,7.1248,7.1688,7.2033,7.2587,7.3423,7.4326,7.4876,7.5438,7.6015,7.6015,7.6015,7.6015,7.6015,7.6015,0.0,7.6015,7.6015,7.6015,7.6015,7.6015,7.6015,0.0,7.6015,0.0,0.0,0.0,0.0,0.0,0.0,0.0,0.0,0.0,0.0,0.0,0.0,0.0,7.6015,0.0,7.6015,0.0,0.0,0.0,0.0,0.0,0.0,0.0,7.6476,7.7176,7.683,7.7753,7.8946,8.0208,8.0362,8.0554,8.1054,8.1093,8.1093,8.1093,8.1093,8.1093,8.1093,8.1093,8.1093,8.1093,8.1093,8.1093,8.1093,8.1093,8.1285,8.1593,8.1593,8.1785,8.217,8.2631,8.287,8.2862,8.337,8.3601,8.3601,8.3601,8.3601,8.3678,8.4371,8.4978,8.5401,8.5401,8.5709,8.6094,6.349,6.3306,6.3429,6.4273,6.442,6.4714,6.5521,6.5618,6.5925,6.6733,6.6843,6.704,6.7627,6.7836,0.0,0.0,6.8284,6.8392,0.0,0.0,6.8742,0.0,0.0,0.0,0.0,7.1199,7.1637,7.1637,7.2202,7.2496,7.251,7.3106,7.3711,7.4326,7.4876,7.5438,7.6015,7.6015,7.6015,7.6015,7.6015,7.6015,7.6015,7.6015,7.6015,7.6015,7.6015,7.6015,7.6015,7.6015,7.6015,0.0,7.6015,0.0,0.0,0.0,0.0,0.0,7.6015,0.0,0.0,0.0,0.0,0.0,0.0,0.0,0.0,0.0,0.0,0.0,0.0,0.0,0.0,0.0,0.0,7.6784,7.6322,7.7176,7.8215,7.9323,7.9662,8.0131,8.1016,8.1093,8.1093,8.1093,8.1093,8.1093,8.1093,8.1093,8.1093,8.1093,8.1093,8.1093,8.1093,8.1093,8.1093,8.1093,8.1093,8.1093,8.1131,8.1708,8.1977,8.2016,8.2631,8.2909,8.2909,8.2909,8.2909,8.2909,8.2909,8.3439,8.4209,8.4478,8.4901,8.5401,6.5215,6.4604,6.431,6.5105,6.5251,6.5508,6.6329,6.6476,6.6733,6.7554,6.7664,6.7664,0.0,0.0,0.0,0.0,0.0,6.8717,6.9221,0.0,6.9,0.0,0.0,7.1111,0.0,7.1927,7.2459,7.2459,7.2496,7.2496,7.251,7.3106,7.3711,7.4326,7.4876,7.5438,7.6015,7.6015,7.6015,7.6015,7.6015,7.6015,7.6015,0.0,7.6015,7.6015,7.6015,0.0,0.0,7.6015,7.6015,0.0,0.0,0.0,0.0,0.0,0.0,0.0,0.0,0.0,0.0,7.6015,0.0,0.0,0.0,0.0,7.6015,0.0,0.0,0.0,0.0,0.0,0.0,0.0,0.0,0.0,0.0,7.5053,7.6669,7.8369,7.9285,8.0131,8.1016,8.1093,8.1093,8.1093,8.1093,8.1093,8.1093,8.1093,8.1093,8.1093,8.1093,8.1093,8.1093,8.1093,8.1093,8.1093,8.1093,8.1093,8.1093,8.1131,8.1131,8.1131,8.117,8.117,8.117,8.117,8.117,8.117,8.117,8.167,8.2477,8.3332,8.3678,8.3678,6.5999,6.5888,6.5778,6.6035,6.6109,6.6366,6.7187,6.7297,6.7529,6.8173,6.8223,0.0,0.0,6.8913,6.9032,0.0,0.0,6.9501,6.9323,6.9723,0.0,0.0,0.0,7.1692,0.0,7.2507,7.2496,7.2496,7.2496,7.2496,7.251,7.3106,7.3529,7.3747,7.4682,7.5227,7.543,7.5826,7.6015,7.6015,7.6015,7.6015,7.6015,0.0,7.6015,7.6015,7.6015,7.6015,0.0,7.6015,7.6015,7.6015,7.6015,7.6015,7.6015,7.6015,7.6015,7.6015,0.0,0.0,7.6015,7.6015,0.0,0.0,0.0,0.0,0.0,0.0,0.0,0.0,0.0,0.0,0.0,0.0,0.0,0.0,0.0,7.563,7.6438,7.7561,7.8938,8.0131,8.1016,8.1093,8.1093,8.1093,8.1093,8.1093,8.1093,8.1093,8.1093,8.1093,8.1093,8.1093,8.1093,8.1093,8.1093,8.1093,8.1093,8.1093,8.1093,8.1093,8.1093,8.1093,8.1093,8.1093,8.1093,8.1093,8.1093,8.1093,8.1093,8.1285,8.1593,8.2439,8.3101,8.3601,6.6806,6.6916,6.6916,6.6916,6.6916,6.7113,6.7627,6.7876,6.811,6.8452,6.866,0.0,6.9697,0.0,7.0166,0.0,7.0805,7.085,7.0517,7.1038,0.0,7.204,7.2255,0.0,0.0,0.0,7.2816,7.2816,7.2588,7.2496,7.251,7.3328,7.3711,7.377,7.4914,7.5421,7.5446,7.5833,7.6015,7.6015,7.6015,7.6207,0.0,0.0,7.6476,7.6515,0.0,7.6899,7.6899,7.6899,7.6899,7.6899,7.6899,7.6669,7.6476,7.6476,7.6245,7.6015,7.6015,7.6015,0.0,7.6015,7.6015,0.0,7.6015,0.0,7.6015,0.0,0.0,0.0,0.0,0.0,0.0,0.0,0.0,0.0,0.0,7.6015,7.6322,7.7215,7.8515,7.9669,8.0554,8.0939,8.1093,8.1093,8.1093,8.1093,8.1093,8.1093,8.1093,8.1093,8.1093,8.1093,8.1093,8.1093,8.1093,8.1093,8.1093,8.1093,8.1093,8.1093,8.1093,8.1093,8.1093,8.1093,8.1093,8.1093,8.1093,8.1093,8.1093,8.1093,8.117,8.167,8.2208,8.2716,6.77,6.77,6.77,6.77,6.77,6.77,6.77,6.8173,6.8523,6.8595,6.9075,6.9741,7.066,7.1207,7.1816,7.2588,7.2626,7.2655,7.2629,7.2896,0.0,0.0,7.3727,7.4179,7.3976,0.0,0.0,0.0,7.2885,7.261,7.2602,7.3747,7.4293,7.4347,7.5459,7.5947,7.5947,7.6007,7.6015,7.6053,7.6053,7.6592,7.7369,7.7407,7.7407,7.7522,7.8253,7.8484,7.8484,7.8484,7.8484,7.8484,7.8484,7.7984,7.7369,7.7369,7.6784,7.613,7.613,7.6092,7.6053,7.6053,7.6015,0.0,0.0,0.0,7.6015,0.0,0.0,0.0,0.0,0.0,0.0,0.0,0.0,0.0,0.0,0.0,7.6322,7.7138,7.7946,7.8784,7.9662,8.0516,8.1054,8.1054,8.1093,8.1093,8.1093,8.1093,8.1093,8.1093,8.1093,8.1093,8.1093,8.1093,8.1093,8.1093,8.1093,8.1093,8.1093,8.1093,8.1093,8.1093,8.1093,8.1093,8.1093,8.1093,8.1093,8.1093,8.1093,8.1093,8.1093,8.1093,8.1093,8.1093,6.77,6.77,6.77,6.77,6.77,6.77,6.77,6.8173,6.8872,6.9928,7.0525,7.1348,7.26,7.2878,7.3054,7.3246,7.3284,0.0,0.0,0.0,0.0,7.4144,7.4267,7.4444,7.4777,7.433,0.0,7.4072,0.0,7.3829,7.3841,7.415,7.4293,7.4326,7.5008,7.5315,7.534,7.581,7.6361,7.6984,7.6984,7.7445,7.8253,0.0,7.9169,7.9092,7.8677,7.8484,7.8484,7.8484,7.8484,7.8484,7.8484,7.8369,7.8176,7.8176,7.8023,7.7869,7.7869,7.7407,7.6984,7.6984,7.6476,7.6015,0.0,0.0,0.0,0.0,0.0,0.0,0.0,0.0,0.0,0.0,0.0,0.0,0.0,0.0,0.0,7.6322,7.7099,7.7946,7.8754,7.9631,8.0131,8.0131,8.0746,8.1093,8.1093,8.1093,8.1093,8.1093,8.1093,8.1093,8.1093,8.1093,8.1093,8.1093,8.1093,8.1093,8.1093,8.1093,8.1093,8.1093,8.1093,8.1093,8.1093,8.1093,8.1093,8.1093,8.1093,8.1093,8.1093,8.1093,8.1093,8.1093,6.77,6.77,6.77,6.77,6.8199,6.8503,6.8121,6.8618,6.9469,7.0791,7.1537,0.0,7.3849,7.4353,7.4745,7.513,7.5476,0.0,7.4825,0.0,0.0,7.4902,7.4989,7.5165,7.5471,7.4933,0.0,7.467,0.0,7.4293,7.4304,7.4547,7.467,7.4652,7.5236,7.548,7.5535,7.5848,7.6515,7.7292,7.7292,7.8023,0.0,7.9623,8.0046,8.0285,7.9823,7.9638,7.9638,7.9638,7.9638,7.9638,7.9638,7.9361,7.9054,7.9054,7.8792,7.8484,7.8484,7.8176,7.783,7.783,7.7445,7.7015,7.663,7.6553,7.6476,0.0,7.6015,7.6015,0.0,0.0,0.0,0.0,0.0,0.0,0.0,0.0,0.0,0.0,7.6438,7.6899,7.7361,7.8515,7.9246,7.9246,8.0054,8.0516,8.0516,8.09,8.1093,8.1093,8.1093,8.1093,8.1093,8.1093,8.1093,8.1093,8.1093,8.1093,8.1093,8.1093,8.1093,8.1093,8.1093,8.1093,8.1093,8.1093,8.1093,8.1093,8.1093,8.1093,8.1093,8.1093,8.1093,8.1093,6.77,6.7781,6.7847,6.7957,6.9063,6.9717,6.9128,6.9614,7.0481,7.1562,0.0,7.3568,7.4894,7.5822,7.663,7.7407,0.0,7.7984,7.6753,7.7168,7.6901,7.5598,7.5948,7.6169,7.6169,7.5548,7.5236,0.0,0.0,7.4516,7.4527,7.4989,7.5236,7.5254,7.5787,7.6015,7.6015,7.613,7.6669,7.7484,7.7599,7.8554,7.9969,7.9969,8.0439,8.1093,8.1093,8.1093,8.1093,8.1093,8.1093,8.1093,8.1093,8.0592,7.9969,7.9969,7.9438,7.883,7.883,7.8754,7.8677,7.8677,7.86,7.833,7.7638,7.7445,7.7253,7.6476,7.6245,7.6169,0.0,0.0,0.0,0.0,0.0,0.0,0.0,0.0,0.0,0.0,0.0,0.0,7.6015,7.74,7.833,7.833,7.9131,7.9669,7.9777,8.0516,8.0977,8.1093,8.1093,8.1093,8.1093,8.1093,8.1093,8.1093,8.1093,8.1093,8.1093,8.1093,8.1093,8.1093,8.1093,8.1093,8.1093,8.1093,8.1093,8.1093,8.1093,8.1093,8.1093,8.1093,8.1093,8.1093,6.77,6.8047,6.8579,6.9322,6.9986,7.0788,7.175,7.1996,7.2403,7.3345,7.4593,7.5787,7.6738,7.7561,7.8138,7.8292,7.8407,0.0,0.0,0.0,0.0,7.7923,7.737,7.7061,7.7061,7.6255,7.5833,0.0,0.0,0.0,7.5686,7.5803,7.5833,7.5841,7.5947,7.6015,7.6053,7.6784,7.7561,7.8369,7.9054,7.9977,8.0862,8.0862,8.0977,8.1093,8.1093,8.1093,8.1093,8.1093,8.1093,8.1093,8.1093,8.1016,8.0862,8.0862,8.0746,8.0631,8.0631,8.0131,7.9592,7.9592,7.9015,7.8446,7.833,7.8292,7.8253,7.8099,7.7522,7.7061,7.7061,0.0,0.0,0.0,0.0,0.0,0.0,0.0,0.0,0.0,0.0,7.6015,7.6015,7.6907,7.7522,7.7522,7.8253,7.9054,7.9738,7.9931,8.0362,8.1093,8.1093,8.1093,0.0,8.1093,8.1093,8.1093,8.1093,8.1093,8.1093,8.1093,8.1093,8.1093,8.1093,8.1093,8.1093,8.1093,8.1093,8.1093,8.1093,8.1093,8.1093,8.1093,8.1093,8.1093,6.8716,6.9227,6.9835,7.0694,7.1652,7.269,7.3765,7.4563,7.5047,7.5009,7.6096,7.7166,7.7846,7.8669,7.9169,7.9169,7.9592,7.9669,7.9208,7.9169,7.8977,7.8523,7.8138,7.7715,7.733,7.6899,7.6438,7.6015,0.0,0.0,7.6015,7.6015,7.6015,7.6015,7.6015,7.6015,7.6053,7.6945,7.7753,7.86,7.9438,8.0323,8.1093,8.1093,8.1093,8.1093,8.1093,8.1093,8.1093,8.1093,8.1093,8.1093,8.1093,8.1093,8.1093,8.1093,8.1093,8.1093,8.1093,8.0785,8.0477,8.0477,8.0169,7.9708,7.9285,7.9169,7.9054,7.86,7.8176,7.7792,7.7369,7.6592,0.0,0.0,0.0,0.0,0.0,0.0,0.0,0.0,0.0,0.0,0.0,7.6361,7.663,7.663,7.7407,7.8253,7.9092,7.9554,8.0208,8.1054,8.1093,0.0,8.1093,0.0,8.1093,8.1093,8.1093,8.1093,8.1093,8.1093,8.1093,8.1093,8.1093,8.1093,8.1093,8.1093,8.1093,8.1093,8.1093,8.1093,8.1093,8.1093,8.1093,8.1093,7.0074,7.0654,7.1337,7.2341,7.3524,7.4703,7.5744,7.6984,7.7515,7.663,7.7462,7.8305,7.8715,7.9554,8.0092,8.0092,8.0708,8.0823,8.0123,8.0092,7.9785,7.91,7.8869,7.8484,7.7861,7.7484,7.6938,0.0,0.0,0.0,7.6015,7.6015,7.6015,7.6015,7.6015,7.6092,7.6322,0.0,7.8023,7.8869,7.9746,8.0477,8.1093,8.1093,8.1093,8.1093,8.1093,8.1093,8.1093,8.1093,8.1093,8.1093,8.1093,8.1093,8.1093,8.1093,8.1093,8.1093,8.1093,8.1093,8.1093,8.1093,8.1093,8.0939,8.0239,8.0092,7.99,7.9177,7.8907,7.8523,7.7715,7.6861,0.0,0.0,0.0,0.0,0.0,0.0,0.0,0.0,0.0,0.0,7.6015,7.6015,7.6015,7.6015,7.663,7.7445,7.8446,7.9131,8.0015,8.1054,8.1093,8.1093,8.1093,0.0,8.1093,8.1093,8.1093,8.1093,8.1093,8.1093,8.1093,8.1093,8.1093,8.1093,8.1093,8.1093,8.1093,8.1093,8.1093,8.1093,8.1093,8.1093,8.1093,8.1093,7.1442,7.2054,7.292,7.4586,7.5398,7.6347,7.7931,7.8954,7.9246,7.8369,7.9062,7.9623,7.9662,8.0477,8.0977,8.0977,8.1054,8.1054,8.0977,8.0977,8.0939,8.0862,8.0092,7.9623,7.9592,7.8092,7.7253,0.0,0.0,7.6015,0.0,0.0,7.6015,7.6015,7.6015,0.0,0.0,7.8023,7.89,7.9746,8.0631,8.1016,8.1093,8.1093,8.1093,8.1093,8.1093,8.1093,8.1093,8.1093,8.1093,8.1093,8.1093,8.1093,8.1093,8.1093,8.1093,8.1093,8.1093,8.1093,8.1093,8.1093,8.1093,8.1093,8.1016,8.0977,8.0977,8.0862,8.0246,7.94,7.8561,7.7715,7.7176,0.0,0.0,0.0,0.0,0.0,0.0,0.0,0.0,0.0,7.6015,7.6015,7.6015,7.6015,7.6092,7.6823,7.8407,7.86,0.0,8.1054,8.1093,8.1093,8.1093,8.1093,8.1093,8.1093,8.1093,8.1093,8.1093,8.1093,8.1093,8.1093,8.1093,8.1093,8.1093,8.1093,8.1093,8.1093,8.1093,8.1093,8.1093,8.1093,8.1093,8.1093,7.2899,7.3925,7.5018,7.6253,7.704,7.79,7.9092,7.9592,7.9862,8.0054,8.0362,8.0592,8.0592,8.09,8.1093,8.1093,8.1093,8.1093,8.1093,8.1093,8.1093,8.1093,8.0785,8.0323,7.9815,7.9131,7.8554,0.0,0.0,0.0,0.0,0.0,0.0,0.0,0.0,7.7253,7.8099,7.89,7.9477,7.9892,8.0746,8.1093,8.1093,8.1093,8.1093,8.1093,8.1093,8.1093,8.1093,8.1093,8.1093,8.1093,8.1093,8.1093,8.1093,8.1093,8.1093,8.1093,8.1093,8.1093,8.1093,8.1093,8.1093,8.1093,8.1093,8.1093,8.1093,8.1093,8.04,7.97,7.9323,7.8592,7.8023,7.8023,0.0,0.0,0.0,0.0,0.0,0.0,0.0,0.0,0.0,7.6015,7.6015,7.6015,7.6015,7.6746,0.0,0.0,0.0,8.1054,0.0,8.1093,8.1093,8.1093,8.1093,8.1093,8.1093,8.1093,8.1093,8.1093,8.1093,8.1093,8.1093,8.1093,8.1093,8.1093,8.1093,8.1093,8.1093,8.1093,8.1093,8.1093,8.1093,8.1093,7.5022,7.6063,7.7015,7.7861,7.8515,7.9169,8.0054,8.0169,8.04,8.1016,8.1093,8.1093,8.1093,8.1093,8.1093,8.1093,8.1093,8.1093,8.1093,8.1093,8.1093,8.1093,8.1093,0.0,8.0208,7.9931,7.9515,7.8861,7.8061,0.0,0.0,0.0,0.0,0.0,7.7638,7.8099,7.89,7.9554,7.9931,8.0246,8.0862,8.1093,8.1093,8.1093,8.1093,8.1093,8.1093,8.1093,8.1093,8.1093,8.1093,8.1093,8.1093,8.1093,8.1093,8.1093,8.1093,8.1093,8.1093,8.1093,8.1093,8.1093,8.1093,8.1093,8.1093,8.1093,8.1093,8.1093,8.0592,8.0169,8.0169,7.9477,7.8861,7.8861,0.0,0.0,0.0,0.0,0.0,0.0,7.6515,7.6361,7.6361,7.6361,7.6361,7.6361,0.0,0.0,0.0,0.0,0.0,0.0,0.0,0.0,8.1093,8.1093,8.1093,8.1093,8.1093,8.1093,8.1093,8.1093,8.1093,8.1093,8.1093,8.1093,8.1093,8.1093,8.1093,8.1093,8.1093,8.1093,8.1093,8.1093,8.1093,8.1093,7.813,7.8446,7.8754,7.9631,7.9777,8.0092,8.0939,8.1093,8.1093,8.1093,8.1093,8.1093,8.1093,8.1093,8.1093,8.1093,8.1093,8.1093,8.1093,8.1093,8.1093,0.0,0.0,8.1093,8.1093,8.0246,7.9777,7.9777,0.0,0.0,7.8484,0.0,7.8484,7.8484,7.8484,7.8977,7.9777,7.9815,8.0285,8.1093,8.1093,8.1093,8.1093,8.1093,8.1093,8.1093,8.1093,8.1093,8.1093,8.1093,8.1093,8.1093,8.1093,8.1093,8.1093,8.1093,8.1093,8.1093,8.1093,8.1093,8.1093,8.1093,8.1093,8.1093,8.1093,8.1093,8.1093,8.1093,8.1093,8.1093,8.1093,8.0362,7.9777,7.9777,0.0,0.0,0.0,0.0,0.0,7.8484,7.7753,7.7292,7.7292,7.7292,7.7292,7.7292,0.0,0.0,0.0,0.0,0.0,8.1054,8.1093,0.0,8.1093,8.1093,8.1093,8.1093,8.1093,8.1093,8.1093,8.1093,8.1093,8.1093,8.1093,8.1093,8.1093,8.1093,8.1093,8.1093,8.1093,8.1093,8.1093,8.1093,8.1093,8.1093,7.8407,7.8977,7.9477,7.9738,8.0277,8.0785,8.1054,8.1093,8.1093,8.1093,8.1093,8.1093,8.1093,8.1093,8.1093,0.0,8.1093,8.1093,0.0,8.1093,8.1093,8.1093,8.1093,8.1093,8.1093,8.0823,8.0708,8.0708,0.0,0.0,0.0,7.8484,7.883,7.94,7.94,7.9862,8.0708,8.0708,8.0862,8.1093,8.1093,8.1093,8.1093,8.1093,8.1093,8.1093,8.1093,8.1093,8.1093,8.1093,8.1093,8.1093,8.1093,8.1093,8.1093,8.1093,8.1093,8.1093,8.1093,8.1093,8.1093,8.1093,8.1093,8.1093,8.1093,8.1093,8.1093,8.1093,8.1093,8.1093,8.1093,8.0862,8.0708,8.0708,8.0439,0.0,7.9477,0.0,0.0,0.0,7.8253,7.8138,7.8138,7.8138,0.0,0.0,0.0,0.0,0.0,0.0,0.0,0.0,8.1093,0.0,8.1093,8.1093,8.1093,8.1093,8.1093,8.1093,8.1093,8.1093,8.1093,8.1093,8.1093,8.1093,8.1093,8.1093,8.1093,8.1093,8.1093,8.1093,8.1093,8.1093,8.1093,8.1093,7.94,7.99,8.0277,8.0277,8.0746,8.1093,8.1093,8.1093,8.1093,8.1093,8.1093,8.1093,8.1093,8.1093,0.0,8.1093,8.1093,8.1093,8.1093,8.1093,8.1093,8.1093,8.1093,8.1093,8.1093,8.1093,0.0,8.1093,8.0554,8.0015,7.9485,7.9485,7.9785,8.0277,8.0277,8.0592,8.1093,8.1093,8.1093,8.1093,8.1093,8.1093,8.1093,8.1093,8.1093,8.1093,8.1093,8.1093,8.1093,8.1093,8.1093,8.1093,8.1093,8.1093,8.1093,8.1093,8.1093,8.1093,8.1093,8.1093,8.1093,8.1093,8.1093,8.1093,8.1093,8.1093,8.1093,8.1093,8.1093,8.1093,8.1093,8.1093,8.1093,8.1093,8.1093,8.09,8.0362,0.0,0.0,0.0,0.0,0.0,0.0,7.8977,7.8977,0.0,0.0,0.0,0.0,0.0,8.0554,8.1093,8.1093,8.1093,8.1093,8.1093,8.1093,8.1093,8.1093,8.1093,8.1093,8.1093,8.1093,8.1093,8.1093,8.1093,8.1093,8.1093,8.1093,8.1093,8.1093,8.1093,8.1093,8.1093,8.1093,8.1093,8.0939,8.1093,8.1093,8.1093,8.1093,8.1093,8.1093,8.1093,8.1093,8.1093,8.1093,8.1093,8.1093,8.1093,8.1093,8.1093,0.0,0.0,8.1093,8.1093,8.1093,8.1093,8.1093,8.1093,8.1093,8.1093,8.1093,8.1093,8.1093,8.1093,8.1093,8.1093,8.1093,8.1093,8.1093,8.1093,8.1093,8.1093,8.1093,8.1093,8.1093,8.1093,8.1093,8.1093,8.1093,8.1093,8.1093,8.1093,8.1093,8.1093,8.1093,8.1093,8.1093,8.1093,8.1093,8.1093,8.1093,8.1093,8.1093,8.1093,8.1093,8.1093,8.1093,8.1093,8.1093,8.1093,8.1093,8.1093,8.1093,8.1093,8.1093,8.1093,8.1093,8.1093,8.1093,8.1093,8.1093,8.1093,0.0,0.0,0.0,0.0,7.9892,7.9892,7.9892,0.0,0.0,0.0,0.0,0.0,8.1093,8.1093,8.1093,8.1093,8.1093,8.1093,8.1093,8.1093,8.1093,8.1093,8.1093,8.1093,8.1093,8.1093,8.1093,8.1093,8.1093,8.1093,8.1093,8.1093,8.1093,8.1093,8.1093,8.1093,8.1093,8.1093,8.1054,8.1093,8.1093,8.1093,8.1093,8.1093,8.1093,8.1093,8.1093,8.1093,8.1093,8.1093,8.1093,8.1093,8.1093,8.1093,8.1093,8.1093,8.1093,8.1093,8.1093,8.1093,8.1093,8.1093,8.1093,8.1093,8.1093,8.1093,8.1093,8.1093,8.1093,8.1093,8.1093,8.1093,8.1093,8.1093,8.1093,8.1093,8.1093,8.1093,8.1093,8.1093,8.1093,8.1093,8.1093,8.1093,8.1093,8.1093,8.1093,8.1093,8.1093,8.1093,8.1093,8.1093,8.1093,8.1093,8.1093,8.1093,8.1093,8.1093,8.1093,8.1093,8.1093,8.1093,8.1093,8.1093,8.1093,8.1093,8.1093,8.1093,8.1093,8.1093,8.1093,8.1093,8.1093,8.1093,8.1093,8.1093,8.1093,0.0,8.0939,8.0785,8.0785,8.0785,8.0785,0.0,0.0,8.1093,8.1093,8.1093,8.1093,8.1093,8.1093,8.1093,8.1093,8.1093,8.1093,8.1093,8.1093,8.1093,8.1093,8.1093,8.1093,8.1093,8.1093,8.1093,8.1093,8.1093,8.1093,8.1093,8.1093,8.1093,8.1093,8.1093,8.1093,8.1093,8.1093,8.1093,8.1093,8.1093,8.1093,8.1093,8.1093,8.1093,8.1093,8.1093,8.1093,8.1093,8.1093,8.1093,8.1093,8.1093,8.1093,8.1093,8.1093,8.1093,8.1093,8.1093,8.1093,8.1093,8.1093,8.1093,8.1093,8.1093,8.1093,8.1093,8.1093,8.1093,8.1093,8.1093,8.1093,8.1093,8.1093,8.1093,8.1093,8.1093,8.1093,8.1093,8.1093,8.1093,8.1093,8.1093,8.1093,8.1093,8.1093,8.1093,8.1093,8.1093,8.1093,8.1093,8.1093,8.1093,8.1093,8.1093,8.1093,8.1093,8.1093,8.1093,8.1093,8.1093,8.1093,8.1093,8.1093,8.1093,8.1093,8.1093,8.1093,8.1093,8.1093,8.1093,8.1093,8.1093,8.1093,8.1093,8.1093,8.1093,8.1093,8.1093,8.1093,8.1093,8.1093,8.1093,8.1093,0.0,8.1093,8.1093,8.1093,8.1093,8.1093,8.1093,8.1093,8.1093,8.1093,8.1093,8.1093,8.1093,8.1093,8.1093,8.1093,8.1093,8.1093,8.1093,8.1093,8.1093,8.1093,8.1093,8.1093,8.1093,8.1093,8.1093,8.1093,8.1093,8.1093,8.1093,8.1093,8.1093,8.1093,8.1093,8.1093,8.1093,8.1093,8.1093,8.1093,8.1093,8.1093,8.1093,8.1093,8.1093,8.1093,8.1093,8.1093,8.1093,8.1093,8.1093,8.1093,8.1093,8.1093,8.1093,8.1093,8.1093,8.1093,8.1093,8.1093,8.1093,8.1093,8.1093,8.1093,8.1093,8.1093,8.1093,8.1093,8.1093,8.1093,8.1093,8.1093,8.1093,8.1093,8.1093,8.1093,8.1093,8.1093,8.1093,8.1093,8.1093,8.1093,8.1093,8.1093,8.1093,8.1093,8.1093,8.1093,8.1093,8.1093,8.1093,8.1093,8.1093,8.1093,8.1093,8.1093,8.1093,8.1093,8.1093,8.1093,8.1093,8.1093,8.1093,8.1093,8.1093,8.1093,0.0,8.1093,8.1093,8.1093,8.1093,8.1093,8.1093,8.1093,8.1093,8.1093,8.1093,8.1093,8.1093,8.1093,8.1093,8.1093,8.1093,8.1093,8.1093,8.1093,8.1093,8.1093,8.1093,8.1093,8.1093,8.1093,8.1093,8.1093,8.1093,8.1093,8.1093,8.1093,8.1093,8.1093,8.1093,8.1093,8.1093,8.1093,8.1093,8.1093,8.1093,8.1093,8.1093,8.1093,8.1093,8.1093,8.1093,8.1093,8.1093,8.1093,8.1093,8.1093,8.1093,8.1093,8.1093,8.1093,8.1093,8.1093,8.1093,8.1093,8.1093,8.1093,8.1093,8.1093,8.1093,8.1093,8.1093,8.1093,8.1093,8.1093,8.1093,8.1093,8.1093,8.1093,8.1093,8.1093,8.1093,8.1093,8.1093,8.1093,8.1093,8.1093,8.1093,8.1093,8.1093,8.1093,8.1093,8.1093,8.1093,8.1093,8.1093,8.1093,8.1093,8.1093,8.1093,8.1093,8.1093,8.1093,8.1093,8.1093,8.1093,8.1093,8.1093,8.1093,8.1093,8.1093,8.1093,8.1093,8.1093,8.1093,8.1093,8.1093,8.1093,8.1093,8.1093,8.1093,0.0,8.1093,8.1093,8.1093,8.1093,8.1093,8.1093,8.1093,8.1093,8.1093,8.1093,8.1093,8.1093,8.1093,8.1093,8.1093,8.1093,8.1093,8.1093,8.1093,8.1093,8.1093,8.1093,8.1093,8.1093,8.1093,8.1093,8.1093,8.1093,8.1093,8.1093,8.1093,8.1093,8.1093,8.1093,8.1093,8.1093,8.1093,8.1093,8.1093,8.1093,8.1093,8.1093,8.1093,8.1093,8.1093,8.1093,8.1093,8.1093,8.1093,8.1093,8.1093,8.1093,8.1093,8.1093,8.1093,8.1093,8.1093,8.1093,8.1093,8.1093,8.1093,8.1093,8.1093,8.1093,8.1093,8.1093,8.1093,8.1093,8.1093,8.1093,8.1093,8.1093,8.1093,8.1093,8.1093,8.1093,8.1093,8.1093,8.1093,8.1093,8.1093,8.1093,8.1093,8.1093,8.1093,8.1093,8.1093,8.1093,8.1093,8.1093,8.1093,8.1093,8.1093,8.1093,8.1093,8.1093,8.1093,8.1093,8.1093,8.1093,8.1093,8.1093,8.1093,8.1093,8.1093,8.1093,8.1093,8.1093,8.1093,8.1093,8.1093,8.1093,8.1093,8.1093,8.1093,8.1093,8.1093,8.1093,8.1093,8.1093,8.1093,8.1093,8.1093,8.1093,8.1093,8.1093,8.1093,8.1093,8.1093,8.1093,8.1093,8.1093,8.1093,8.1093,8.1093,8.1093,8.1093,8.1093,8.1093,8.1093,8.1093,8.1093,8.1093,8.1093,8.1093,8.1093,8.1093,8.1093,8.1093,8.1093,8.1093,8.1093,8.1093,8.1093,8.1093,8.1093,8.1093,8.1093,8.1093,8.1093,8.1093,8.1093,8.1093,8.1093,8.1093,8.1093,8.1093,8.1093,8.1093,8.1093,8.1093,8.1093,8.1093,8.1093,8.1093,8.1093,8.1093,8.1093,8.1093,8.1093,8.1093,8.1093,8.1093,8.1093,8.1093,8.1093,8.1093,8.1093,8.1093,8.1093,8.1093,8.1093,8.1093,8.1093,8.1093,8.1093,8.1093,8.1093,8.1093,8.1093,8.1093,8.1093,8.1093,8.1093,8.1093,8.1093,8.1093,8.1093,8.1093,8.1093,8.1093,8.1093,8.1093,8.1093,8.1093,8.1093,8.1093,8.1093,8.1093,8.1093,8.1093,8.1093,8.1093,8.1093,8.1093,8.1093,8.1093,8.1093,0.0,8.1093,8.1093,8.1093,8.1093,8.1093,8.1093,8.1093,8.1093,8.1093,8.1093,8.1093,8.1093,8.1093,8.1093,8.1093,8.1093,8.1093,8.1093,8.1093,8.1093,8.1093,8.1093,8.1093,8.1093,8.1093,8.1093,8.1093,8.1093,8.1093,8.1093,8.1093,8.1093,8.1093,8.1093,8.1093,8.1093,8.1093,8.1093,8.1093,8.1093,8.1093,8.1093,8.1093,8.1093,8.1093,8.1093,8.1093,8.1093,8.1093,8.1093,8.1093,8.1093,8.1093,8.1093,8.1093,8.1093,8.1093,8.1093,8.1093,8.1093,8.1093,8.1093,8.1093,8.1093,8.1093,8.1093,8.1093,8.1093,8.1093,8.1093,8.1093,8.1093,8.1093,8.1093,8.1093,8.1093,8.1093,8.1093,8.1093,8.1093,8.1093,8.1093,8.1093,8.1093,8.1093,8.1093,8.1093,8.1093,8.1093,8.1093,8.1093,8.1093,8.1093,8.1093,8.1093,8.1093,8.1093,8.1093,8.1093,8.1093,8.1093,8.1093,8.1093,8.1093,8.1093,8.1093,8.1093,8.1093,8.1093,8.1093,8.1093,8.1093,8.1093,8.1093,8.1093,0.0,0.0,8.1093,8.1093,8.1093,8.1093,8.1093,8.1093,8.1093,8.1093,8.1093,8.1093,8.1093,8.1093,8.1093,8.1093,8.1093,8.1093,8.1093,8.1093,8.1093,8.1093,8.1093,8.1093,8.1093,8.1093,8.1093,8.1093,8.1093,8.1093,8.1093,8.1093,8.1093,8.1093,8.1093,8.1093,8.1093,8.1093,8.1093,8.1093,8.1093,8.1093,8.1093,8.1093,8.1093,8.1093,8.1093,8.1093,8.1093,8.1093,8.1093,8.1093,8.1093,8.1093,8.1093,8.1093,8.1093,8.1093,8.1093,8.1093,8.1093,8.1093,8.1093,8.1093,8.1093,8.1093,8.1093,8.1093,8.1093,8.1093,8.1093,8.1093,8.1093,8.1093,8.1093,8.1093,8.1093,8.1093,8.1093,8.1093,8.1093,8.1093,8.1093,8.1093,8.1093,8.1093,8.1093,8.1093,8.1093,8.1093,8.1093,8.1093,8.1093,8.1093,8.1093,8.1093,8.1093,8.1093,8.1093,8.1093,8.1093,8.1093,8.1093,8.1093,8.1093,8.1093,8.1093,8.1093,8.1093,8.1093,8.1093,8.1093,8.1093,8.1093,8.1093,8.1093,0.0,8.1093,8.1093,8.1093,8.1093,8.1093,8.1093,8.1093,8.1093,8.1093,8.1093,8.1093,8.1093,8.1093,8.1093,8.1093,8.1093,8.1093,8.1093,8.1093,8.1093,8.1093,8.1093,8.1093,8.1093,8.1093,8.1093,8.1093,8.1093,8.1093,8.1093,8.1093,8.1093,8.1093,8.1093,8.1093,8.1093,8.1093,8.1093,8.1093,8.1093,8.1093,8.1093,8.1093,8.1093,8.1093,8.1093,8.1093,8.1093,8.1093,8.1093,8.1093,8.1093,8.1093,8.1093,8.1093,8.1093,8.1093,8.1093,8.1093,8.1093,8.1093,8.1093,8.1093,8.1093,8.1093,8.1093,8.1093,8.1093,8.1093,8.1093,8.1093,8.1093,8.1093,8.1093,8.1093,8.1093,8.1093,8.1093,8.1093,8.1093,8.1093,8.1093,8.1093,8.1093,8.1093,8.1093,8.1093,8.1093,8.1093,8.1093,8.1093,8.1093,8.1093,8.1093,8.1093,8.1093,8.1093,8.1093,8.1093,8.1093,8.1093,8.1093,8.1093,8.1093,8.1093,8.1093,8.1093,8.1093,8.1093,8.1093,8.1093,8.1093,8.1093,8.1093,8.1093,8.1093,8.1093,8.1093,8.1093,8.1093,8.1093,8.1093,8.1093,8.1093,8.1093,8.1093,8.1093,8.1093,8.1093,8.1093,8.1093,8.1093,8.1093,8.1093,8.1093,8.1093,8.1093,8.1093,8.1093,8.1093,8.1093,8.1093,8.1093,8.1093,8.1093,8.1093,8.1093,8.1093,8.1093,8.1093,8.1093,8.1093,8.1093,8.1093,8.1093,8.1093,8.1093,8.1093,8.1093,8.1093,8.1093,8.1093,8.1093,8.1093,8.1093,8.1093,8.1093,8.1093,8.1093,8.1093,8.1093,8.1093,8.1093,8.1093,8.1093,8.1093,8.1093,8.1093,8.1093,8.1093,8.1093,8.1093,8.1093,8.1093,8.1093,8.1093,8.1093,8.1093,8.1093,8.1093,8.1093,8.1093,8.1093,8.1093,8.1093,8.1093,8.1093,8.1093,8.1093,8.1093,8.1093,8.1093,8.1093,8.1093,8.1093,8.1093,8.1093,8.1093,8.1093,8.1093,8.1093,8.1093,8.1093,8.1093,8.1093,8.1093,8.1093,8.1093,8.1093,8.1093,8.1093,8.1093,8.1093,8.1093,8.1093,8.1093,8.1093,8.1093,8.1093,8.1093,8.1093,8.1093,8.1093,8.1093,8.1093,8.1093,8.1093,8.1093,8.1093,8.1093,8.1093,8.1093,8.1093,8.1093,8.1093,8.1093,8.1093,8.1093,8.1093,8.1093,8.1093,8.1093,8.1093,8.1093,8.1093,8.1093,8.1093,8.1093,8.1093,8.1093,8.1093,8.1093,8.1093,8.1093,8.1093,8.1093,8.1093,8.1093,8.1093,8.1093,8.1093,8.1093,8.1093,8.1093,8.1093,8.1093,8.1093,8.1093,8.1093,8.1093,8.1093,8.1093,8.1093,8.1093,8.1093,8.1093,8.1093,8.1093,8.1093,8.1093,8.1093,8.1093,8.1093,8.1093,8.1093,8.1093,8.1093,8.1093,8.1093,8.1093,8.1093,8.1093,8.1093,8.1093,8.1093,8.1093,8.1093,8.1093,8.1093,8.1093,8.1093,8.1093,8.1093,8.1093,8.1093,8.1093,8.1093,8.1093,8.1093,8.1093,8.1093,8.1093,8.1093,8.1093,8.1093,8.1093,8.1093,8.1093,8.1093,8.1093,8.1093,8.1093,8.1093,8.1093,8.1093,8.1093,8.1093,8.1093,8.1093,8.1093,8.1093,8.1093,8.1093,8.1093,8.1093,8.1093,8.1093,8.1093,8.1093,8.1093,8.1093,8.1093,8.1093,8.1093,8.1093,8.1093,8.1093,8.1093,8.1093,8.1093,8.1093,8.1093,8.1093,8.1093,8.1093,8.1093,8.1093,8.1093,8.1093,8.1093,8.1093,8.1093,8.1093,8.1093,8.1093,8.1093,8.1093,8.1093,8.1093,8.1093,8.1093,8.1093,8.1093,8.1093,8.1093,8.1093,8.1093,8.1093,8.1093,8.1093,8.1093,8.1093,8.1093,8.1093,8.1093,8.1093,8.1093,8.1093,8.1093,8.1093,8.1093,8.1093,8.1093,8.1093,8.1093,8.1093,8.1093,8.1093,8.1093,8.1093,8.1093,8.1093,8.1093,8.1093,8.1093,8.1093,8.1093,8.1093,8.1093,8.1093,8.1093,8.1093,8.1093,8.1093,8.1093,8.1093,8.1093,8.1093,8.1093,8.1093,8.1093,8.1093,8.1093,8.1093,8.1093,8.1093,8.1093,8.1093,8.1093,8.1093,8.1093,8.1093,8.1093,8.1093,8.1093,8.1093,8.1093,8.1093,8.1093,8.1093,8.1093,8.1093,8.1093,8.1093,8.1093,8.1093,8.1093,8.1093,8.1093,8.1093,8.1093,8.1093,8.1093,8.1093,8.1093,8.1093,8.1093,8.1093,8.1093,8.1093,8.1093,8.1093,8.1093,8.1093,8.1093,8.1093,8.1093,8.1093,8.1093,8.1093,8.1093,8.1093,8.1093,8.1093,8.1093,8.1093,8.1093,8.1093,8.1093,8.1093,8.1093,8.1093,8.1093,8.1093,8.1093,8.1093,8.1093,8.1093,8.1093,8.1093,8.1093,8.1093,8.1093,8.1093,8.1093,8.1093,8.1093,8.1093,8.1093,8.1093,8.1093,8.1093,8.1093,8.1093,8.1093,8.1093,8.1093,8.1093,8.1093,8.1093,8.1093,8.1093,8.1093,8.1093,8.1093,8.1093,8.1093,8.1093,8.1093,8.1093,8.1093,8.1093,8.1093,8.1093,8.1093,8.1093,8.1093,8.1093,8.1093,8.1093,8.1093,8.1093,8.1093,8.1093,8.1093,8.1093,8.1093,8.1093,8.1093,8.1093,8.1093,8.1093,8.1093,8.1093,8.1093,8.1093,8.1093,8.1093,8.1093,8.1093,8.1093,8.1093,8.1093,8.1093,8.1093,8.1093,8.1093,8.1093,8.1093,8.1093,8.1093,8.1093,8.1093,8.1093,8.1093,8.1093,8.1093,8.1093,8.1093,8.1093,8.1093,8.1093,8.1093,8.1093,8.1093,8.1093,8.1093,8.1093,8.1093,8.1093,8.1093,8.1093,8.1093,8.1093,8.1093,8.1093,8.1093,8.1093,8.1093,8.1093,8.1093,8.1093,8.1093,8.1093,8.1093,8.1093,8.1093,8.1093,8.1093,8.1093,8.1093,8.1093,8.1093,8.1093,8.1093,8.1093,8.1093,8.1093,8.1093,8.1093,8.1093,8.1093,8.1093,8.1093,8.1093,8.1093,8.1093,8.1093,8.1093,8.1093,8.1093,8.1093,8.1093,8.1093,8.1093,8.1093,8.1093,8.1093,8.1093,8.1093,8.1093,8.1093,8.1093,8.1093,8.1093,8.1093,8.1093,8.1093,8.1093,8.1093,8.1093,8.1093,8.1093,8.1093,8.1093,8.1093,8.1093,8.1093,8.1093,8.1093,8.1093,8.1093,8.1093,8.1093,8.1093,8.1093,8.1093,8.1093,8.1093,8.1093,8.1093,8.1093,8.1093,8.1093,8.1093,8.1093,8.1093,8.1093,8.1093,8.1093,8.1093,8.1093,8.1093,8.1093,8.1093,8.1093,8.1093,8.1093,8.1093,8.1093,8.1093,8.1093,8.1093,8.1093,8.1093,8.1093,8.1093,8.1093,8.1093,8.1093,8.1093,8.1093,8.1093,8.1093,8.1093,8.1093,8.1093,8.1093,8.1093,8.1093,8.1093,8.1093,8.1093,8.1093,8.1093,8.1093,8.1093,8.1093,8.1093,8.1093,8.1093,8.1093,8.1093,8.1093,8.1093,8.1093,8.1093,8.1093,8.1093,8.1093,8.1093,8.1093,8.1093,8.1093,8.1093,8.1093,8.1093,8.1093,8.1093,8.1093,8.1093,8.1093,8.1093,8.1093,8.1093,8.1093,8.1093,8.1093,8.1093,8.1093,8.1093,8.1093,8.1093,8.1093,8.1093,8.1093,8.1093,8.1093,8.1093,8.1093,8.1093,8.1093,8.1093,8.1093,8.1093,8.1093,8.1093,8.1093,8.1093,8.1093,8.1093,8.1093,8.1093,8.1093,8.1093,8.1093,8.1093,8.1093,8.1093,8.1093,8.1093,8.1093,8.1093,8.1093,8.1093,8.1093,8.1093,8.1093,8.1093,8.1093,8.1093,8.1093,8.1093,8.1093,8.1093,8.1093,8.1093,8.1093,8.1093,8.1093,8.1093,8.1093,8.1093,8.1093,8.1093,8.1093,8.1093,8.1093,8.1093,8.1093,8.1093,8.1093,8.1093,8.1093,8.1093,8.1093,8.1093,8.1093,8.1093,8.1093,8.1093,8.1093,8.1093,8.1093,8.1093,8.1093,8.1093,8.1093,8.1093,8.1093,8.1093,8.1093,8.1093,8.1093,8.1093,8.1093,8.1093,8.1093,8.1093,8.1093,8.1093,8.1093,8.1093,8.1093,8.1093,8.1093,8.1093,8.1093,8.1093,8.1093,8.1093,8.1093,8.1093,8.1093,8.1093,8.1093,8.1093,8.1093,8.1093,8.1093,8.1093,8.1093,8.1093,8.1093,8.1093,8.1093,8.1093,8.1093,8.1093,8.1093,8.1093,8.1093,8.1093,8.1093,8.1093,8.1093,8.1093,8.1093,8.1093,8.1093,8.1093,8.1093,8.1093,8.1093,8.1093,8.1093,8.1093,8.1093,8.1093,8.1093,8.1093,8.1093,8.1093,8.1093,8.1093,8.1093,8.1093,8.1093,8.1093,8.1093,8.1093,8.1093,8.1093,8.1093,8.1093,8.1093,8.1093,8.1093,8.1093,8.1093,8.1093,8.1093,8.1093,8.1093,8.1093,8.1093,8.1093,8.1093,8.1093,8.1093,8.1093,8.1093,8.1093,8.1093,8.1093,8.1093,8.1093,8.1093,8.1093,8.1093,8.1093,8.1093,8.1093,8.1093,8.1093,8.1093,8.1093,8.1093,8.1093,8.1093,8.1093,8.1093,8.1093,8.1093,8.1093,8.1093,8.1093,8.1093,8.1093,8.1093,8.1093,8.1093,8.1093,8.1093,8.1093,8.1093,8.1093,8.1093,8.1093,8.1093,8.1093,8.1093,8.1093,8.1093,8.1093,8.1093,8.1093,8.1093,8.1093,8.1093,8.1093,8.1093,8.1093,8.1093,8.1093,8.1093,8.1093,8.1093,8.1093,8.1093,8.1093,8.1093,8.1093,8.1093,8.1093,8.1093,8.1093,8.1093,8.1093,8.1093,8.1093,8.1093,8.1093,8.1093,8.1093,8.1093,8.1093,8.1093,8.1093,8.1093,8.1093,8.1093,8.1093,8.1093,8.1093,8.1093,8.1093,8.1093,8.1093,8.1093,8.1093,8.1093,8.1093,8.1093,8.1093,8.1093,8.1093,8.1093,8.1093,8.1093,8.1093,8.1093,8.1093,8.1093,8.1093,8.1093,8.1093,8.1093,8.1093,8.1093,8.1093,8.1093,8.1093,8.1093,8.1093,8.1093,8.1093,8.1093,8.1093,8.1093,8.1093,8.1093,8.1093,8.1093,8.1093,8.1093,8.1093,8.1093,8.1093,8.1093,8.1093,8.1093,8.1093,8.1093,8.1093,8.1093,8.1093,8.1093,8.1093,8.1093,8.1093,8.1093,8.1093,8.1093,8.1093,8.1093,8.1093,8.1093,8.1093,8.1093,8.1093,8.1093,8.1093,8.1093,8.1093,8.1093,8.1093,8.1093,8.1093,8.1093,8.1093,8.1093,8.1093,8.1093,8.1093,8.1093,8.1093,8.1093,8.1093,8.1093,8.1093,8.1093,8.1093,8.1093,8.1093,8.1093,8.1093,8.1093,8.1093,8.1093,8.1093,8.1093,8.1093,8.1093,8.1093,8.1093,8.1093,8.1093,8.1093,8.1093,8.1093,8.1093,8.1093,8.1093,8.1093,8.1093,8.1093,8.1093,8.1093,8.1093,8.1093,8.1093,8.1093,8.1093,8.1093,8.1093,8.1093,8.1093,8.1093,8.1093,8.1093,8.1093,8.1093,8.1093,8.1093,8.1093,8.1093,8.1093,8.1093,8.1093,8.1093,8.1093,8.1093,8.1093,8.1093,8.1093,8.1093,8.1093,8.1093,8.1093,8.1093,8.1093,8.1093,8.1093,8.1093,8.1093,8.1093,8.1093,8.1093,8.1093,8.1093,8.1093,8.1093,8.1093,8.1093,8.1093,8.1093,8.1093,8.1093,8.1093,8.1093,8.1093,8.1093,8.1093,8.1093,8.1093,8.1093,8.1093,8.1093,8.1093,8.1093,8.1093,8.1093,8.1093,8.1093,8.1093,8.1093,8.1093,8.1093,8.1093,8.1093,8.1093,8.1093,8.1093,8.1093,8.1093,8.1093,8.1093,8.1093,8.1093,8.1093]}]]